﻿<?xml version="1.0" encoding="utf-8"?><gpx creator="Garmin Desktop App" version="1.1" xsi:schemaLocation="http://www.topografix.com/GPX/1/1 http://www.topografix.com/GPX/1/1/gpx.xsd http://www.garmin.com/xmlschemas/WaypointExtension/v1 http://www8.garmin.com/xmlschemas/WaypointExtensionv1.xsd http://www.garmin.com/xmlschemas/TrackPointExtension/v1 http://www.garmin.com/xmlschemas/TrackPointExtensionv1.xsd http://www.garmin.com/xmlschemas/GpxExtensions/v3 http://www8.garmin.com/xmlschemas/GpxExtensionsv3.xsd http://www.garmin.com/xmlschemas/ActivityExtension/v1 http://www8.garmin.com/xmlschemas/ActivityExtensionv1.xsd http://www.garmin.com/xmlschemas/AdventuresExtensions/v1 http://www8.garmin.com/xmlschemas/AdventuresExtensionv1.xsd http://www.garmin.com/xmlschemas/PressureExtension/v1 http://www.garmin.com/xmlschemas/PressureExtensionv1.xsd http://www.garmin.com/xmlschemas/TripExtensions/v1 http://www.garmin.com/xmlschemas/TripExtensionsv1.xsd http://www.garmin.com/xmlschemas/TripMetaDataExtensions/v1 http://www.garmin.com/xmlschemas/TripMetaDataExtensionsv1.xsd http://www.garmin.com/xmlschemas/ViaPointTransportationModeExtensions/v1 http://www.garmin.com/xmlschemas/ViaPointTransportationModeExtensionsv1.xsd http://www.garmin.com/xmlschemas/CreationTimeExtensions/v1 http://www.garmin.com/xmlschemas/CreationTimeExtensionsv1.xsd" xmlns="http://www.topografix.com/GPX/1/1" xmlns:xsi="http://www.w3.org/2001/XMLSchema-instance" xmlns:wptx1="http://www.garmin.com/xmlschemas/WaypointExtension/v1" xmlns:gpxtrx="http://www.garmin.com/xmlschemas/GpxExtensions/v3" xmlns:gpxtpx="http://www.garmin.com/xmlschemas/TrackPointExtension/v1" xmlns:gpxx="http://www.garmin.com/xmlschemas/GpxExtensions/v3" xmlns:trp="http://www.garmin.com/xmlschemas/TripExtensions/v1" xmlns:adv="http://www.garmin.com/xmlschemas/AdventuresExtensions/v1" xmlns:prs="http://www.garmin.com/xmlschemas/PressureExtension/v1" xmlns:tmd="http://www.garmin.com/xmlschemas/TripMetaDataExtensions/v1" xmlns:vptm="http://www.garmin.com/xmlschemas/ViaPointTransportationModeExtensions/v1" xmlns:ctx="http://www.garmin.com/xmlschemas/CreationTimeExtension/v1">

  <metadata>
    <link href="http://www.garmin.com">
      <text>Garmin International</text>
    </link>
    <time>2014-05-12T06:47:03Z</time>
    <bounds maxlat="45.732560316100717" maxlon="10.118112489581108" minlat="45.673701418563724" minlon="10.079955300316215" />
  </metadata>

  <trk>
    <name>pilzone marone2014-05-11</name>
    <extensions>
      <gpxx:TrackExtension>
        <gpxx:DisplayColor>Yellow</gpxx:DisplayColor>
      </gpxx:TrackExtension>
    </extensions>
    <trkseg>
      <trkpt lat="45.675439406186342" lon="10.082142222672701">
        <ele>193.36000000000001</ele>
        <time>2014-05-11T07:24:35Z</time>
      </trkpt>
      <trkpt lat="45.675436723977327" lon="10.082139708101749">
        <ele>194.31999999999999</ele>
        <time>2014-05-11T07:24:58Z</time>
      </trkpt>
      <trkpt lat="45.675436975434422" lon="10.082120848819613">
        <ele>194.31999999999999</ele>
        <time>2014-05-11T07:25:12Z</time>
      </trkpt>
      <trkpt lat="45.675444351509213" lon="10.082119759172201">
        <ele>194.31999999999999</ele>
        <time>2014-05-11T07:25:28Z</time>
      </trkpt>
      <trkpt lat="45.675455331802368" lon="10.082123866304755">
        <ele>194.31999999999999</ele>
        <time>2014-05-11T07:25:37Z</time>
      </trkpt>
      <trkpt lat="45.675453823059797" lon="10.082119926810265">
        <ele>193.36000000000001</ele>
        <time>2014-05-11T07:25:53Z</time>
      </trkpt>
      <trkpt lat="45.67544711753726" lon="10.082109281793237">
        <ele>193.36000000000001</ele>
        <time>2014-05-11T07:26:09Z</time>
      </trkpt>
      <trkpt lat="45.67544418387115" lon="10.082105929031968">
        <ele>193.84</ele>
        <time>2014-05-11T07:26:23Z</time>
      </trkpt>
      <trkpt lat="45.675446111708879" lon="10.082090757787228">
        <ele>194.31999999999999</ele>
        <time>2014-05-11T07:26:39Z</time>
      </trkpt>
      <trkpt lat="45.675458600744605" lon="10.082111209630966">
        <ele>193.84</ele>
        <time>2014-05-11T07:26:57Z</time>
      </trkpt>
      <trkpt lat="45.675451895222068" lon="10.082111628726125">
        <ele>193.84</ele>
        <time>2014-05-11T07:27:11Z</time>
      </trkpt>
      <trkpt lat="45.675450973212719" lon="10.082119842991233">
        <ele>193.84</ele>
        <time>2014-05-11T07:27:25Z</time>
      </trkpt>
      <trkpt lat="45.675492966547608" lon="10.082059912383556">
        <ele>193.84</ele>
        <time>2014-05-11T07:27:37Z</time>
      </trkpt>
      <trkpt lat="45.675511574372649" lon="10.082008615136147">
        <ele>193.84</ele>
        <time>2014-05-11T07:27:49Z</time>
      </trkpt>
      <trkpt lat="45.675503946840763" lon="10.082028228789568">
        <ele>193.84</ele>
        <time>2014-05-11T07:28:01Z</time>
      </trkpt>
      <trkpt lat="45.675499336794019" lon="10.082109700888395">
        <ele>193.84</ele>
        <time>2014-05-11T07:28:16Z</time>
      </trkpt>
      <trkpt lat="45.675500594079494" lon="10.082126799970865">
        <ele>193.84</ele>
        <time>2014-05-11T07:28:28Z</time>
      </trkpt>
      <trkpt lat="45.675491373986006" lon="10.082128811627626">
        <ele>193.84</ele>
        <time>2014-05-11T07:28:51Z</time>
      </trkpt>
      <trkpt lat="45.675491290166974" lon="10.08211531676352">
        <ele>193.84</ele>
        <time>2014-05-11T07:29:07Z</time>
      </trkpt>
      <trkpt lat="45.675512915477157" lon="10.082000233232975">
        <ele>193.84</ele>
        <time>2014-05-11T07:29:25Z</time>
      </trkpt>
      <trkpt lat="45.675508137792349" lon="10.081973746418953">
        <ele>193.84</ele>
        <time>2014-05-11T07:29:27Z</time>
      </trkpt>
      <trkpt lat="45.675508305430412" lon="10.081890262663364">
        <ele>193.84</ele>
        <time>2014-05-11T07:29:33Z</time>
      </trkpt>
      <trkpt lat="45.675508389249444" lon="10.081830751150846">
        <ele>195.28</ele>
        <time>2014-05-11T07:29:38Z</time>
      </trkpt>
      <trkpt lat="45.675485171377659" lon="10.081771826371551">
        <ele>195.28</ele>
        <time>2014-05-11T07:29:43Z</time>
      </trkpt>
      <trkpt lat="45.675399675965309" lon="10.081655737012625">
        <ele>193.84</ele>
        <time>2014-05-11T07:29:58Z</time>
      </trkpt>
      <trkpt lat="45.675398418679833" lon="10.081589855253696">
        <ele>193.84</ele>
        <time>2014-05-11T07:30:11Z</time>
      </trkpt>
      <trkpt lat="45.675322813913226" lon="10.081522716209292">
        <ele>193.84</ele>
        <time>2014-05-11T07:30:32Z</time>
      </trkpt>
      <trkpt lat="45.675201108679175" lon="10.081370752304792">
        <ele>193.84</ele>
        <time>2014-05-11T07:30:46Z</time>
      </trkpt>
      <trkpt lat="45.675093568861485" lon="10.081223398447037">
        <ele>193.84</ele>
        <time>2014-05-11T07:30:57Z</time>
      </trkpt>
      <trkpt lat="45.675039170309901" lon="10.081184506416321">
        <ele>193.84</ele>
        <time>2014-05-11T07:31:04Z</time>
      </trkpt>
      <trkpt lat="45.675027016550303" lon="10.08116539567709">
        <ele>193.84</ele>
        <time>2014-05-11T07:31:05Z</time>
      </trkpt>
      <trkpt lat="45.675013437867165" lon="10.081143854185939">
        <ele>193.84</ele>
        <time>2014-05-11T07:31:06Z</time>
      </trkpt>
      <trkpt lat="45.675000278279185" lon="10.081126419827342">
        <ele>193.84</ele>
        <time>2014-05-11T07:31:07Z</time>
      </trkpt>
      <trkpt lat="45.674988375976682" lon="10.081113930791616">
        <ele>193.84</ele>
        <time>2014-05-11T07:31:08Z</time>
      </trkpt>
      <trkpt lat="45.674979239702225" lon="10.081103034317493">
        <ele>193.84</ele>
        <time>2014-05-11T07:31:09Z</time>
      </trkpt>
      <trkpt lat="45.67497312091291" lon="10.081090210005641">
        <ele>193.84</ele>
        <time>2014-05-11T07:31:10Z</time>
      </trkpt>
      <trkpt lat="45.674967924132943" lon="10.08107746951282">
        <ele>193.84</ele>
        <time>2014-05-11T07:31:11Z</time>
      </trkpt>
      <trkpt lat="45.674960212782025" lon="10.081064896658063">
        <ele>193.84</ele>
        <time>2014-05-11T07:31:12Z</time>
      </trkpt>
      <trkpt lat="45.674951411783695" lon="10.081051988527179">
        <ele>193.84</ele>
        <time>2014-05-11T07:31:13Z</time>
      </trkpt>
      <trkpt lat="45.674941102042794" lon="10.081037571653724">
        <ele>193.84</ele>
        <time>2014-05-11T07:31:14Z</time>
      </trkpt>
      <trkpt lat="45.674929032102227" lon="10.08102030493319">
        <ele>193.84</ele>
        <time>2014-05-11T07:31:15Z</time>
      </trkpt>
      <trkpt lat="45.674813026562333" lon="10.080853421241045">
        <ele>193.84</ele>
        <time>2014-05-11T07:31:29Z</time>
      </trkpt>
      <trkpt lat="45.674781762063503" lon="10.080809583887458">
        <ele>193.84</ele>
        <time>2014-05-11T07:31:33Z</time>
      </trkpt>
      <trkpt lat="45.67472493276" lon="10.080738756805658">
        <ele>193.84</ele>
        <time>2014-05-11T07:31:40Z</time>
      </trkpt>
      <trkpt lat="45.674717053771019" lon="10.080725764855742">
        <ele>193.84</ele>
        <time>2014-05-11T07:31:41Z</time>
      </trkpt>
      <trkpt lat="45.674707246944308" lon="10.08071344345808">
        <ele>193.84</ele>
        <time>2014-05-11T07:31:42Z</time>
      </trkpt>
      <trkpt lat="45.674582608044147" lon="10.080556618049741">
        <ele>193.84</ele>
        <time>2014-05-11T07:31:57Z</time>
      </trkpt>
      <trkpt lat="45.674475487321615" lon="10.080411527305841">
        <ele>193.84</ele>
        <time>2014-05-11T07:32:10Z</time>
      </trkpt>
      <trkpt lat="45.674393177032471" lon="10.080261407420039">
        <ele>193.84</ele>
        <time>2014-05-11T07:32:23Z</time>
      </trkpt>
      <trkpt lat="45.674386974424124" lon="10.080243218690157">
        <ele>193.84</ele>
        <time>2014-05-11T07:32:24Z</time>
      </trkpt>
      <trkpt lat="45.674370881170034" lon="10.08021698333323">
        <ele>193.84</ele>
        <time>2014-05-11T07:32:27Z</time>
      </trkpt>
      <trkpt lat="45.674341209232807" lon="10.080172559246421">
        <ele>193.84</ele>
        <time>2014-05-11T07:32:31Z</time>
      </trkpt>
      <trkpt lat="45.67433257587254" lon="10.080160237848759">
        <ele>193.84</ele>
        <time>2014-05-11T07:32:32Z</time>
      </trkpt>
      <trkpt lat="45.674293767660856" lon="10.080096870660782">
        <ele>193.84</ele>
        <time>2014-05-11T07:32:37Z</time>
      </trkpt>
      <trkpt lat="45.674278512597084" lon="10.080064181238413">
        <ele>193.84</ele>
        <time>2014-05-11T07:32:40Z</time>
      </trkpt>
      <trkpt lat="45.674271387979388" lon="10.080051189288497">
        <ele>193.84</ele>
        <time>2014-05-11T07:32:41Z</time>
      </trkpt>
      <trkpt lat="45.674255127087235" lon="10.080021182075143">
        <ele>195.28</ele>
        <time>2014-05-11T07:32:44Z</time>
      </trkpt>
      <trkpt lat="45.674247667193413" lon="10.080004166811705">
        <ele>195.28</ele>
        <time>2014-05-11T07:32:45Z</time>
      </trkpt>
      <trkpt lat="45.67420206964016" lon="10.079955300316215">
        <ele>195.28</ele>
        <time>2014-05-11T07:32:58Z</time>
      </trkpt>
      <trkpt lat="45.674162004143" lon="10.079959826543927">
        <ele>195.77000000000001</ele>
        <time>2014-05-11T07:33:07Z</time>
      </trkpt>
      <trkpt lat="45.674136690795422" lon="10.079977177083492">
        <ele>195.77000000000001</ele>
        <time>2014-05-11T07:33:10Z</time>
      </trkpt>
      <trkpt lat="45.674124034121633" lon="10.079981703311205">
        <ele>195.77000000000001</ele>
        <time>2014-05-11T07:33:11Z</time>
      </trkpt>
      <trkpt lat="45.67404524423182" lon="10.080024367198348">
        <ele>196.25</ele>
        <time>2014-05-11T07:33:23Z</time>
      </trkpt>
      <trkpt lat="45.674047591164708" lon="10.079987235367298">
        <ele>196.25</ele>
        <time>2014-05-11T07:33:44Z</time>
      </trkpt>
      <trkpt lat="45.67396704107523" lon="10.079972734674811">
        <ele>197.21000000000001</ele>
        <time>2014-05-11T07:34:03Z</time>
      </trkpt>
      <trkpt lat="45.673865787684917" lon="10.080131068825722">
        <ele>198.16999999999999</ele>
        <time>2014-05-11T07:34:14Z</time>
      </trkpt>
      <trkpt lat="45.673797475174069" lon="10.080224443227053">
        <ele>199.13</ele>
        <time>2014-05-11T07:34:28Z</time>
      </trkpt>
      <trkpt lat="45.673792194575071" lon="10.080262999981642">
        <ele>199.13</ele>
        <time>2014-05-11T07:34:32Z</time>
      </trkpt>
      <trkpt lat="45.673757828772068" lon="10.080348243936896">
        <ele>199.13</ele>
        <time>2014-05-11T07:34:44Z</time>
      </trkpt>
      <trkpt lat="45.673743411898613" lon="10.0803601462394">
        <ele>199.13</ele>
        <time>2014-05-11T07:34:47Z</time>
      </trkpt>
      <trkpt lat="45.673701418563724" lon="10.080365091562271">
        <ele>200.56999999999999</ele>
        <time>2014-05-11T07:35:02Z</time>
      </trkpt>
      <trkpt lat="45.673708124086261" lon="10.080377329140902">
        <ele>200.56999999999999</ele>
        <time>2014-05-11T07:35:03Z</time>
      </trkpt>
      <trkpt lat="45.673725055530667" lon="10.080427201464772">
        <ele>200.56999999999999</ele>
        <time>2014-05-11T07:35:07Z</time>
      </trkpt>
      <trkpt lat="45.673761097714305" lon="10.080525940284133">
        <ele>200.56999999999999</ele>
        <time>2014-05-11T07:35:21Z</time>
      </trkpt>
      <trkpt lat="45.673779286444187" lon="10.08061327971518">
        <ele>201.05000000000001</ele>
        <time>2014-05-11T07:35:27Z</time>
      </trkpt>
      <trkpt lat="45.673805605620146" lon="10.080677485093474">
        <ele>201.05000000000001</ele>
        <time>2014-05-11T07:35:32Z</time>
      </trkpt>
      <trkpt lat="45.673818765208125" lon="10.080652590841055">
        <ele>201.53</ele>
        <time>2014-05-11T07:35:47Z</time>
      </trkpt>
      <trkpt lat="45.673796134069562" lon="10.080650914460421">
        <ele>200.56999999999999</ele>
        <time>2014-05-11T07:36:06Z</time>
      </trkpt>
      <trkpt lat="45.673879869282246" lon="10.08074370212853">
        <ele>200.09</ele>
        <time>2014-05-11T07:36:23Z</time>
      </trkpt>
      <trkpt lat="45.673892609775066" lon="10.080775804817677">
        <ele>200.09</ele>
        <time>2014-05-11T07:36:25Z</time>
      </trkpt>
      <trkpt lat="45.673912642523646" lon="10.080804219469428">
        <ele>200.09</ele>
        <time>2014-05-11T07:36:27Z</time>
      </trkpt>
      <trkpt lat="45.673909205943346" lon="10.080865575000644">
        <ele>200.09</ele>
        <time>2014-05-11T07:36:30Z</time>
      </trkpt>
      <trkpt lat="45.67390794865787" lon="10.08088544011116">
        <ele>200.56999999999999</ele>
        <time>2014-05-11T07:36:31Z</time>
      </trkpt>
      <trkpt lat="45.673896046355367" lon="10.080925337970257">
        <ele>201.53</ele>
        <time>2014-05-11T07:36:34Z</time>
      </trkpt>
      <trkpt lat="45.673890262842178" lon="10.080943275243044">
        <ele>201.53</ele>
        <time>2014-05-11T07:36:35Z</time>
      </trkpt>
      <trkpt lat="45.673927059397101" lon="10.081028686836362">
        <ele>202.00999999999999</ele>
        <time>2014-05-11T07:36:51Z</time>
      </trkpt>
      <trkpt lat="45.673972154036164" lon="10.081034386530519">
        <ele>202.00999999999999</ele>
        <time>2014-05-11T07:37:01Z</time>
      </trkpt>
      <trkpt lat="45.674012219533324" lon="10.081099094823003">
        <ele>202.49000000000001</ele>
        <time>2014-05-11T07:37:07Z</time>
      </trkpt>
      <trkpt lat="45.674035353586078" lon="10.081143770366907">
        <ele>202.49000000000001</ele>
        <time>2014-05-11T07:37:12Z</time>
      </trkpt>
      <trkpt lat="45.674052955582738" lon="10.081209484487772">
        <ele>202.49000000000001</ele>
        <time>2014-05-11T07:37:16Z</time>
      </trkpt>
      <trkpt lat="45.674068629741669" lon="10.081252818927169">
        <ele>203.46000000000001</ele>
        <time>2014-05-11T07:37:18Z</time>
      </trkpt>
      <trkpt lat="45.674111796543002" lon="10.08136086165905">
        <ele>203.46000000000001</ele>
        <time>2014-05-11T07:37:26Z</time>
      </trkpt>
      <trkpt lat="45.674116658046842" lon="10.081382486969233">
        <ele>203.46000000000001</ele>
        <time>2014-05-11T07:37:27Z</time>
      </trkpt>
      <trkpt lat="45.674128392711282" lon="10.081399250775576">
        <ele>203.46000000000001</ele>
        <time>2014-05-11T07:37:28Z</time>
      </trkpt>
      <trkpt lat="45.674137696623802" lon="10.081414254382253">
        <ele>203.46000000000001</ele>
        <time>2014-05-11T07:37:29Z</time>
      </trkpt>
      <trkpt lat="45.674166195094585" lon="10.081590106710792">
        <ele>204.41999999999999</ele>
        <time>2014-05-11T07:37:40Z</time>
      </trkpt>
      <trkpt lat="45.674183797091246" lon="10.08164819329977">
        <ele>204.90000000000001</ele>
        <time>2014-05-11T07:37:51Z</time>
      </trkpt>
      <trkpt lat="45.674173654988408" lon="10.081672836095095">
        <ele>204.90000000000001</ele>
        <time>2014-05-11T07:38:10Z</time>
      </trkpt>
      <trkpt lat="45.674182204529643" lon="10.081673674285412">
        <ele>204.90000000000001</ele>
        <time>2014-05-11T07:38:28Z</time>
      </trkpt>
      <trkpt lat="45.67417373880744" lon="10.081721199676394">
        <ele>205.38</ele>
        <time>2014-05-11T07:38:40Z</time>
      </trkpt>
      <trkpt lat="45.674172816798091" lon="10.081738717854023">
        <ele>205.38</ele>
        <time>2014-05-11T07:38:41Z</time>
      </trkpt>
      <trkpt lat="45.674206847324967" lon="10.081987241283059">
        <ele>207.30000000000001</ele>
        <time>2014-05-11T07:38:56Z</time>
      </trkpt>
      <trkpt lat="45.674238195642829" lon="10.082172732800245">
        <ele>208.74000000000001</ele>
        <time>2014-05-11T07:39:09Z</time>
      </trkpt>
      <trkpt lat="45.67425437271595" lon="10.082241212949157">
        <ele>209.22</ele>
        <time>2014-05-11T07:39:15Z</time>
      </trkpt>
      <trkpt lat="45.674260156229138" lon="10.082264011725783">
        <ele>209.22</ele>
        <time>2014-05-11T07:39:16Z</time>
      </trkpt>
      <trkpt lat="45.674264179542661" lon="10.0822873134166">
        <ele>209.69999999999999</ele>
        <time>2014-05-11T07:39:17Z</time>
      </trkpt>
      <trkpt lat="45.674284212291241" lon="10.082487473264337">
        <ele>210.66999999999999</ele>
        <time>2014-05-11T07:39:29Z</time>
      </trkpt>
      <trkpt lat="45.674304412677884" lon="10.082601886242628">
        <ele>211.15000000000001</ele>
        <time>2014-05-11T07:39:38Z</time>
      </trkpt>
      <trkpt lat="45.67432033829391" lon="10.082719065248966">
        <ele>212.11000000000001</ele>
        <time>2014-05-11T07:39:49Z</time>
      </trkpt>
      <trkpt lat="45.674329474568367" lon="10.082753011956811">
        <ele>212.11000000000001</ele>
        <time>2014-05-11T07:40:01Z</time>
      </trkpt>
      <trkpt lat="45.67436970770359" lon="10.082973288372159">
        <ele>212.59</ele>
        <time>2014-05-11T07:40:14Z</time>
      </trkpt>
      <trkpt lat="45.67445570603013" lon="10.083136400207877">
        <ele>213.55000000000001</ele>
        <time>2014-05-11T07:40:26Z</time>
      </trkpt>
      <trkpt lat="45.674480013549328" lon="10.083161713555455">
        <ele>213.55000000000001</ele>
        <time>2014-05-11T07:40:31Z</time>
      </trkpt>
      <trkpt lat="45.674483785405755" lon="10.083175543695688">
        <ele>213.55000000000001</ele>
        <time>2014-05-11T07:40:32Z</time>
      </trkpt>
      <trkpt lat="45.674486886709929" lon="10.083192558959126">
        <ele>213.55000000000001</ele>
        <time>2014-05-11T07:40:33Z</time>
      </trkpt>
      <trkpt lat="45.674490323290229" lon="10.083214351907372">
        <ele>213.55000000000001</ele>
        <time>2014-05-11T07:40:34Z</time>
      </trkpt>
      <trkpt lat="45.674496106803417" lon="10.083239413797855">
        <ele>213.55000000000001</ele>
        <time>2014-05-11T07:40:35Z</time>
      </trkpt>
      <trkpt lat="45.674503650516272" lon="10.083260620012879">
        <ele>213.55000000000001</ele>
        <time>2014-05-11T07:40:36Z</time>
      </trkpt>
      <trkpt lat="45.674518318846822" lon="10.083301272243261">
        <ele>213.55000000000001</ele>
        <time>2014-05-11T07:40:40Z</time>
      </trkpt>
      <trkpt lat="45.674525275826454" lon="10.083318119868636">
        <ele>214.03</ele>
        <time>2014-05-11T07:40:41Z</time>
      </trkpt>
      <trkpt lat="45.674532065168023" lon="10.083334045484662">
        <ele>214.03</ele>
        <time>2014-05-11T07:40:42Z</time>
      </trkpt>
      <trkpt lat="45.674586966633797" lon="10.08350595831871">
        <ele>215.47</ele>
        <time>2014-05-11T07:40:55Z</time>
      </trkpt>
      <trkpt lat="45.674634659662843" lon="10.083641996607184">
        <ele>216.91</ele>
        <time>2014-05-11T07:41:06Z</time>
      </trkpt>
      <trkpt lat="45.674748905003071" lon="10.083868727087975">
        <ele>218.36000000000001</ele>
        <time>2014-05-11T07:41:24Z</time>
      </trkpt>
      <trkpt lat="45.674905143678188" lon="10.084167961031199">
        <ele>220.28</ele>
        <time>2014-05-11T07:41:47Z</time>
      </trkpt>
      <trkpt lat="45.674966583028436" lon="10.084266196936369">
        <ele>221.24000000000001</ele>
        <time>2014-05-11T07:41:56Z</time>
      </trkpt>
      <trkpt lat="45.675038583576679" lon="10.084446407854557">
        <ele>222.19999999999999</ele>
        <time>2014-05-11T07:42:08Z</time>
      </trkpt>
      <trkpt lat="45.675087114796042" lon="10.084506087005138">
        <ele>222.19999999999999</ele>
        <time>2014-05-11T07:42:13Z</time>
      </trkpt>
      <trkpt lat="45.67509432323277" lon="10.084525784477592">
        <ele>222.19999999999999</ele>
        <time>2014-05-11T07:42:14Z</time>
      </trkpt>
      <trkpt lat="45.675162216648459" lon="10.08467179723084">
        <ele>223.16</ele>
        <time>2014-05-11T07:42:24Z</time>
      </trkpt>
      <trkpt lat="45.675244694575667" lon="10.084850834682584">
        <ele>225.09</ele>
        <time>2014-05-11T07:42:37Z</time>
      </trkpt>
      <trkpt lat="45.675340835005045" lon="10.084951836615801">
        <ele>226.53</ele>
        <time>2014-05-11T07:42:51Z</time>
      </trkpt>
      <trkpt lat="45.675332872197032" lon="10.084936246275902">
        <ele>227.97</ele>
        <time>2014-05-11T07:43:09Z</time>
      </trkpt>
      <trkpt lat="45.675333961844444" lon="10.084955776110291">
        <ele>226.53</ele>
        <time>2014-05-11T07:43:34Z</time>
      </trkpt>
      <trkpt lat="45.675344187766314" lon="10.084995925426483">
        <ele>226.53</ele>
        <time>2014-05-11T07:43:38Z</time>
      </trkpt>
      <trkpt lat="45.675346869975328" lon="10.085012437775731">
        <ele>226.53</ele>
        <time>2014-05-11T07:43:39Z</time>
      </trkpt>
      <trkpt lat="45.675351647660136" lon="10.085031380876899">
        <ele>226.53</ele>
        <time>2014-05-11T07:43:40Z</time>
      </trkpt>
      <trkpt lat="45.675455499440432" lon="10.085200946778059">
        <ele>229.41</ele>
        <time>2014-05-11T07:43:53Z</time>
      </trkpt>
      <trkpt lat="45.675550885498524" lon="10.085399933159351">
        <ele>231.33000000000001</ele>
        <time>2014-05-11T07:44:09Z</time>
      </trkpt>
      <trkpt lat="45.675558093935251" lon="10.085414769127965">
        <ele>231.33000000000001</ele>
        <time>2014-05-11T07:44:10Z</time>
      </trkpt>
      <trkpt lat="45.675564548000693" lon="10.085434215143323">
        <ele>231.33000000000001</ele>
        <time>2014-05-11T07:44:11Z</time>
      </trkpt>
      <trkpt lat="45.675571169704199" lon="10.085457935929298">
        <ele>231.33000000000001</ele>
        <time>2014-05-11T07:44:12Z</time>
      </trkpt>
      <trkpt lat="45.675574857741594" lon="10.085480734705925">
        <ele>231.33000000000001</ele>
        <time>2014-05-11T07:44:13Z</time>
      </trkpt>
      <trkpt lat="45.675579970702529" lon="10.085496241226792">
        <ele>231.81</ele>
        <time>2014-05-11T07:44:14Z</time>
      </trkpt>
      <trkpt lat="45.675597153604031" lon="10.085541252046824">
        <ele>231.81</ele>
        <time>2014-05-11T07:44:17Z</time>
      </trkpt>
      <trkpt lat="45.675600003451109" lon="10.085567990317941">
        <ele>231.81</ele>
        <time>2014-05-11T07:44:18Z</time>
      </trkpt>
      <trkpt lat="45.675598327070475" lon="10.085608642548323">
        <ele>232.78</ele>
        <time>2014-05-11T07:44:29Z</time>
      </trkpt>
      <trkpt lat="45.675604781135917" lon="10.08561191149056">
        <ele>233.25999999999999</ele>
        <time>2014-05-11T07:44:35Z</time>
      </trkpt>
      <trkpt lat="45.675648199394345" lon="10.085718864575028">
        <ele>233.25999999999999</ele>
        <time>2014-05-11T07:44:51Z</time>
      </trkpt>
      <trkpt lat="45.675706705078483" lon="10.085874600335956">
        <ele>234.22</ele>
        <time>2014-05-11T07:45:01Z</time>
      </trkpt>
      <trkpt lat="45.675714332610369" lon="10.085891112685204">
        <ele>234.22</ele>
        <time>2014-05-11T07:45:02Z</time>
      </trkpt>
      <trkpt lat="45.675721457228065" lon="10.08591583929956">
        <ele>234.22</ele>
        <time>2014-05-11T07:45:03Z</time>
      </trkpt>
      <trkpt lat="45.675722965970635" lon="10.085943499580026">
        <ele>234.22</ele>
        <time>2014-05-11T07:45:04Z</time>
      </trkpt>
      <trkpt lat="45.675722295418382" lon="10.085968812927604">
        <ele>234.22</ele>
        <time>2014-05-11T07:45:05Z</time>
      </trkpt>
      <trkpt lat="45.675764791667461" lon="10.086172325536609">
        <ele>234.69999999999999</ele>
        <time>2014-05-11T07:45:17Z</time>
      </trkpt>
      <trkpt lat="45.675803767517209" lon="10.086362175643444">
        <ele>234.69999999999999</ele>
        <time>2014-05-11T07:45:29Z</time>
      </trkpt>
      <trkpt lat="45.675804857164621" lon="10.086381621658802">
        <ele>234.69999999999999</ele>
        <time>2014-05-11T07:45:30Z</time>
      </trkpt>
      <trkpt lat="45.675817346200347" lon="10.086640119552612">
        <ele>234.69999999999999</ele>
        <time>2014-05-11T07:45:42Z</time>
      </trkpt>
      <trkpt lat="45.67580284550786" lon="10.08674749173224">
        <ele>233.25999999999999</ele>
        <time>2014-05-11T07:45:47Z</time>
      </trkpt>
      <trkpt lat="45.675846012309194" lon="10.086908927187324">
        <ele>232.30000000000001</ele>
        <time>2014-05-11T07:46:01Z</time>
      </trkpt>
      <trkpt lat="45.67586587741971" lon="10.086924433708191">
        <ele>232.30000000000001</ele>
        <time>2014-05-11T07:46:03Z</time>
      </trkpt>
      <trkpt lat="45.675880294293165" lon="10.086933234706521">
        <ele>232.30000000000001</ele>
        <time>2014-05-11T07:46:04Z</time>
      </trkpt>
      <trkpt lat="45.676002837717533" lon="10.087121408432722">
        <ele>231.81</ele>
        <time>2014-05-11T07:46:20Z</time>
      </trkpt>
      <trkpt lat="45.676054805517197" lon="10.087165161967278">
        <ele>231.81</ele>
        <time>2014-05-11T07:46:33Z</time>
      </trkpt>
      <trkpt lat="45.676079951226711" lon="10.087287370115519">
        <ele>231.81</ele>
        <time>2014-05-11T07:46:50Z</time>
      </trkpt>
      <trkpt lat="45.676142061129212" lon="10.087480153888464">
        <ele>231.81</ele>
        <time>2014-05-11T07:47:05Z</time>
      </trkpt>
      <trkpt lat="45.676222443580627" lon="10.087664555758238">
        <ele>231.81</ele>
        <time>2014-05-11T07:47:22Z</time>
      </trkpt>
      <trkpt lat="45.676293103024364" lon="10.087902769446373">
        <ele>230.84999999999999</ele>
        <time>2014-05-11T07:47:39Z</time>
      </trkpt>
      <trkpt lat="45.676379604265094" lon="10.08810443803668">
        <ele>230.84999999999999</ele>
        <time>2014-05-11T07:47:53Z</time>
      </trkpt>
      <trkpt lat="45.676426626741886" lon="10.088113322854042">
        <ele>230.84999999999999</ele>
        <time>2014-05-11T07:48:11Z</time>
      </trkpt>
      <trkpt lat="45.676558557897806" lon="10.088307280093431">
        <ele>229.88999999999999</ele>
        <time>2014-05-11T07:48:27Z</time>
      </trkpt>
      <trkpt lat="45.676629133522511" lon="10.088381795212626">
        <ele>229.41</ele>
        <time>2014-05-11T07:48:36Z</time>
      </trkpt>
      <trkpt lat="45.676833651959896" lon="10.088491262868047">
        <ele>229.41</ele>
        <time>2014-05-11T07:48:53Z</time>
      </trkpt>
      <trkpt lat="45.677056862041354" lon="10.088673317804933">
        <ele>229.41</ele>
        <time>2014-05-11T07:49:10Z</time>
      </trkpt>
      <trkpt lat="45.677174376323819" lon="10.088870460167527">
        <ele>230.84999999999999</ele>
        <time>2014-05-11T07:49:26Z</time>
      </trkpt>
      <trkpt lat="45.677375961095095" lon="10.089154439046979">
        <ele>230.84999999999999</ele>
        <time>2014-05-11T07:49:45Z</time>
      </trkpt>
      <trkpt lat="45.677523817867041" lon="10.089365914463997">
        <ele>230.84999999999999</ele>
        <time>2014-05-11T07:50:01Z</time>
      </trkpt>
      <trkpt lat="45.677683409303427" lon="10.089613515883684">
        <ele>231.81</ele>
        <time>2014-05-11T07:50:22Z</time>
      </trkpt>
      <trkpt lat="45.677756331861019" lon="10.08981904014945">
        <ele>232.30000000000001</ele>
        <time>2014-05-11T07:50:38Z</time>
      </trkpt>
      <trkpt lat="45.677803102880716" lon="10.090014254674315">
        <ele>233.25999999999999</ele>
        <time>2014-05-11T07:50:52Z</time>
      </trkpt>
      <trkpt lat="45.677816681563854" lon="10.090030683204532">
        <ele>233.25999999999999</ele>
        <time>2014-05-11T07:50:53Z</time>
      </trkpt>
      <trkpt lat="45.677827578037977" lon="10.09004820138216">
        <ele>233.25999999999999</ele>
        <time>2014-05-11T07:50:54Z</time>
      </trkpt>
      <trkpt lat="45.677843000739813" lon="10.09006773121655">
        <ele>233.25999999999999</ele>
        <time>2014-05-11T07:50:55Z</time>
      </trkpt>
      <trkpt lat="45.677855825051665" lon="10.090083573013544">
        <ele>233.25999999999999</ele>
        <time>2014-05-11T07:50:56Z</time>
      </trkpt>
      <trkpt lat="45.678026312962174" lon="10.090246517211199">
        <ele>233.25999999999999</ele>
        <time>2014-05-11T07:51:14Z</time>
      </trkpt>
      <trkpt lat="45.678247679024935" lon="10.09041172452271">
        <ele>233.74000000000001</ele>
        <time>2014-05-11T07:51:37Z</time>
      </trkpt>
      <trkpt lat="45.678357565775514" lon="10.090523874387145">
        <ele>234.22</ele>
        <time>2014-05-11T07:51:57Z</time>
      </trkpt>
      <trkpt lat="45.67850693129003" lon="10.090735936537385">
        <ele>234.69999999999999</ele>
        <time>2014-05-11T07:52:17Z</time>
      </trkpt>
      <trkpt lat="45.678586475551128" lon="10.09079678915441">
        <ele>234.69999999999999</ele>
        <time>2014-05-11T07:52:24Z</time>
      </trkpt>
      <trkpt lat="45.678597707301378" lon="10.090807853266597">
        <ele>234.69999999999999</ele>
        <time>2014-05-11T07:52:25Z</time>
      </trkpt>
      <trkpt lat="45.678606005385518" lon="10.090817157179117">
        <ele>234.69999999999999</ele>
        <time>2014-05-11T07:52:26Z</time>
      </trkpt>
      <trkpt lat="45.678615728393197" lon="10.09082562290132">
        <ele>234.69999999999999</ele>
        <time>2014-05-11T07:52:27Z</time>
      </trkpt>
      <trkpt lat="45.678625032305717" lon="10.090833501890302">
        <ele>234.69999999999999</ele>
        <time>2014-05-11T07:52:28Z</time>
      </trkpt>
      <trkpt lat="45.678634839132428" lon="10.090842386707664">
        <ele>234.69999999999999</ele>
        <time>2014-05-11T07:52:29Z</time>
      </trkpt>
      <trkpt lat="45.678772050887346" lon="10.091036930680275">
        <ele>235.18000000000001</ele>
        <time>2014-05-11T07:52:45Z</time>
      </trkpt>
      <trkpt lat="45.678837178274989" lon="10.091142123565078">
        <ele>235.18000000000001</ele>
        <time>2014-05-11T07:52:58Z</time>
      </trkpt>
      <trkpt lat="45.678846566006541" lon="10.091159306466579">
        <ele>235.18000000000001</ele>
        <time>2014-05-11T07:52:59Z</time>
      </trkpt>
      <trkpt lat="45.678859893232584" lon="10.09118034504354">
        <ele>235.18000000000001</ele>
        <time>2014-05-11T07:53:00Z</time>
      </trkpt>
      <trkpt lat="45.678876237943769" lon="10.091199539601803">
        <ele>235.18000000000001</ele>
        <time>2014-05-11T07:53:01Z</time>
      </trkpt>
      <trkpt lat="45.678893839940429" lon="10.091217141598463">
        <ele>235.18000000000001</ele>
        <time>2014-05-11T07:53:02Z</time>
      </trkpt>
      <trkpt lat="45.678907418623567" lon="10.091232061386108">
        <ele>235.18000000000001</ele>
        <time>2014-05-11T07:53:03Z</time>
      </trkpt>
      <trkpt lat="45.678917896002531" lon="10.091245220974088">
        <ele>235.18000000000001</ele>
        <time>2014-05-11T07:53:04Z</time>
      </trkpt>
      <trkpt lat="45.678925858810544" lon="10.091257710009813">
        <ele>235.18000000000001</ele>
        <time>2014-05-11T07:53:05Z</time>
      </trkpt>
      <trkpt lat="45.678947232663631" lon="10.091296937316656">
        <ele>235.18000000000001</ele>
        <time>2014-05-11T07:53:21Z</time>
      </trkpt>
      <trkpt lat="45.678957039490342" lon="10.091310432180762">
        <ele>235.18000000000001</ele>
        <time>2014-05-11T07:53:22Z</time>
      </trkpt>
      <trkpt lat="45.67896718159318" lon="10.091325435787439">
        <ele>235.18000000000001</ele>
        <time>2014-05-11T07:53:23Z</time>
      </trkpt>
      <trkpt lat="45.679032811895013" lon="10.091390982270241">
        <ele>235.18000000000001</ele>
        <time>2014-05-11T07:53:31Z</time>
      </trkpt>
      <trkpt lat="45.679039936512709" lon="10.091404560953379">
        <ele>235.18000000000001</ele>
        <time>2014-05-11T07:53:32Z</time>
      </trkpt>
      <trkpt lat="45.679048150777817" lon="10.091420402750373">
        <ele>235.18000000000001</ele>
        <time>2014-05-11T07:53:33Z</time>
      </trkpt>
      <trkpt lat="45.679099699482322" lon="10.091461390256882">
        <ele>235.18000000000001</ele>
        <time>2014-05-11T07:53:49Z</time>
      </trkpt>
      <trkpt lat="45.6792320497334" lon="10.0916279386729">
        <ele>236.13999999999999</ele>
        <time>2014-05-11T07:54:04Z</time>
      </trkpt>
      <trkpt lat="45.679338835179806" lon="10.091741513460875">
        <ele>236.13999999999999</ele>
        <time>2014-05-11T07:54:14Z</time>
      </trkpt>
      <trkpt lat="45.679348139092326" lon="10.091767413541675">
        <ele>236.13999999999999</ele>
        <time>2014-05-11T07:54:16Z</time>
      </trkpt>
      <trkpt lat="45.679353503510356" lon="10.09178476408124">
        <ele>236.13999999999999</ele>
        <time>2014-05-11T07:54:17Z</time>
      </trkpt>
      <trkpt lat="45.679452326148748" lon="10.092019205912948">
        <ele>237.09999999999999</ele>
        <time>2014-05-11T07:54:34Z</time>
      </trkpt>
      <trkpt lat="45.679596159607172" lon="10.092215929180384">
        <ele>238.06</ele>
        <time>2014-05-11T07:54:47Z</time>
      </trkpt>
      <trkpt lat="45.67960437387228" lon="10.092232106253505">
        <ele>238.06</ele>
        <time>2014-05-11T07:54:48Z</time>
      </trkpt>
      <trkpt lat="45.679674362763762" lon="10.092390775680542">
        <ele>239.50999999999999</ele>
        <time>2014-05-11T07:55:00Z</time>
      </trkpt>
      <trkpt lat="45.679681152105331" lon="10.092410137876868">
        <ele>239.50999999999999</ele>
        <time>2014-05-11T07:55:01Z</time>
      </trkpt>
      <trkpt lat="45.679750051349401" lon="10.09257291443646">
        <ele>240.47</ele>
        <time>2014-05-11T07:55:13Z</time>
      </trkpt>
      <trkpt lat="45.679766563698649" lon="10.092590432614088">
        <ele>240.94999999999999</ele>
        <time>2014-05-11T07:55:15Z</time>
      </trkpt>
      <trkpt lat="45.679895142093301" lon="10.092738457024097">
        <ele>243.34999999999999</ele>
        <time>2014-05-11T07:55:32Z</time>
      </trkpt>
      <trkpt lat="45.680020870640874" lon="10.092885475605726">
        <ele>245.27000000000001</ele>
        <time>2014-05-11T07:55:49Z</time>
      </trkpt>
      <trkpt lat="45.680049452930689" lon="10.092929312959313">
        <ele>245.75</ele>
        <time>2014-05-11T07:55:54Z</time>
      </trkpt>
      <trkpt lat="45.680060014128685" lon="10.092941718176007">
        <ele>245.75</ele>
        <time>2014-05-11T07:55:55Z</time>
      </trkpt>
      <trkpt lat="45.680135702714324" lon="10.093044564127922">
        <ele>247.68000000000001</ele>
        <time>2014-05-11T07:56:04Z</time>
      </trkpt>
      <trkpt lat="45.680155819281936" lon="10.09307867847383">
        <ele>248.16</ele>
        <time>2014-05-11T07:56:07Z</time>
      </trkpt>
      <trkpt lat="45.680182306095958" lon="10.093118576332927">
        <ele>248.63999999999999</ele>
        <time>2014-05-11T07:56:11Z</time>
      </trkpt>
      <trkpt lat="45.680227819830179" lon="10.093150846660137">
        <ele>252</ele>
        <time>2014-05-11T07:56:17Z</time>
      </trkpt>
      <trkpt lat="45.680242152884603" lon="10.093175070360303">
        <ele>250.08000000000001</ele>
        <time>2014-05-11T07:56:21Z</time>
      </trkpt>
      <trkpt lat="45.680352123454213" lon="10.093280682340264">
        <ele>251.03999999999999</ele>
        <time>2014-05-11T07:56:34Z</time>
      </trkpt>
      <trkpt lat="45.680359583348036" lon="10.093288728967309">
        <ele>251.52000000000001</ele>
        <time>2014-05-11T07:56:35Z</time>
      </trkpt>
      <trkpt lat="45.680368803441525" lon="10.093304654583335">
        <ele>251.52000000000001</ele>
        <time>2014-05-11T07:56:36Z</time>
      </trkpt>
      <trkpt lat="45.680376263335347" lon="10.093323932960629">
        <ele>251.52000000000001</ele>
        <time>2014-05-11T07:56:37Z</time>
      </trkpt>
      <trkpt lat="45.680442145094275" lon="10.093459719792008">
        <ele>252</ele>
        <time>2014-05-11T07:56:50Z</time>
      </trkpt>
      <trkpt lat="45.680455639958382" lon="10.09349056519568">
        <ele>252.47999999999999</ele>
        <time>2014-05-11T07:56:52Z</time>
      </trkpt>
      <trkpt lat="45.680516995489597" lon="10.093647474423051">
        <ele>252.96000000000001</ele>
        <time>2014-05-11T07:57:05Z</time>
      </trkpt>
      <trkpt lat="45.680644735693932" lon="10.093859536573291">
        <ele>253.93000000000001</ele>
        <time>2014-05-11T07:57:22Z</time>
      </trkpt>
      <trkpt lat="45.680670384317636" lon="10.093893650919199">
        <ele>254.41</ele>
        <time>2014-05-11T07:57:25Z</time>
      </trkpt>
      <trkpt lat="45.680682538077235" lon="10.093910414725542">
        <ele>254.41</ele>
        <time>2014-05-11T07:57:26Z</time>
      </trkpt>
      <trkpt lat="45.680718161165714" lon="10.09394695982337">
        <ele>254.88999999999999</ele>
        <time>2014-05-11T07:57:30Z</time>
      </trkpt>
      <trkpt lat="45.680729895830154" lon="10.09396456182003">
        <ele>255.37</ele>
        <time>2014-05-11T07:57:31Z</time>
      </trkpt>
      <trkpt lat="45.680758813396096" lon="10.094021055847406">
        <ele>255.37</ele>
        <time>2014-05-11T07:57:35Z</time>
      </trkpt>
      <trkpt lat="45.680765016004443" lon="10.094038741663098">
        <ele>255.84999999999999</ele>
        <time>2014-05-11T07:57:36Z</time>
      </trkpt>
      <trkpt lat="45.680840201675892" lon="10.094195064157248">
        <ele>257.76999999999998</ele>
        <time>2014-05-11T07:57:50Z</time>
      </trkpt>
      <trkpt lat="45.680900299921632" lon="10.094273770228028">
        <ele>258.73000000000002</ele>
        <time>2014-05-11T07:57:57Z</time>
      </trkpt>
      <trkpt lat="45.680952686816454" lon="10.094340909272432">
        <ele>260.17000000000002</ele>
        <time>2014-05-11T07:58:04Z</time>
      </trkpt>
      <trkpt lat="45.68113717250526" lon="10.094413999468088">
        <ele>262.10000000000002</ele>
        <time>2014-05-11T07:58:22Z</time>
      </trkpt>
      <trkpt lat="45.681147901341319" lon="10.094414167106152">
        <ele>262.57999999999998</ele>
        <time>2014-05-11T07:58:23Z</time>
      </trkpt>
      <trkpt lat="45.681161228567362" lon="10.094418525695801">
        <ele>262.57999999999998</ele>
        <time>2014-05-11T07:58:24Z</time>
      </trkpt>
      <trkpt lat="45.681208670139313" lon="10.094429086893797">
        <ele>263.06</ele>
        <time>2014-05-11T07:58:28Z</time>
      </trkpt>
      <trkpt lat="45.681322412565351" lon="10.094437133520842">
        <ele>264.98000000000002</ele>
        <time>2014-05-11T07:58:39Z</time>
      </trkpt>
      <trkpt lat="45.681332973763347" lon="10.094435289502144">
        <ele>264.98000000000002</ele>
        <time>2014-05-11T07:58:40Z</time>
      </trkpt>
      <trkpt lat="45.681343954056501" lon="10.094439731910825">
        <ele>265.45999999999998</ele>
        <time>2014-05-11T07:58:43Z</time>
      </trkpt>
      <trkpt lat="45.681367088109255" lon="10.094434283673763">
        <ele>266.42000000000002</ele>
        <time>2014-05-11T07:58:47Z</time>
      </trkpt>
      <trkpt lat="45.681481333449483" lon="10.094498991966248">
        <ele>268.35000000000002</ele>
        <time>2014-05-11T07:59:01Z</time>
      </trkpt>
      <trkpt lat="45.681517124176025" lon="10.094576189294457">
        <ele>269.31</ele>
        <time>2014-05-11T07:59:12Z</time>
      </trkpt>
      <trkpt lat="45.681544113904238" lon="10.094622792676091">
        <ele>269.31</ele>
        <time>2014-05-11T07:59:17Z</time>
      </trkpt>
      <trkpt lat="45.681584933772683" lon="10.094748018309474">
        <ele>269.79000000000002</ele>
        <time>2014-05-11T07:59:26Z</time>
      </trkpt>
      <trkpt lat="45.681590465828776" lon="10.094769140705466">
        <ele>269.79000000000002</ele>
        <time>2014-05-11T07:59:27Z</time>
      </trkpt>
      <trkpt lat="45.68164779804647" lon="10.094959661364555">
        <ele>271.70999999999998</ele>
        <time>2014-05-11T07:59:39Z</time>
      </trkpt>
      <trkpt lat="45.681689288467169" lon="10.095140878111124">
        <ele>273.14999999999998</ele>
        <time>2014-05-11T07:59:52Z</time>
      </trkpt>
      <trkpt lat="45.681709907948971" lon="10.095207514241338">
        <ele>273.63</ele>
        <time>2014-05-11T07:59:57Z</time>
      </trkpt>
      <trkpt lat="45.681713931262493" lon="10.095227127894759">
        <ele>274.11000000000001</ele>
        <time>2014-05-11T07:59:58Z</time>
      </trkpt>
      <trkpt lat="45.681719463318586" lon="10.095246490091085">
        <ele>274.11000000000001</ele>
        <time>2014-05-11T07:59:59Z</time>
      </trkpt>
      <trkpt lat="45.681728515774012" lon="10.095284376293421">
        <ele>274.58999999999997</ele>
        <time>2014-05-11T08:00:02Z</time>
      </trkpt>
      <trkpt lat="45.681731700897217" lon="10.09529946371913">
        <ele>274.58999999999997</ele>
        <time>2014-05-11T08:00:03Z</time>
      </trkpt>
      <trkpt lat="45.681817783042789" lon="10.09549543261528">
        <ele>274.11000000000001</ele>
        <time>2014-05-11T08:00:16Z</time>
      </trkpt>
      <trkpt lat="45.681829685345292" lon="10.09553742595017">
        <ele>274.58999999999997</ele>
        <time>2014-05-11T08:00:19Z</time>
      </trkpt>
      <trkpt lat="45.68185256794095" lon="10.095620071515441">
        <ele>275.56</ele>
        <time>2014-05-11T08:00:25Z</time>
      </trkpt>
      <trkpt lat="45.681858519092202" lon="10.095637505874038">
        <ele>275.56</ele>
        <time>2014-05-11T08:00:26Z</time>
      </trkpt>
      <trkpt lat="45.681866314262152" lon="10.09576415643096">
        <ele>276.51999999999998</ele>
        <time>2014-05-11T08:00:36Z</time>
      </trkpt>
      <trkpt lat="45.681869499385357" lon="10.095789050683379">
        <ele>276.51999999999998</ele>
        <time>2014-05-11T08:00:38Z</time>
      </trkpt>
      <trkpt lat="45.681868074461818" lon="10.095813609659672">
        <ele>277</ele>
        <time>2014-05-11T08:00:39Z</time>
      </trkpt>
      <trkpt lat="45.681884922087193" lon="10.095889717340469">
        <ele>278.44</ele>
        <time>2014-05-11T08:00:46Z</time>
      </trkpt>
      <trkpt lat="45.681926161050797" lon="10.096013098955154">
        <ele>278.92000000000002</ele>
        <time>2014-05-11T08:00:58Z</time>
      </trkpt>
      <trkpt lat="45.681931357830763" lon="10.09605685248971">
        <ele>279.39999999999998</ele>
        <time>2014-05-11T08:01:02Z</time>
      </trkpt>
      <trkpt lat="45.681935213506222" lon="10.096072861924767">
        <ele>279.39999999999998</ele>
        <time>2014-05-11T08:01:03Z</time>
      </trkpt>
      <trkpt lat="45.681969746947289" lon="10.096215270459652">
        <ele>280.83999999999997</ele>
        <time>2014-05-11T08:01:14Z</time>
      </trkpt>
      <trkpt lat="45.681975111365318" lon="10.096246032044291">
        <ele>280.83999999999997</ele>
        <time>2014-05-11T08:01:26Z</time>
      </trkpt>
      <trkpt lat="45.681977877393365" lon="10.096261203289032">
        <ele>280.83999999999997</ele>
        <time>2014-05-11T08:01:27Z</time>
      </trkpt>
      <trkpt lat="45.682003106921911" lon="10.096331108361483">
        <ele>281.80000000000001</ele>
        <time>2014-05-11T08:01:32Z</time>
      </trkpt>
      <trkpt lat="45.682011656463146" lon="10.096365725621581">
        <ele>281.80000000000001</ele>
        <time>2014-05-11T08:01:35Z</time>
      </trkpt>
      <trkpt lat="45.682020038366318" lon="10.096506709232926">
        <ele>282.76999999999998</ele>
        <time>2014-05-11T08:01:45Z</time>
      </trkpt>
      <trkpt lat="45.682065552100539" lon="10.09665641002357">
        <ele>284.20999999999998</ele>
        <time>2014-05-11T08:01:57Z</time>
      </trkpt>
      <trkpt lat="45.682088015601039" lon="10.096705947071314">
        <ele>284.69</ele>
        <time>2014-05-11T08:02:02Z</time>
      </trkpt>
      <trkpt lat="45.682097487151623" lon="10.096726650372148">
        <ele>284.69</ele>
        <time>2014-05-11T08:02:03Z</time>
      </trkpt>
      <trkpt lat="45.682106455788016" lon="10.096744922921062">
        <ele>284.69</ele>
        <time>2014-05-11T08:02:04Z</time>
      </trkpt>
      <trkpt lat="45.682115340605378" lon="10.096784736961126">
        <ele>285.17000000000002</ele>
        <time>2014-05-11T08:02:14Z</time>
      </trkpt>
      <trkpt lat="45.682144677266479" lon="10.096787922084332">
        <ele>285.17000000000002</ele>
        <time>2014-05-11T08:02:24Z</time>
      </trkpt>
      <trkpt lat="45.682132439687848" lon="10.096781048923731">
        <ele>285.17000000000002</ele>
        <time>2014-05-11T08:02:34Z</time>
      </trkpt>
      <trkpt lat="45.682105030864477" lon="10.096871154382825">
        <ele>286.13</ele>
        <time>2014-05-11T08:02:41Z</time>
      </trkpt>
      <trkpt lat="45.682106120511889" lon="10.096887331455946">
        <ele>286.61000000000001</ele>
        <time>2014-05-11T08:02:42Z</time>
      </trkpt>
      <trkpt lat="45.682150209322572" lon="10.097033930942416">
        <ele>287.56999999999999</ele>
        <time>2014-05-11T08:02:53Z</time>
      </trkpt>
      <trkpt lat="45.68215498700738" lon="10.097053544595838">
        <ele>288.05000000000001</ele>
        <time>2014-05-11T08:02:54Z</time>
      </trkpt>
      <trkpt lat="45.682191867381334" lon="10.097252195701003">
        <ele>289.49000000000001</ele>
        <time>2014-05-11T08:03:06Z</time>
      </trkpt>
      <trkpt lat="45.682197231799364" lon="10.097422180697322">
        <ele>289.97000000000003</ele>
        <time>2014-05-11T08:03:17Z</time>
      </trkpt>
      <trkpt lat="45.682217599824071" lon="10.097644384950399">
        <ele>291.42000000000002</ele>
        <time>2014-05-11T08:03:32Z</time>
      </trkpt>
      <trkpt lat="45.682269399985671" lon="10.097990389913321">
        <ele>293.81999999999999</ele>
        <time>2014-05-11T08:03:55Z</time>
      </trkpt>
      <trkpt lat="45.68228985182941" lon="10.098066665232182">
        <ele>294.30000000000001</ele>
        <time>2014-05-11T08:04:07Z</time>
      </trkpt>
      <trkpt lat="45.682341149076819" lon="10.098075466230512">
        <ele>294.30000000000001</ele>
        <time>2014-05-11T08:04:27Z</time>
      </trkpt>
      <trkpt lat="45.682350117713213" lon="10.098086446523666">
        <ele>294.30000000000001</ele>
        <time>2014-05-11T08:04:28Z</time>
      </trkpt>
      <trkpt lat="45.68239638581872" lon="10.098114442080259">
        <ele>294.77999999999997</ele>
        <time>2014-05-11T08:04:41Z</time>
      </trkpt>
      <trkpt lat="45.68236562423408" lon="10.098159117624164">
        <ele>295.25999999999999</ele>
        <time>2014-05-11T08:04:59Z</time>
      </trkpt>
      <trkpt lat="45.68239588290453" lon="10.098353996872902">
        <ele>295.74000000000001</ele>
        <time>2014-05-11T08:05:17Z</time>
      </trkpt>
      <trkpt lat="45.682427063584328" lon="10.098344022408128">
        <ele>296.22000000000003</ele>
        <time>2014-05-11T08:05:34Z</time>
      </trkpt>
      <trkpt lat="45.682462016120553" lon="10.098329437896609">
        <ele>296.22000000000003</ele>
        <time>2014-05-11T08:05:48Z</time>
      </trkpt>
      <trkpt lat="45.682460926473141" lon="10.098346872255206">
        <ele>296.22000000000003</ele>
        <time>2014-05-11T08:06:03Z</time>
      </trkpt>
      <trkpt lat="45.682453634217381" lon="10.09832407347858">
        <ele>296.22000000000003</ele>
        <time>2014-05-11T08:06:16Z</time>
      </trkpt>
      <trkpt lat="45.682417172938585" lon="10.098333125934005">
        <ele>296.22000000000003</ele>
        <time>2014-05-11T08:06:36Z</time>
      </trkpt>
      <trkpt lat="45.682429159060121" lon="10.098329018801451">
        <ele>296.69999999999999</ele>
        <time>2014-05-11T08:06:49Z</time>
      </trkpt>
      <trkpt lat="45.682440642267466" lon="10.09834268130362">
        <ele>296.69999999999999</ele>
        <time>2014-05-11T08:07:04Z</time>
      </trkpt>
      <trkpt lat="45.682443995028734" lon="10.098354080691934">
        <ele>296.69999999999999</ele>
        <time>2014-05-11T08:07:21Z</time>
      </trkpt>
      <trkpt lat="45.682446174323559" lon="10.098356595262885">
        <ele>296.69999999999999</ele>
        <time>2014-05-11T08:07:32Z</time>
      </trkpt>
      <trkpt lat="45.682466542348266" lon="10.098351566120982">
        <ele>296.69999999999999</ele>
        <time>2014-05-11T08:07:48Z</time>
      </trkpt>
      <trkpt lat="45.682462099939585" lon="10.098371934145689">
        <ele>296.69999999999999</ele>
        <time>2014-05-11T08:08:05Z</time>
      </trkpt>
      <trkpt lat="45.682440306991339" lon="10.098438821732998">
        <ele>296.69999999999999</ele>
        <time>2014-05-11T08:08:13Z</time>
      </trkpt>
      <trkpt lat="45.682445084676147" lon="10.098484419286251">
        <ele>297.18000000000001</ele>
        <time>2014-05-11T08:08:18Z</time>
      </trkpt>
      <trkpt lat="45.682457154616714" lon="10.098559940233827">
        <ele>298.63</ele>
        <time>2014-05-11T08:08:23Z</time>
      </trkpt>
      <trkpt lat="45.682492610067129" lon="10.098805362358689">
        <ele>298.63</ele>
        <time>2014-05-11T08:08:37Z</time>
      </trkpt>
      <trkpt lat="45.682509122416377" lon="10.098942909389734">
        <ele>299.58999999999997</ele>
        <time>2014-05-11T08:08:49Z</time>
      </trkpt>
      <trkpt lat="45.682505518198013" lon="10.099105350673199">
        <ele>301.02999999999997</ele>
        <time>2014-05-11T08:09:01Z</time>
      </trkpt>
      <trkpt lat="45.68250342272222" lon="10.09927692823112">
        <ele>300.55000000000001</ele>
        <time>2014-05-11T08:09:13Z</time>
      </trkpt>
      <trkpt lat="45.682514067739248" lon="10.099372062832117">
        <ele>301.02999999999997</ele>
        <time>2014-05-11T08:09:20Z</time>
      </trkpt>
      <trkpt lat="45.682515911757946" lon="10.099392179399729">
        <ele>301.02999999999997</ele>
        <time>2014-05-11T08:09:21Z</time>
      </trkpt>
      <trkpt lat="45.682516917586327" lon="10.09941715747118">
        <ele>301.02999999999997</ele>
        <time>2014-05-11T08:09:22Z</time>
      </trkpt>
      <trkpt lat="45.682518593966961" lon="10.099442973732948">
        <ele>301.02999999999997</ele>
        <time>2014-05-11T08:09:23Z</time>
      </trkpt>
      <trkpt lat="45.682519767433405" lon="10.099469628185034">
        <ele>301.50999999999999</ele>
        <time>2014-05-11T08:09:24Z</time>
      </trkpt>
      <trkpt lat="45.682544829323888" lon="10.099560404196382">
        <ele>301.99000000000001</ele>
        <time>2014-05-11T08:09:35Z</time>
      </trkpt>
      <trkpt lat="45.682539213448763" lon="10.099584124982357">
        <ele>301.02999999999997</ele>
        <time>2014-05-11T08:09:45Z</time>
      </trkpt>
      <trkpt lat="45.68253762088716" lon="10.099601559340954">
        <ele>301.02999999999997</ele>
        <time>2014-05-11T08:09:46Z</time>
      </trkpt>
      <trkpt lat="45.68252831697464" lon="10.099759558215737">
        <ele>301.99000000000001</ele>
        <time>2014-05-11T08:09:59Z</time>
      </trkpt>
      <trkpt lat="45.682526975870132" lon="10.099934320896864">
        <ele>302.47000000000003</ele>
        <time>2014-05-11T08:10:11Z</time>
      </trkpt>
      <trkpt lat="45.68254005163908" lon="10.09995904751122">
        <ele>302.47000000000003</ele>
        <time>2014-05-11T08:10:13Z</time>
      </trkpt>
      <trkpt lat="45.682546589523554" lon="10.099977990612388">
        <ele>302.47000000000003</ele>
        <time>2014-05-11T08:10:14Z</time>
      </trkpt>
      <trkpt lat="45.682553546503186" lon="10.099992575123906">
        <ele>302.47000000000003</ele>
        <time>2014-05-11T08:10:15Z</time>
      </trkpt>
      <trkpt lat="45.682659996673465" lon="10.100043704733253">
        <ele>303.43000000000001</ele>
        <time>2014-05-11T08:10:26Z</time>
      </trkpt>
      <trkpt lat="45.682674748823047" lon="10.100040351971984">
        <ele>303.43000000000001</ele>
        <time>2014-05-11T08:10:27Z</time>
      </trkpt>
      <trkpt lat="45.682693440467119" lon="10.100037502124906">
        <ele>303.43000000000001</ele>
        <time>2014-05-11T08:10:28Z</time>
      </trkpt>
      <trkpt lat="45.682712970301509" lon="10.10003674775362">
        <ele>303.43000000000001</ele>
        <time>2014-05-11T08:10:29Z</time>
      </trkpt>
      <trkpt lat="45.682729315012693" lon="10.100034736096859">
        <ele>304.38999999999999</ele>
        <time>2014-05-11T08:10:30Z</time>
      </trkpt>
      <trkpt lat="45.682861329987645" lon="10.100003639236093">
        <ele>305.36000000000001</ele>
        <time>2014-05-11T08:10:42Z</time>
      </trkpt>
      <trkpt lat="45.682996362447739" lon="10.100054433569312">
        <ele>305.36000000000001</ele>
        <time>2014-05-11T08:10:54Z</time>
      </trkpt>
      <trkpt lat="45.683031817898154" lon="10.100082093849778">
        <ele>305.36000000000001</ele>
        <time>2014-05-11T08:10:58Z</time>
      </trkpt>
      <trkpt lat="45.683117313310504" lon="10.100143952295184">
        <ele>305.36000000000001</ele>
        <time>2014-05-11T08:11:07Z</time>
      </trkpt>
      <trkpt lat="45.683127120137215" lon="10.100158033892512">
        <ele>305.36000000000001</ele>
        <time>2014-05-11T08:11:08Z</time>
      </trkpt>
      <trkpt lat="45.683140363544226" lon="10.10017454624176">
        <ele>305.36000000000001</ele>
        <time>2014-05-11T08:11:09Z</time>
      </trkpt>
      <trkpt lat="45.683150589466095" lon="10.100191980600357">
        <ele>305.36000000000001</ele>
        <time>2014-05-11T08:11:10Z</time>
      </trkpt>
      <trkpt lat="45.683171208947897" lon="10.10022584348917">
        <ele>305.36000000000001</ele>
        <time>2014-05-11T08:11:14Z</time>
      </trkpt>
      <trkpt lat="45.683176405727863" lon="10.100241517648101">
        <ele>305.36000000000001</ele>
        <time>2014-05-11T08:11:15Z</time>
      </trkpt>
      <trkpt lat="45.683186128735542" lon="10.100259035825729">
        <ele>305.36000000000001</ele>
        <time>2014-05-11T08:11:16Z</time>
      </trkpt>
      <trkpt lat="45.683198198676109" lon="10.100271189585328">
        <ele>305.36000000000001</ele>
        <time>2014-05-11T08:11:17Z</time>
      </trkpt>
      <trkpt lat="45.683235749602318" lon="10.100298849865794">
        <ele>305.36000000000001</ele>
        <time>2014-05-11T08:11:22Z</time>
      </trkpt>
      <trkpt lat="45.683248154819012" lon="10.100321229547262">
        <ele>305.36000000000001</ele>
        <time>2014-05-11T08:11:23Z</time>
      </trkpt>
      <trkpt lat="45.683259135112166" lon="10.100347213447094">
        <ele>305.36000000000001</ele>
        <time>2014-05-11T08:11:24Z</time>
      </trkpt>
      <trkpt lat="45.683267768472433" lon="10.100373784080148">
        <ele>303.91000000000003</ele>
        <time>2014-05-11T08:11:25Z</time>
      </trkpt>
      <trkpt lat="45.68327690474689" lon="10.100398678332567">
        <ele>303.91000000000003</ele>
        <time>2014-05-11T08:11:26Z</time>
      </trkpt>
      <trkpt lat="45.683285454288125" lon="10.100419130176306">
        <ele>303.91000000000003</ele>
        <time>2014-05-11T08:11:27Z</time>
      </trkpt>
      <trkpt lat="45.683302637189627" lon="10.1004608720541">
        <ele>303.43000000000001</ele>
        <time>2014-05-11T08:11:32Z</time>
      </trkpt>
      <trkpt lat="45.683310264721513" lon="10.10047160089016">
        <ele>303.43000000000001</ele>
        <time>2014-05-11T08:11:33Z</time>
      </trkpt>
      <trkpt lat="45.683319233357906" lon="10.10048383846879">
        <ele>303.43000000000001</ele>
        <time>2014-05-11T08:11:34Z</time>
      </trkpt>
      <trkpt lat="45.683327615261078" lon="10.100502111017704">
        <ele>303.43000000000001</ele>
        <time>2014-05-11T08:11:35Z</time>
      </trkpt>
      <trkpt lat="45.683336248621345" lon="10.100523484870791">
        <ele>303.43000000000001</ele>
        <time>2014-05-11T08:11:36Z</time>
      </trkpt>
      <trkpt lat="45.683396765962243" lon="10.1006680727005">
        <ele>303.43000000000001</ele>
        <time>2014-05-11T08:11:44Z</time>
      </trkpt>
      <trkpt lat="45.683508580550551" lon="10.100873429328203">
        <ele>301.99000000000001</ele>
        <time>2014-05-11T08:11:58Z</time>
      </trkpt>
      <trkpt lat="45.683596590533853" lon="10.101077696308494">
        <ele>301.50999999999999</ele>
        <time>2014-05-11T08:12:11Z</time>
      </trkpt>
      <trkpt lat="45.683704717084765" lon="10.10127148590982">
        <ele>301.02999999999997</ele>
        <time>2014-05-11T08:12:24Z</time>
      </trkpt>
      <trkpt lat="45.683720810338855" lon="10.10130031965673">
        <ele>301.02999999999997</ele>
        <time>2014-05-11T08:12:26Z</time>
      </trkpt>
      <trkpt lat="45.683730449527502" lon="10.101309204474092">
        <ele>301.02999999999997</ele>
        <time>2014-05-11T08:12:27Z</time>
      </trkpt>
      <trkpt lat="45.683754086494446" lon="10.101346839219332">
        <ele>301.02999999999997</ele>
        <time>2014-05-11T08:12:31Z</time>
      </trkpt>
      <trkpt lat="45.683802366256714" lon="10.101413056254387">
        <ele>301.02999999999997</ele>
        <time>2014-05-11T08:12:37Z</time>
      </trkpt>
      <trkpt lat="45.683840001001954" lon="10.101480698212981">
        <ele>300.55000000000001</ele>
        <time>2014-05-11T08:12:43Z</time>
      </trkpt>
      <trkpt lat="45.683847460895777" lon="10.101499473676085">
        <ele>300.55000000000001</ele>
        <time>2014-05-11T08:12:44Z</time>
      </trkpt>
      <trkpt lat="45.683855842798948" lon="10.101515064015985">
        <ele>300.55000000000001</ele>
        <time>2014-05-11T08:12:45Z</time>
      </trkpt>
      <trkpt lat="45.683864308521152" lon="10.101529564708471">
        <ele>300.55000000000001</ele>
        <time>2014-05-11T08:12:46Z</time>
      </trkpt>
      <trkpt lat="45.683872606605291" lon="10.101541131734848">
        <ele>300.55000000000001</ele>
        <time>2014-05-11T08:12:47Z</time>
      </trkpt>
      <trkpt lat="45.683902278542519" lon="10.101574491709471">
        <ele>301.99000000000001</ele>
        <time>2014-05-11T08:12:50Z</time>
      </trkpt>
      <trkpt lat="45.683932537212968" lon="10.101602990180254">
        <ele>300.55000000000001</ele>
        <time>2014-05-11T08:12:53Z</time>
      </trkpt>
      <trkpt lat="45.684071592986584" lon="10.101819578558207">
        <ele>300.55000000000001</ele>
        <time>2014-05-11T08:13:09Z</time>
      </trkpt>
      <trkpt lat="45.68407678976655" lon="10.101849334314466">
        <ele>300.55000000000001</ele>
        <time>2014-05-11T08:13:12Z</time>
      </trkpt>
      <trkpt lat="45.684071006253362" lon="10.101874563843012">
        <ele>301.99000000000001</ele>
        <time>2014-05-11T08:13:14Z</time>
      </trkpt>
      <trkpt lat="45.684046866372228" lon="10.102062905207276">
        <ele>303.43000000000001</ele>
        <time>2014-05-11T08:13:27Z</time>
      </trkpt>
      <trkpt lat="45.684039574116468" lon="10.102082015946507">
        <ele>303.43000000000001</ele>
        <time>2014-05-11T08:13:28Z</time>
      </trkpt>
      <trkpt lat="45.683959862217307" lon="10.102240350097418">
        <ele>304.38999999999999</ele>
        <time>2014-05-11T08:13:40Z</time>
      </trkpt>
      <trkpt lat="45.683839749544859" lon="10.10242760181427">
        <ele>304.88</ele>
        <time>2014-05-11T08:13:53Z</time>
      </trkpt>
      <trkpt lat="45.683803539723158" lon="10.102535644546151">
        <ele>305.36000000000001</ele>
        <time>2014-05-11T08:14:01Z</time>
      </trkpt>
      <trkpt lat="45.683666998520494" lon="10.102746365591884">
        <ele>305.36000000000001</ele>
        <time>2014-05-11T08:14:16Z</time>
      </trkpt>
      <trkpt lat="45.683581922203302" lon="10.102945687249303">
        <ele>305.36000000000001</ele>
        <time>2014-05-11T08:14:31Z</time>
      </trkpt>
      <trkpt lat="45.683439178392291" lon="10.103149954229593">
        <ele>305.36000000000001</ele>
        <time>2014-05-11T08:14:46Z</time>
      </trkpt>
      <trkpt lat="45.683343205600977" lon="10.103310802951455">
        <ele>305.36000000000001</ele>
        <time>2014-05-11T08:14:57Z</time>
      </trkpt>
      <trkpt lat="45.683329710736871" lon="10.10331591591239">
        <ele>305.83999999999997</ele>
        <time>2014-05-11T08:14:58Z</time>
      </trkpt>
      <trkpt lat="45.683313282206655" lon="10.103326644748449">
        <ele>305.83999999999997</ele>
        <time>2014-05-11T08:14:59Z</time>
      </trkpt>
      <trkpt lat="45.68329987116158" lon="10.103337708860636">
        <ele>305.83999999999997</ele>
        <time>2014-05-11T08:15:00Z</time>
      </trkpt>
      <trkpt lat="45.683264248073101" lon="10.103458659723401">
        <ele>306.80000000000001</ele>
        <time>2014-05-11T08:15:09Z</time>
      </trkpt>
      <trkpt lat="45.683239856734872" lon="10.103585897013545">
        <ele>307.75999999999999</ele>
        <time>2014-05-11T08:15:18Z</time>
      </trkpt>
      <trkpt lat="45.683239856734872" lon="10.103692933917046">
        <ele>309.19999999999999</ele>
        <time>2014-05-11T08:15:24Z</time>
      </trkpt>
      <trkpt lat="45.683243880048394" lon="10.103705674409866">
        <ele>309.19999999999999</ele>
        <time>2014-05-11T08:15:25Z</time>
      </trkpt>
      <trkpt lat="45.683273300528526" lon="10.103815561160445">
        <ele>310.16000000000003</ele>
        <time>2014-05-11T08:15:32Z</time>
      </trkpt>
      <trkpt lat="45.683336416259408" lon="10.103914802893996">
        <ele>311.12</ele>
        <time>2014-05-11T08:15:41Z</time>
      </trkpt>
      <trkpt lat="45.683375978842378" lon="10.103973057121038">
        <ele>312.08999999999997</ele>
        <time>2014-05-11T08:15:46Z</time>
      </trkpt>
      <trkpt lat="45.683383941650391" lon="10.103991329669952">
        <ele>312.08999999999997</ele>
        <time>2014-05-11T08:15:47Z</time>
      </trkpt>
      <trkpt lat="45.683395676314831" lon="10.104011697694659">
        <ele>312.08999999999997</ele>
        <time>2014-05-11T08:15:48Z</time>
      </trkpt>
      <trkpt lat="45.683421911671758" lon="10.104045225307345">
        <ele>312.56999999999999</ele>
        <time>2014-05-11T08:15:52Z</time>
      </trkpt>
      <trkpt lat="45.683430628851056" lon="10.104065928608179">
        <ele>312.56999999999999</ele>
        <time>2014-05-11T08:15:53Z</time>
      </trkpt>
      <trkpt lat="45.683502294123173" lon="10.104155782610178">
        <ele>313.52999999999997</ele>
        <time>2014-05-11T08:16:02Z</time>
      </trkpt>
      <trkpt lat="45.68357789888978" lon="10.104231303557754">
        <ele>314.49000000000001</ele>
        <time>2014-05-11T08:16:11Z</time>
      </trkpt>
      <trkpt lat="45.683660209178925" lon="10.104285785928369">
        <ele>315.44999999999999</ele>
        <time>2014-05-11T08:16:20Z</time>
      </trkpt>
      <trkpt lat="45.683680241927505" lon="10.104299113154411">
        <ele>315.93000000000001</ele>
        <time>2014-05-11T08:16:22Z</time>
      </trkpt>
      <trkpt lat="45.683693820610642" lon="10.104312943294644">
        <ele>315.93000000000001</ele>
        <time>2014-05-11T08:16:23Z</time>
      </trkpt>
      <trkpt lat="45.68377872928977" lon="10.104337418451905">
        <ele>317.37</ele>
        <time>2014-05-11T08:16:32Z</time>
      </trkpt>
      <trkpt lat="45.683813598006964" lon="10.104353930801153">
        <ele>317.37</ele>
        <time>2014-05-11T08:16:34Z</time>
      </trkpt>
      <trkpt lat="45.683849640190601" lon="10.10435133241117">
        <ele>318.32999999999998</ele>
        <time>2014-05-11T08:16:38Z</time>
      </trkpt>
      <trkpt lat="45.68386766128242" lon="10.104356277734041">
        <ele>318.32999999999998</ele>
        <time>2014-05-11T08:16:39Z</time>
      </trkpt>
      <trkpt lat="45.683885598555207" lon="10.104361725971103">
        <ele>318.32999999999998</ele>
        <time>2014-05-11T08:16:40Z</time>
      </trkpt>
      <trkpt lat="45.683928932994604" lon="10.104348817840219">
        <ele>318.81</ele>
        <time>2014-05-11T08:16:45Z</time>
      </trkpt>
      <trkpt lat="45.683945696800947" lon="10.104347812011838">
        <ele>319.30000000000001</ele>
        <time>2014-05-11T08:16:46Z</time>
      </trkpt>
      <trkpt lat="45.68403328768909" lon="10.104311183094978">
        <ele>320.25999999999999</ele>
        <time>2014-05-11T08:16:54Z</time>
      </trkpt>
      <trkpt lat="45.684071592986584" lon="10.104288384318352">
        <ele>320.74000000000001</ele>
        <time>2014-05-11T08:16:58Z</time>
      </trkpt>
      <trkpt lat="45.684155495837331" lon="10.104221748188138">
        <ele>321.69999999999999</ele>
        <time>2014-05-11T08:17:08Z</time>
      </trkpt>
      <trkpt lat="45.684201344847679" lon="10.104182939976454">
        <ele>322.18000000000001</ele>
        <time>2014-05-11T08:17:13Z</time>
      </trkpt>
      <trkpt lat="45.68425951525569" lon="10.104068946093321">
        <ele>322.66000000000003</ele>
        <time>2014-05-11T08:17:23Z</time>
      </trkpt>
      <trkpt lat="45.684409132227302" lon="10.103956880047917">
        <ele>322.18000000000001</ele>
        <time>2014-05-11T08:17:36Z</time>
      </trkpt>
      <trkpt lat="45.684414161369205" lon="10.10394380427897">
        <ele>322.18000000000001</ele>
        <time>2014-05-11T08:17:37Z</time>
      </trkpt>
      <trkpt lat="45.684435283765197" lon="10.103938104584813">
        <ele>322.18000000000001</ele>
        <time>2014-05-11T08:17:39Z</time>
      </trkpt>
      <trkpt lat="45.684577273204923" lon="10.103962328284979">
        <ele>322.18000000000001</ele>
        <time>2014-05-11T08:17:53Z</time>
      </trkpt>
      <trkpt lat="45.684587918221951" lon="10.103976661339402">
        <ele>322.18000000000001</ele>
        <time>2014-05-11T08:17:54Z</time>
      </trkpt>
      <trkpt lat="45.684689758345485" lon="10.104141114279628">
        <ele>320.74000000000001</ele>
        <time>2014-05-11T08:18:06Z</time>
      </trkpt>
      <trkpt lat="45.684699565172195" lon="10.104156536981463">
        <ele>320.74000000000001</ele>
        <time>2014-05-11T08:18:07Z</time>
      </trkpt>
      <trkpt lat="45.68470953963697" lon="10.104160644114017">
        <ele>320.74000000000001</ele>
        <time>2014-05-11T08:18:08Z</time>
      </trkpt>
      <trkpt lat="45.684735523536801" lon="10.104226106777787">
        <ele>320.25999999999999</ele>
        <time>2014-05-11T08:18:14Z</time>
      </trkpt>
      <trkpt lat="45.684779277071357" lon="10.104457782581449">
        <ele>320.25999999999999</ele>
        <time>2014-05-11T08:18:26Z</time>
      </trkpt>
      <trkpt lat="45.684804087504745" lon="10.104512432590127">
        <ele>320.25999999999999</ele>
        <time>2014-05-11T08:18:31Z</time>
      </trkpt>
      <trkpt lat="45.684806015342474" lon="10.104531543329358">
        <ele>320.25999999999999</ele>
        <time>2014-05-11T08:18:32Z</time>
      </trkpt>
      <trkpt lat="45.684838118031621" lon="10.104739414528012">
        <ele>320.25999999999999</ele>
        <time>2014-05-11T08:18:46Z</time>
      </trkpt>
      <trkpt lat="45.684858653694391" lon="10.104813929647207">
        <ele>320.25999999999999</ele>
        <time>2014-05-11T08:18:51Z</time>
      </trkpt>
      <trkpt lat="45.684860497713089" lon="10.104834130033851">
        <ele>320.25999999999999</ele>
        <time>2014-05-11T08:18:52Z</time>
      </trkpt>
      <trkpt lat="45.684862928465009" lon="10.104855420067906">
        <ele>320.25999999999999</ele>
        <time>2014-05-11T08:18:53Z</time>
      </trkpt>
      <trkpt lat="45.684863766655326" lon="10.104877548292279">
        <ele>320.25999999999999</ele>
        <time>2014-05-11T08:18:54Z</time>
      </trkpt>
      <trkpt lat="45.684862928465009" lon="10.104899844154716">
        <ele>320.25999999999999</ele>
        <time>2014-05-11T08:18:55Z</time>
      </trkpt>
      <trkpt lat="45.684865191578865" lon="10.10491912253201">
        <ele>320.25999999999999</ele>
        <time>2014-05-11T08:18:56Z</time>
      </trkpt>
      <trkpt lat="45.684913722798228" lon="10.105063710361719">
        <ele>320.25999999999999</ele>
        <time>2014-05-11T08:19:07Z</time>
      </trkpt>
      <trkpt lat="45.684930821880698" lon="10.105049461126328">
        <ele>320.25999999999999</ele>
        <time>2014-05-11T08:19:18Z</time>
      </trkpt>
      <trkpt lat="45.684958314523101" lon="10.105067482218146">
        <ele>320.25999999999999</ele>
        <time>2014-05-11T08:19:41Z</time>
      </trkpt>
      <trkpt lat="45.685073398053646" lon="10.105003360658884">
        <ele>318.81</ele>
        <time>2014-05-11T08:19:54Z</time>
      </trkpt>
      <trkpt lat="45.685088820755482" lon="10.104998163878918">
        <ele>318.81</ele>
        <time>2014-05-11T08:19:55Z</time>
      </trkpt>
      <trkpt lat="45.685306582599878" lon="10.104899760335684">
        <ele>317.37</ele>
        <time>2014-05-11T08:20:09Z</time>
      </trkpt>
      <trkpt lat="45.685388976708055" lon="10.104777719825506">
        <ele>318.81</ele>
        <time>2014-05-11T08:20:20Z</time>
      </trkpt>
      <trkpt lat="45.685376487672329" lon="10.104868998751044">
        <ele>319.77999999999997</ele>
        <time>2014-05-11T08:20:26Z</time>
      </trkpt>
      <trkpt lat="45.685369111597538" lon="10.10503051802516">
        <ele>322.66000000000003</ele>
        <time>2014-05-11T08:20:40Z</time>
      </trkpt>
      <trkpt lat="45.685399537906051" lon="10.105026494711637">
        <ele>323.13999999999999</ele>
        <time>2014-05-11T08:20:46Z</time>
      </trkpt>
      <trkpt lat="45.68546156398952" lon="10.105026410892606">
        <ele>323.62</ele>
        <time>2014-05-11T08:21:04Z</time>
      </trkpt>
      <trkpt lat="45.685487631708384" lon="10.105035128071904">
        <ele>324.10000000000002</ele>
        <time>2014-05-11T08:21:27Z</time>
      </trkpt>
      <trkpt lat="45.685466006398201" lon="10.105172758921981">
        <ele>323.62</ele>
        <time>2014-05-11T08:21:50Z</time>
      </trkpt>
      <trkpt lat="45.685422420501709" lon="10.105256997048855">
        <ele>323.62</ele>
        <time>2014-05-11T08:22:12Z</time>
      </trkpt>
      <trkpt lat="45.685430550947785" lon="10.105214165523648">
        <ele>323.62</ele>
        <time>2014-05-11T08:22:37Z</time>
      </trkpt>
      <trkpt lat="45.685387384146452" lon="10.105135291814804">
        <ele>323.13999999999999</ele>
        <time>2014-05-11T08:22:59Z</time>
      </trkpt>
      <trkpt lat="45.685411775484681" lon="10.105061866343021">
        <ele>322.18000000000001</ele>
        <time>2014-05-11T08:23:20Z</time>
      </trkpt>
      <trkpt lat="45.685424348339438" lon="10.105059184134007">
        <ele>322.18000000000001</ele>
        <time>2014-05-11T08:23:38Z</time>
      </trkpt>
      <trkpt lat="45.685395849868655" lon="10.105094388127327">
        <ele>323.13999999999999</ele>
        <time>2014-05-11T08:23:58Z</time>
      </trkpt>
      <trkpt lat="45.685372715815902" lon="10.105133112519979">
        <ele>323.13999999999999</ele>
        <time>2014-05-11T08:24:06Z</time>
      </trkpt>
      <trkpt lat="45.685366597026587" lon="10.105173597112298">
        <ele>323.13999999999999</ele>
        <time>2014-05-11T08:24:11Z</time>
      </trkpt>
      <trkpt lat="45.685405908152461" lon="10.105125401169062">
        <ele>322.18000000000001</ele>
        <time>2014-05-11T08:24:30Z</time>
      </trkpt>
      <trkpt lat="45.685414792969823" lon="10.105063291266561">
        <ele>321.69999999999999</ele>
        <time>2014-05-11T08:24:55Z</time>
      </trkpt>
      <trkpt lat="45.685363914817572" lon="10.105059938505292">
        <ele>321.22000000000003</ele>
        <time>2014-05-11T08:25:12Z</time>
      </trkpt>
      <trkpt lat="45.685342876240611" lon="10.105047449469566">
        <ele>321.22000000000003</ele>
        <time>2014-05-11T08:25:34Z</time>
      </trkpt>
      <trkpt lat="45.685352934524417" lon="10.105054322630167">
        <ele>321.22000000000003</ele>
        <time>2014-05-11T08:25:54Z</time>
      </trkpt>
      <trkpt lat="45.68534673191607" lon="10.10504174977541">
        <ele>321.22000000000003</ele>
        <time>2014-05-11T08:26:09Z</time>
      </trkpt>
      <trkpt lat="45.685353437438607" lon="10.105011155828834">
        <ele>321.69999999999999</ele>
        <time>2014-05-11T08:26:41Z</time>
      </trkpt>
      <trkpt lat="45.685363914817572" lon="10.105038397014141">
        <ele>321.69999999999999</ele>
        <time>2014-05-11T08:27:06Z</time>
      </trkpt>
      <trkpt lat="45.685368776321411" lon="10.105035630986094">
        <ele>321.69999999999999</ele>
        <time>2014-05-11T08:27:31Z</time>
      </trkpt>
      <trkpt lat="45.685378834605217" lon="10.105053819715977">
        <ele>321.69999999999999</ele>
        <time>2014-05-11T08:28:04Z</time>
      </trkpt>
      <trkpt lat="45.685329381376505" lon="10.105025991797447">
        <ele>321.69999999999999</ele>
        <time>2014-05-11T08:28:30Z</time>
      </trkpt>
      <trkpt lat="45.685341199859977" lon="10.105043342337012">
        <ele>321.69999999999999</ele>
        <time>2014-05-11T08:28:51Z</time>
      </trkpt>
      <trkpt lat="45.685351509600878" lon="10.105060189962387">
        <ele>321.69999999999999</ele>
        <time>2014-05-11T08:29:16Z</time>
      </trkpt>
      <trkpt lat="45.685337176546454" lon="10.104943094775081">
        <ele>321.22000000000003</ele>
        <time>2014-05-11T08:29:35Z</time>
      </trkpt>
      <trkpt lat="45.685385707765818" lon="10.104790711775422">
        <ele>318.81</ele>
        <time>2014-05-11T08:29:54Z</time>
      </trkpt>
      <trkpt lat="45.685339272022247" lon="10.104793226346374">
        <ele>318.81</ele>
        <time>2014-05-11T08:30:14Z</time>
      </trkpt>
      <trkpt lat="45.685307253152132" lon="10.104836896061897">
        <ele>317.85000000000002</ele>
        <time>2014-05-11T08:30:20Z</time>
      </trkpt>
      <trkpt lat="45.685170292854309" lon="10.10501048527658">
        <ele>317.37</ele>
        <time>2014-05-11T08:30:39Z</time>
      </trkpt>
      <trkpt lat="45.685091586783528" lon="10.105020040646195">
        <ele>318.32999999999998</ele>
        <time>2014-05-11T08:30:45Z</time>
      </trkpt>
      <trkpt lat="45.685064848512411" lon="10.105034206062555">
        <ele>318.32999999999998</ele>
        <time>2014-05-11T08:30:48Z</time>
      </trkpt>
      <trkpt lat="45.684973318129778" lon="10.10508474893868">
        <ele>319.77999999999997</ele>
        <time>2014-05-11T08:30:57Z</time>
      </trkpt>
      <trkpt lat="45.684952447190881" lon="10.105150882154703">
        <ele>321.22000000000003</ele>
        <time>2014-05-11T08:31:05Z</time>
      </trkpt>
      <trkpt lat="45.684981364756823" lon="10.105415163561702">
        <ele>323.13999999999999</ele>
        <time>2014-05-11T08:31:25Z</time>
      </trkpt>
      <trkpt lat="45.684968121349812" lon="10.105453636497259">
        <ele>323.62</ele>
        <time>2014-05-11T08:31:37Z</time>
      </trkpt>
      <trkpt lat="45.684923445805907" lon="10.105644408613443">
        <ele>325.06</ele>
        <time>2014-05-11T08:31:50Z</time>
      </trkpt>
      <trkpt lat="45.684801237657666" lon="10.105843814089894">
        <ele>325.54000000000002</ele>
        <time>2014-05-11T08:32:04Z</time>
      </trkpt>
      <trkpt lat="45.684788497164845" lon="10.105844903737307">
        <ele>325.54000000000002</ele>
        <time>2014-05-11T08:32:06Z</time>
      </trkpt>
      <trkpt lat="45.684759160503745" lon="10.105868959799409">
        <ele>324.10000000000002</ele>
        <time>2014-05-11T08:32:09Z</time>
      </trkpt>
      <trkpt lat="45.684614824131131" lon="10.106071047484875">
        <ele>321.22000000000003</ele>
        <time>2014-05-11T08:32:25Z</time>
      </trkpt>
      <trkpt lat="45.684569142758846" lon="10.106169786304235">
        <ele>319.77999999999997</ele>
        <time>2014-05-11T08:32:30Z</time>
      </trkpt>
      <trkpt lat="45.684575261548162" lon="10.106261819601059">
        <ele>319.77999999999997</ele>
        <time>2014-05-11T08:32:37Z</time>
      </trkpt>
      <trkpt lat="45.684579955413938" lon="10.106281852349639">
        <ele>319.77999999999997</ele>
        <time>2014-05-11T08:32:38Z</time>
      </trkpt>
      <trkpt lat="45.684606777504086" lon="10.106368521228433">
        <ele>318.81</ele>
        <time>2014-05-11T08:32:42Z</time>
      </trkpt>
      <trkpt lat="45.684618260711432" lon="10.106384195387363">
        <ele>318.81</ele>
        <time>2014-05-11T08:32:43Z</time>
      </trkpt>
      <trkpt lat="45.684721861034632" lon="10.106516545638442">
        <ele>318.81</ele>
        <time>2014-05-11T08:32:54Z</time>
      </trkpt>
      <trkpt lat="45.684818169102073" lon="10.106624253094196">
        <ele>319.30000000000001</ele>
        <time>2014-05-11T08:33:05Z</time>
      </trkpt>
      <trkpt lat="45.684840464964509" lon="10.106652332469821">
        <ele>318.81</ele>
        <time>2014-05-11T08:33:09Z</time>
      </trkpt>
      <trkpt lat="45.684847589582205" lon="10.106674460694194">
        <ele>318.81</ele>
        <time>2014-05-11T08:33:10Z</time>
      </trkpt>
      <trkpt lat="45.684929648414254" lon="10.106891132891178">
        <ele>317.85000000000002</ele>
        <time>2014-05-11T08:33:23Z</time>
      </trkpt>
      <trkpt lat="45.68494750186801" lon="10.106917032971978">
        <ele>317.85000000000002</ele>
        <time>2014-05-11T08:33:27Z</time>
      </trkpt>
      <trkpt lat="45.684955380856991" lon="10.106928264722228">
        <ele>317.37</ele>
        <time>2014-05-11T08:33:28Z</time>
      </trkpt>
      <trkpt lat="45.684966444969177" lon="10.106939915567636">
        <ele>317.37</ele>
        <time>2014-05-11T08:33:29Z</time>
      </trkpt>
      <trkpt lat="45.684994272887707" lon="10.106960199773312">
        <ele>317.37</ele>
        <time>2014-05-11T08:33:31Z</time>
      </trkpt>
      <trkpt lat="45.685010030865669" lon="10.106965564191341">
        <ele>317.37</ele>
        <time>2014-05-11T08:33:32Z</time>
      </trkpt>
      <trkpt lat="45.685114720836282" lon="10.10700018145144">
        <ele>316.41000000000003</ele>
        <time>2014-05-11T08:33:41Z</time>
      </trkpt>
      <trkpt lat="45.685220751911402" lon="10.107025494799018">
        <ele>315.44999999999999</ele>
        <time>2014-05-11T08:33:51Z</time>
      </trkpt>
      <trkpt lat="45.685265930369496" lon="10.107078887522221">
        <ele>314.97000000000003</ele>
        <time>2014-05-11T08:33:57Z</time>
      </trkpt>
      <trkpt lat="45.685272132977843" lon="10.107097495347261">
        <ele>314.97000000000003</ele>
        <time>2014-05-11T08:33:58Z</time>
      </trkpt>
      <trkpt lat="45.685315215960145" lon="10.107145104557276">
        <ele>314.49000000000001</ele>
        <time>2014-05-11T08:34:13Z</time>
      </trkpt>
      <trkpt lat="45.685339020565152" lon="10.107172513380647">
        <ele>314.49000000000001</ele>
        <time>2014-05-11T08:34:36Z</time>
      </trkpt>
      <trkpt lat="45.68534086458385" lon="10.10719028301537">
        <ele>314.49000000000001</ele>
        <time>2014-05-11T08:34:37Z</time>
      </trkpt>
      <trkpt lat="45.685355700552464" lon="10.107410559430718">
        <ele>311.12</ele>
        <time>2014-05-11T08:34:50Z</time>
      </trkpt>
      <trkpt lat="45.6853037327528" lon="10.107807274907827">
        <ele>308.72000000000003</ele>
        <time>2014-05-11T08:35:08Z</time>
      </trkpt>
      <trkpt lat="45.685300212353468" lon="10.107998214662075">
        <ele>305.83999999999997</ele>
        <time>2014-05-11T08:35:21Z</time>
      </trkpt>
      <trkpt lat="45.68534966558218" lon="10.108141796663404">
        <ele>304.88</ele>
        <time>2014-05-11T08:35:29Z</time>
      </trkpt>
      <trkpt lat="45.68536626175046" lon="10.108154034242034">
        <ele>304.38999999999999</ele>
        <time>2014-05-11T08:35:30Z</time>
      </trkpt>
      <trkpt lat="45.685470029711723" lon="10.10816945694387">
        <ele>304.38999999999999</ele>
        <time>2014-05-11T08:35:42Z</time>
      </trkpt>
      <trkpt lat="45.685520907863975" lon="10.108168786391616">
        <ele>304.38999999999999</ele>
        <time>2014-05-11T08:35:50Z</time>
      </trkpt>
      <trkpt lat="45.685714613646269" lon="10.108110783621669">
        <ele>303.91000000000003</ele>
        <time>2014-05-11T08:36:03Z</time>
      </trkpt>
      <trkpt lat="45.685936650261283" lon="10.107930321246386">
        <ele>303.91000000000003</ele>
        <time>2014-05-11T08:36:21Z</time>
      </trkpt>
      <trkpt lat="45.686066234484315" lon="10.10781230404973">
        <ele>303.43000000000001</ele>
        <time>2014-05-11T08:36:32Z</time>
      </trkpt>
      <trkpt lat="45.686291037127376" lon="10.10771750472486">
        <ele>302.94999999999999</ele>
        <time>2014-05-11T08:36:45Z</time>
      </trkpt>
      <trkpt lat="45.686452304944396" lon="10.107614155858755">
        <ele>302.94999999999999</ele>
        <time>2014-05-11T08:37:02Z</time>
      </trkpt>
      <trkpt lat="45.686522964388132" lon="10.107549615204334">
        <ele>302.94999999999999</ele>
        <time>2014-05-11T08:37:19Z</time>
      </trkpt>
      <trkpt lat="45.686604855582118" lon="10.107522374019027">
        <ele>304.38999999999999</ele>
        <time>2014-05-11T08:37:34Z</time>
      </trkpt>
      <trkpt lat="45.686730919405818" lon="10.107383569702506">
        <ele>306.31999999999999</ele>
        <time>2014-05-11T08:37:47Z</time>
      </trkpt>
      <trkpt lat="45.6869010720402" lon="10.10722054168582">
        <ele>307.75999999999999</ele>
        <time>2014-05-11T08:38:06Z</time>
      </trkpt>
      <trkpt lat="45.687136938795447" lon="10.107354484498501">
        <ele>308.72000000000003</ele>
        <time>2014-05-11T08:38:27Z</time>
      </trkpt>
      <trkpt lat="45.687300134450197" lon="10.10758314281702">
        <ele>308.72000000000003</ele>
        <time>2014-05-11T08:38:43Z</time>
      </trkpt>
      <trkpt lat="45.687328465282917" lon="10.107650784775615">
        <ele>308.72000000000003</ele>
        <time>2014-05-11T08:39:00Z</time>
      </trkpt>
      <trkpt lat="45.68733399733901" lon="10.107664698734879">
        <ele>308.72000000000003</ele>
        <time>2014-05-11T08:39:01Z</time>
      </trkpt>
      <trkpt lat="45.687344893813133" lon="10.107681965455413">
        <ele>308.72000000000003</ele>
        <time>2014-05-11T08:39:02Z</time>
      </trkpt>
      <trkpt lat="45.687355874106288" lon="10.107698142528534">
        <ele>308.72000000000003</ele>
        <time>2014-05-11T08:39:03Z</time>
      </trkpt>
      <trkpt lat="45.687366602942348" lon="10.107712810859084">
        <ele>308.72000000000003</ele>
        <time>2014-05-11T08:39:04Z</time>
      </trkpt>
      <trkpt lat="45.687369033694267" lon="10.107736364006996">
        <ele>308.72000000000003</ele>
        <time>2014-05-11T08:39:05Z</time>
      </trkpt>
      <trkpt lat="45.687372637912631" lon="10.107752038165927">
        <ele>309.19999999999999</ele>
        <time>2014-05-11T08:39:06Z</time>
      </trkpt>
      <trkpt lat="45.687498198822141" lon="10.107934176921844">
        <ele>310.63999999999999</ele>
        <time>2014-05-11T08:39:21Z</time>
      </trkpt>
      <trkpt lat="45.687541952356696" lon="10.107892937958241">
        <ele>311.60000000000002</ele>
        <time>2014-05-11T08:39:32Z</time>
      </trkpt>
      <trkpt lat="45.687656784430146" lon="10.107840802520514">
        <ele>310.16000000000003</ele>
        <time>2014-05-11T08:39:43Z</time>
      </trkpt>
      <trkpt lat="45.687838587909937" lon="10.107736699283123">
        <ele>310.63999999999999</ele>
        <time>2014-05-11T08:39:57Z</time>
      </trkpt>
      <trkpt lat="45.68797362037003" lon="10.107725718989968">
        <ele>309.68000000000001</ele>
        <time>2014-05-11T08:40:09Z</time>
      </trkpt>
      <trkpt lat="45.688053416088223" lon="10.107717169448733">
        <ele>310.63999999999999</ele>
        <time>2014-05-11T08:40:17Z</time>
      </trkpt>
      <trkpt lat="45.688070934265852" lon="10.1077223662287">
        <ele>310.63999999999999</ele>
        <time>2014-05-11T08:40:18Z</time>
      </trkpt>
      <trkpt lat="45.688246535137296" lon="10.107752792537212">
        <ele>313.05000000000001</ele>
        <time>2014-05-11T08:40:33Z</time>
      </trkpt>
      <trkpt lat="45.688355499878526" lon="10.107782632112503">
        <ele>314.49000000000001</ele>
        <time>2014-05-11T08:40:52Z</time>
      </trkpt>
      <trkpt lat="45.688509056344628" lon="10.107937445864081">
        <ele>315.93000000000001</ele>
        <time>2014-05-11T08:41:08Z</time>
      </trkpt>
      <trkpt lat="45.688552055507898" lon="10.10796619579196">
        <ele>316.41000000000003</ele>
        <time>2014-05-11T08:41:12Z</time>
      </trkpt>
      <trkpt lat="45.68856630474329" lon="10.10797600261867">
        <ele>316.41000000000003</ele>
        <time>2014-05-11T08:41:13Z</time>
      </trkpt>
      <trkpt lat="45.688577285036445" lon="10.107981199398637">
        <ele>316.41000000000003</ele>
        <time>2014-05-11T08:41:14Z</time>
      </trkpt>
      <trkpt lat="45.688589187338948" lon="10.107986815273762">
        <ele>316.41000000000003</ele>
        <time>2014-05-11T08:41:15Z</time>
      </trkpt>
      <trkpt lat="45.68859999999404" lon="10.107995448634028">
        <ele>316.41000000000003</ele>
        <time>2014-05-11T08:41:16Z</time>
      </trkpt>
      <trkpt lat="45.688612489029765" lon="10.108010284602642">
        <ele>316.41000000000003</ele>
        <time>2014-05-11T08:41:17Z</time>
      </trkpt>
      <trkpt lat="45.688626151531935" lon="10.108026629313827">
        <ele>316.41000000000003</ele>
        <time>2014-05-11T08:41:18Z</time>
      </trkpt>
      <trkpt lat="45.688694296404719" lon="10.108084715902805">
        <ele>314.97000000000003</ele>
        <time>2014-05-11T08:41:26Z</time>
      </trkpt>
      <trkpt lat="45.688703767955303" lon="10.108090918511152">
        <ele>314.97000000000003</ele>
        <time>2014-05-11T08:41:27Z</time>
      </trkpt>
      <trkpt lat="45.688712652772665" lon="10.108097791671753">
        <ele>314.97000000000003</ele>
        <time>2014-05-11T08:41:28Z</time>
      </trkpt>
      <trkpt lat="45.688719861209393" lon="10.108109945431352">
        <ele>314.97000000000003</ele>
        <time>2014-05-11T08:41:29Z</time>
      </trkpt>
      <trkpt lat="45.688729332759976" lon="10.108158141374588">
        <ele>314.97000000000003</ele>
        <time>2014-05-11T08:41:34Z</time>
      </trkpt>
      <trkpt lat="45.688723130151629" lon="10.108171300962567">
        <ele>314.97000000000003</ele>
        <time>2014-05-11T08:41:35Z</time>
      </trkpt>
      <trkpt lat="45.688716508448124" lon="10.108190076425672">
        <ele>314.97000000000003</ele>
        <time>2014-05-11T08:41:36Z</time>
      </trkpt>
      <trkpt lat="45.688710641115904" lon="10.108214467763901">
        <ele>314.97000000000003</ele>
        <time>2014-05-11T08:41:37Z</time>
      </trkpt>
      <trkpt lat="45.68870653398335" lon="10.108236512169242">
        <ele>314.97000000000003</ele>
        <time>2014-05-11T08:41:38Z</time>
      </trkpt>
      <trkpt lat="45.688748862594366" lon="10.108334245160222">
        <ele>316.41000000000003</ele>
        <time>2014-05-11T08:41:50Z</time>
      </trkpt>
      <trkpt lat="45.688821533694863" lon="10.108455782756209">
        <ele>316.88999999999999</ele>
        <time>2014-05-11T08:42:01Z</time>
      </trkpt>
      <trkpt lat="45.688959080725908" lon="10.108608081936836">
        <ele>318.81</ele>
        <time>2014-05-11T08:42:13Z</time>
      </trkpt>
      <trkpt lat="45.689074248075485" lon="10.108709586784244">
        <ele>320.25999999999999</ele>
        <time>2014-05-11T08:42:28Z</time>
      </trkpt>
      <trkpt lat="45.689226966351271" lon="10.108825676143169">
        <ele>321.69999999999999</ele>
        <time>2014-05-11T08:42:44Z</time>
      </trkpt>
      <trkpt lat="45.689242221415043" lon="10.108841769397259">
        <ele>321.69999999999999</ele>
        <time>2014-05-11T08:42:46Z</time>
      </trkpt>
      <trkpt lat="45.689252112060785" lon="10.108860209584236">
        <ele>321.69999999999999</ele>
        <time>2014-05-11T08:42:47Z</time>
      </trkpt>
      <trkpt lat="45.689262421801686" lon="10.108876554295421">
        <ele>321.69999999999999</ele>
        <time>2014-05-11T08:42:48Z</time>
      </trkpt>
      <trkpt lat="45.689305085688829" lon="10.108931036666036">
        <ele>322.18000000000001</ele>
        <time>2014-05-11T08:42:53Z</time>
      </trkpt>
      <trkpt lat="45.689316485077143" lon="10.108957188203931">
        <ele>322.66000000000003</ele>
        <time>2014-05-11T08:42:54Z</time>
      </trkpt>
      <trkpt lat="45.689382618293166" lon="10.109072690829635">
        <ele>324.10000000000002</ele>
        <time>2014-05-11T08:43:05Z</time>
      </trkpt>
      <trkpt lat="45.689417235553265" lon="10.109139159321785">
        <ele>324.57999999999998</ele>
        <time>2014-05-11T08:43:21Z</time>
      </trkpt>
      <trkpt lat="45.689417319372296" lon="10.109206885099411">
        <ele>325.54000000000002</ele>
        <time>2014-05-11T08:43:26Z</time>
      </trkpt>
      <trkpt lat="45.689416565001011" lon="10.109225828200579">
        <ele>325.54000000000002</ele>
        <time>2014-05-11T08:43:27Z</time>
      </trkpt>
      <trkpt lat="45.689428215846419" lon="10.109256925061345">
        <ele>326.01999999999998</ele>
        <time>2014-05-11T08:43:29Z</time>
      </trkpt>
      <trkpt lat="45.689446069300175" lon="10.109267234802246">
        <ele>326.5</ele>
        <time>2014-05-11T08:43:31Z</time>
      </trkpt>
      <trkpt lat="45.689517734572291" lon="10.109337223693728">
        <ele>326.99000000000001</ele>
        <time>2014-05-11T08:43:40Z</time>
      </trkpt>
      <trkpt lat="45.689620496705174" lon="10.10942380875349">
        <ele>326.99000000000001</ele>
        <time>2014-05-11T08:43:50Z</time>
      </trkpt>
      <trkpt lat="45.689633404836059" lon="10.109433783218265">
        <ele>326.99000000000001</ele>
        <time>2014-05-11T08:43:52Z</time>
      </trkpt>
      <trkpt lat="45.689645977690816" lon="10.109443925321102">
        <ele>326.99000000000001</ele>
        <time>2014-05-11T08:43:53Z</time>
      </trkpt>
      <trkpt lat="45.689662154763937" lon="10.109453229233623">
        <ele>326.99000000000001</ele>
        <time>2014-05-11T08:43:54Z</time>
      </trkpt>
      <trkpt lat="45.689680343493819" lon="10.10946286842227">
        <ele>326.99000000000001</ele>
        <time>2014-05-11T08:43:55Z</time>
      </trkpt>
      <trkpt lat="45.689697358757257" lon="10.109476782381535">
        <ele>326.99000000000001</ele>
        <time>2014-05-11T08:43:56Z</time>
      </trkpt>
      <trkpt lat="45.689716804772615" lon="10.109489690512419">
        <ele>326.99000000000001</ele>
        <time>2014-05-11T08:43:57Z</time>
      </trkpt>
      <trkpt lat="45.689735077321529" lon="10.109501508995891">
        <ele>326.99000000000001</ele>
        <time>2014-05-11T08:43:58Z</time>
      </trkpt>
      <trkpt lat="45.689763240516186" lon="10.109519362449646">
        <ele>326.99000000000001</ele>
        <time>2014-05-11T08:44:01Z</time>
      </trkpt>
      <trkpt lat="45.689773801714182" lon="10.109522547572851">
        <ele>327.47000000000003</ele>
        <time>2014-05-11T08:44:02Z</time>
      </trkpt>
      <trkpt lat="45.689785536378622" lon="10.109524223953485">
        <ele>327.47000000000003</ele>
        <time>2014-05-11T08:44:03Z</time>
      </trkpt>
      <trkpt lat="45.689799366518855" lon="10.109527241438627">
        <ele>327.47000000000003</ele>
        <time>2014-05-11T08:44:04Z</time>
      </trkpt>
      <trkpt lat="45.689877402037382" lon="10.109534952789545">
        <ele>327.47000000000003</ele>
        <time>2014-05-11T08:44:14Z</time>
      </trkpt>
      <trkpt lat="45.689883688464761" lon="10.109524894505739">
        <ele>327.47000000000003</ele>
        <time>2014-05-11T08:44:29Z</time>
      </trkpt>
      <trkpt lat="45.689891567453742" lon="10.109538389369845">
        <ele>327.47000000000003</ele>
        <time>2014-05-11T08:44:33Z</time>
      </trkpt>
      <trkpt lat="45.689904140308499" lon="10.109542496502399">
        <ele>327.47000000000003</ele>
        <time>2014-05-11T08:44:34Z</time>
      </trkpt>
      <trkpt lat="45.689915958791971" lon="10.10954400524497">
        <ele>327.47000000000003</ele>
        <time>2014-05-11T08:44:35Z</time>
      </trkpt>
      <trkpt lat="45.689926017075777" lon="10.109546603634953">
        <ele>327.47000000000003</ele>
        <time>2014-05-11T08:44:36Z</time>
      </trkpt>
      <trkpt lat="45.689934566617012" lon="10.109553057700396">
        <ele>327.47000000000003</ele>
        <time>2014-05-11T08:44:37Z</time>
      </trkpt>
      <trkpt lat="45.689958371222019" lon="10.109575437381864">
        <ele>326.5</ele>
        <time>2014-05-11T08:44:41Z</time>
      </trkpt>
      <trkpt lat="45.689970944076777" lon="10.10958943516016">
        <ele>326.5</ele>
        <time>2014-05-11T08:44:42Z</time>
      </trkpt>
      <trkpt lat="45.689985696226358" lon="10.109605696052313">
        <ele>326.5</ele>
        <time>2014-05-11T08:44:43Z</time>
      </trkpt>
      <trkpt lat="45.690001705661416" lon="10.109619274735451">
        <ele>326.5</ele>
        <time>2014-05-11T08:44:44Z</time>
      </trkpt>
      <trkpt lat="45.690017212182283" lon="10.109630841761827">
        <ele>326.5</ele>
        <time>2014-05-11T08:44:45Z</time>
      </trkpt>
      <trkpt lat="45.690029030665755" lon="10.109639642760158">
        <ele>326.5</ele>
        <time>2014-05-11T08:44:46Z</time>
      </trkpt>
      <trkpt lat="45.690041100606322" lon="10.109647270292044">
        <ele>326.5</ele>
        <time>2014-05-11T08:44:47Z</time>
      </trkpt>
      <trkpt lat="45.690202200785279" lon="10.10977509431541">
        <ele>326.01999999999998</ele>
        <time>2014-05-11T08:45:02Z</time>
      </trkpt>
      <trkpt lat="45.69040403701365" lon="10.109846843406558">
        <ele>325.54000000000002</ele>
        <time>2014-05-11T08:45:18Z</time>
      </trkpt>
      <trkpt lat="45.690451897680759" lon="10.109837874770164">
        <ele>325.54000000000002</ele>
        <time>2014-05-11T08:45:31Z</time>
      </trkpt>
      <trkpt lat="45.690592881292105" lon="10.109871486201882">
        <ele>326.99000000000001</ele>
        <time>2014-05-11T08:45:41Z</time>
      </trkpt>
      <trkpt lat="45.690709222108126" lon="10.109925884753466">
        <ele>326.99000000000001</ele>
        <time>2014-05-11T08:45:53Z</time>
      </trkpt>
      <trkpt lat="45.690817097201943" lon="10.109997550025582">
        <ele>326.99000000000001</ele>
        <time>2014-05-11T08:46:03Z</time>
      </trkpt>
      <trkpt lat="45.690825562924147" lon="10.110002746805549">
        <ele>326.99000000000001</ele>
        <time>2014-05-11T08:46:04Z</time>
      </trkpt>
      <trkpt lat="45.690837381407619" lon="10.110013727098703">
        <ele>326.99000000000001</ele>
        <time>2014-05-11T08:46:05Z</time>
      </trkpt>
      <trkpt lat="45.690930504351854" lon="10.110086733475327">
        <ele>326.99000000000001</ele>
        <time>2014-05-11T08:46:14Z</time>
      </trkpt>
      <trkpt lat="45.690945675596595" lon="10.11008882895112">
        <ele>326.99000000000001</ele>
        <time>2014-05-11T08:46:15Z</time>
      </trkpt>
      <trkpt lat="45.690959924831986" lon="10.110091846436262">
        <ele>326.99000000000001</ele>
        <time>2014-05-11T08:46:16Z</time>
      </trkpt>
      <trkpt lat="45.690993536263704" lon="10.110115231946111">
        <ele>326.99000000000001</ele>
        <time>2014-05-11T08:46:20Z</time>
      </trkpt>
      <trkpt lat="45.691005270928144" lon="10.110124032944441">
        <ele>326.99000000000001</ele>
        <time>2014-05-11T08:46:21Z</time>
      </trkpt>
      <trkpt lat="45.691092777997255" lon="10.110195027664304">
        <ele>326.99000000000001</ele>
        <time>2014-05-11T08:46:36Z</time>
      </trkpt>
      <trkpt lat="45.691142231225967" lon="10.110249761492014">
        <ele>325.54000000000002</ele>
        <time>2014-05-11T08:46:55Z</time>
      </trkpt>
      <trkpt lat="45.691161090508103" lon="10.110247582197189">
        <ele>325.54000000000002</ele>
        <time>2014-05-11T08:46:56Z</time>
      </trkpt>
      <trkpt lat="45.691181374713778" lon="10.110242636874318">
        <ele>325.06</ele>
        <time>2014-05-11T08:46:57Z</time>
      </trkpt>
      <trkpt lat="45.691366195678711" lon="10.110196117311716">
        <ele>322.66000000000003</ele>
        <time>2014-05-11T08:47:11Z</time>
      </trkpt>
      <trkpt lat="45.691376086324453" lon="10.110184885561466">
        <ele>322.66000000000003</ele>
        <time>2014-05-11T08:47:12Z</time>
      </trkpt>
      <trkpt lat="45.691386396065354" lon="10.110175916925073">
        <ele>322.66000000000003</ele>
        <time>2014-05-11T08:47:13Z</time>
      </trkpt>
      <trkpt lat="45.691397627815604" lon="10.110169127583504">
        <ele>322.18000000000001</ele>
        <time>2014-05-11T08:47:14Z</time>
      </trkpt>
      <trkpt lat="45.691408775746822" lon="10.110164349898696">
        <ele>322.18000000000001</ele>
        <time>2014-05-11T08:47:15Z</time>
      </trkpt>
      <trkpt lat="45.691583203151822" lon="10.110114645212889">
        <ele>318.32999999999998</ele>
        <time>2014-05-11T08:47:27Z</time>
      </trkpt>
      <trkpt lat="45.69159334525466" lon="10.110109280794859">
        <ele>318.32999999999998</ele>
        <time>2014-05-11T08:47:28Z</time>
      </trkpt>
      <trkpt lat="45.691601810976863" lon="10.110102659091353">
        <ele>318.32999999999998</ele>
        <time>2014-05-11T08:47:29Z</time>
      </trkpt>
      <trkpt lat="45.691611366346478" lon="10.110093355178833">
        <ele>318.32999999999998</ele>
        <time>2014-05-11T08:47:30Z</time>
      </trkpt>
      <trkpt lat="45.691623436287045" lon="10.110086314380169">
        <ele>317.85000000000002</ele>
        <time>2014-05-11T08:47:31Z</time>
      </trkpt>
      <trkpt lat="45.691635003313422" lon="10.110081871971488">
        <ele>317.37</ele>
        <time>2014-05-11T08:47:32Z</time>
      </trkpt>
      <trkpt lat="45.691649504005909" lon="10.11007365770638">
        <ele>316.88999999999999</ele>
        <time>2014-05-11T08:47:33Z</time>
      </trkpt>
      <trkpt lat="45.691665513440967" lon="10.110061252489686">
        <ele>316.41000000000003</ele>
        <time>2014-05-11T08:47:34Z</time>
      </trkpt>
      <trkpt lat="45.691679511219263" lon="10.110048595815897">
        <ele>316.41000000000003</ele>
        <time>2014-05-11T08:47:35Z</time>
      </trkpt>
      <trkpt lat="45.691691497340798" lon="10.11003409512341">
        <ele>315.93000000000001</ele>
        <time>2014-05-11T08:47:36Z</time>
      </trkpt>
      <trkpt lat="45.691700801253319" lon="10.110022109001875">
        <ele>315.93000000000001</ele>
        <time>2014-05-11T08:47:37Z</time>
      </trkpt>
      <trkpt lat="45.691772382706404" lon="10.109848184511065">
        <ele>313.05000000000001</ele>
        <time>2014-05-11T08:47:50Z</time>
      </trkpt>
      <trkpt lat="45.691804736852646" lon="10.109776267781854">
        <ele>311.12</ele>
        <time>2014-05-11T08:47:57Z</time>
      </trkpt>
      <trkpt lat="45.691864164546132" lon="10.109686832875013">
        <ele>309.19999999999999</ele>
        <time>2014-05-11T08:48:13Z</time>
      </trkpt>
      <trkpt lat="45.691938763484359" lon="10.109643079340458">
        <ele>307.75999999999999</ele>
        <time>2014-05-11T08:48:23Z</time>
      </trkpt>
      <trkpt lat="45.691952090710402" lon="10.109633943066001">
        <ele>307.27999999999997</ele>
        <time>2014-05-11T08:48:24Z</time>
      </trkpt>
      <trkpt lat="45.692033646628261" lon="10.109559679403901">
        <ele>305.83999999999997</ele>
        <time>2014-05-11T08:48:34Z</time>
      </trkpt>
      <trkpt lat="45.692052086815238" lon="10.109555069357157">
        <ele>304.88</ele>
        <time>2014-05-11T08:48:37Z</time>
      </trkpt>
      <trkpt lat="45.69212350063026" lon="10.109575605019927">
        <ele>303.91000000000003</ele>
        <time>2014-05-11T08:48:45Z</time>
      </trkpt>
      <trkpt lat="45.692137666046619" lon="10.109579376876354">
        <ele>303.91000000000003</ele>
        <time>2014-05-11T08:48:46Z</time>
      </trkpt>
      <trkpt lat="45.69221829995513" lon="10.109596895053983">
        <ele>302.94999999999999</ele>
        <time>2014-05-11T08:48:53Z</time>
      </trkpt>
      <trkpt lat="45.692230956628919" lon="10.109598487615585">
        <ele>301.99000000000001</ele>
        <time>2014-05-11T08:48:54Z</time>
      </trkpt>
      <trkpt lat="45.692343944683671" lon="10.109662525355816">
        <ele>301.50999999999999</ele>
        <time>2014-05-11T08:49:07Z</time>
      </trkpt>
      <trkpt lat="45.692471684888005" lon="10.109773585572839">
        <ele>299.58999999999997</ele>
        <time>2014-05-11T08:49:24Z</time>
      </trkpt>
      <trkpt lat="45.692573776468635" lon="10.109846172854304">
        <ele>297.18000000000001</ele>
        <time>2014-05-11T08:49:42Z</time>
      </trkpt>
      <trkpt lat="45.692696068435907" lon="10.109881544485688">
        <ele>294.30000000000001</ele>
        <time>2014-05-11T08:49:57Z</time>
      </trkpt>
      <trkpt lat="45.692720878869295" lon="10.109836617484689">
        <ele>293.81999999999999</ele>
        <time>2014-05-11T08:50:07Z</time>
      </trkpt>
      <trkpt lat="45.69271576590836" lon="10.109820524230599">
        <ele>293.81999999999999</ele>
        <time>2014-05-11T08:50:08Z</time>
      </trkpt>
      <trkpt lat="45.692687854170799" lon="10.109820021316409">
        <ele>296.69999999999999</ele>
        <time>2014-05-11T08:50:22Z</time>
      </trkpt>
      <trkpt lat="45.69271476007998" lon="10.109820356592536">
        <ele>296.69999999999999</ele>
        <time>2014-05-11T08:50:37Z</time>
      </trkpt>
      <trkpt lat="45.69270109757781" lon="10.109834186732769">
        <ele>296.69999999999999</ele>
        <time>2014-05-11T08:50:56Z</time>
      </trkpt>
      <trkpt lat="45.692666983231902" lon="10.109801162034273">
        <ele>296.22000000000003</ele>
        <time>2014-05-11T08:51:23Z</time>
      </trkpt>
      <trkpt lat="45.692720962688327" lon="10.109796049073339">
        <ele>294.77999999999997</ele>
        <time>2014-05-11T08:51:31Z</time>
      </trkpt>
      <trkpt lat="45.69276999682188" lon="10.109886322170496">
        <ele>291.89999999999998</ele>
        <time>2014-05-11T08:51:42Z</time>
      </trkpt>
      <trkpt lat="45.692785419523716" lon="10.109911384060979">
        <ele>290.45999999999998</ele>
        <time>2014-05-11T08:51:45Z</time>
      </trkpt>
      <trkpt lat="45.692855659872293" lon="10.11000475846231">
        <ele>287.08999999999997</ele>
        <time>2014-05-11T08:51:58Z</time>
      </trkpt>
      <trkpt lat="45.692848116159439" lon="10.110089164227247">
        <ele>286.61000000000001</ele>
        <time>2014-05-11T08:52:05Z</time>
      </trkpt>
      <trkpt lat="45.692847948521376" lon="10.110223274677992">
        <ele>286.13</ele>
        <time>2014-05-11T08:52:13Z</time>
      </trkpt>
      <trkpt lat="45.69284962490201" lon="10.110246911644936">
        <ele>285.64999999999998</ele>
        <time>2014-05-11T08:52:14Z</time>
      </trkpt>
      <trkpt lat="45.692889858037233" lon="10.110335843637586">
        <ele>285.17000000000002</ele>
        <time>2014-05-11T08:52:23Z</time>
      </trkpt>
      <trkpt lat="45.692900419235229" lon="10.110345566645265">
        <ele>285.17000000000002</ele>
        <time>2014-05-11T08:52:24Z</time>
      </trkpt>
      <trkpt lat="45.693004941567779" lon="10.110305584967136">
        <ele>285.17000000000002</ele>
        <time>2014-05-11T08:52:38Z</time>
      </trkpt>
      <trkpt lat="45.693064285442233" lon="10.110184717923403">
        <ele>286.61000000000001</ele>
        <time>2014-05-11T08:52:50Z</time>
      </trkpt>
      <trkpt lat="45.69316721521318" lon="10.11007709428668">
        <ele>287.08999999999997</ele>
        <time>2014-05-11T08:53:07Z</time>
      </trkpt>
      <trkpt lat="45.693307695910335" lon="10.110191004350781">
        <ele>288.52999999999997</ele>
        <time>2014-05-11T08:53:25Z</time>
      </trkpt>
      <trkpt lat="45.69352587684989" lon="10.110297789797187">
        <ele>288.52999999999997</ele>
        <time>2014-05-11T08:53:48Z</time>
      </trkpt>
      <trkpt lat="45.693618832156062" lon="10.110427960753441">
        <ele>289.49000000000001</ele>
        <time>2014-05-11T08:54:05Z</time>
      </trkpt>
      <trkpt lat="45.693727461621165" lon="10.110534243285656">
        <ele>292.86000000000001</ele>
        <time>2014-05-11T08:54:23Z</time>
      </trkpt>
      <trkpt lat="45.693824775516987" lon="10.110669024288654">
        <ele>295.25999999999999</ele>
        <time>2014-05-11T08:54:39Z</time>
      </trkpt>
      <trkpt lat="45.69391286931932" lon="10.110808750614524">
        <ele>298.63</ele>
        <time>2014-05-11T08:54:55Z</time>
      </trkpt>
      <trkpt lat="45.693987468257546" lon="10.110967420041561">
        <ele>301.99000000000001</ele>
        <time>2014-05-11T08:55:13Z</time>
      </trkpt>
      <trkpt lat="45.693992078304291" lon="10.111095327883959">
        <ele>303.43000000000001</ele>
        <time>2014-05-11T08:55:24Z</time>
      </trkpt>
      <trkpt lat="45.693990988656878" lon="10.111121479421854">
        <ele>303.43000000000001</ele>
        <time>2014-05-11T08:55:25Z</time>
      </trkpt>
      <trkpt lat="45.694020492956042" lon="10.111321555450559">
        <ele>305.83999999999997</ele>
        <time>2014-05-11T08:55:41Z</time>
      </trkpt>
      <trkpt lat="45.694064497947693" lon="10.111459102481604">
        <ele>306.80000000000001</ele>
        <time>2014-05-11T08:55:51Z</time>
      </trkpt>
      <trkpt lat="45.694116465747356" lon="10.111631518229842">
        <ele>309.19999999999999</ele>
        <time>2014-05-11T08:56:07Z</time>
      </trkpt>
      <trkpt lat="45.69414546713233" lon="10.111616179347038">
        <ele>310.16000000000003</ele>
        <time>2014-05-11T08:56:14Z</time>
      </trkpt>
      <trkpt lat="45.694325594231486" lon="10.111646689474583">
        <ele>310.63999999999999</ele>
        <time>2014-05-11T08:56:27Z</time>
      </trkpt>
      <trkpt lat="45.694446545094252" lon="10.111707374453545">
        <ele>311.12</ele>
        <time>2014-05-11T08:56:37Z</time>
      </trkpt>
      <trkpt lat="45.694525586441159" lon="10.111753139644861">
        <ele>311.60000000000002</ele>
        <time>2014-05-11T08:56:44Z</time>
      </trkpt>
      <trkpt lat="45.694589288905263" lon="10.111795971170068">
        <ele>312.08999999999997</ele>
        <time>2014-05-11T08:56:54Z</time>
      </trkpt>
      <trkpt lat="45.694697415456176" lon="10.111903175711632">
        <ele>313.05000000000001</ele>
        <time>2014-05-11T08:57:06Z</time>
      </trkpt>
      <trkpt lat="45.694700516760349" lon="10.11199445463717">
        <ele>314.00999999999999</ele>
        <time>2014-05-11T08:57:12Z</time>
      </trkpt>
      <trkpt lat="45.694649051874876" lon="10.112166870385408">
        <ele>315.44999999999999</ele>
        <time>2014-05-11T08:57:23Z</time>
      </trkpt>
      <trkpt lat="45.694652488455176" lon="10.112157231196761">
        <ele>316.41000000000003</ele>
        <time>2014-05-11T08:57:42Z</time>
      </trkpt>
      <trkpt lat="45.694631030783057" lon="10.112250605598092">
        <ele>316.88999999999999</ele>
        <time>2014-05-11T08:58:01Z</time>
      </trkpt>
      <trkpt lat="45.694599179551005" lon="10.112261502072215">
        <ele>317.85000000000002</ele>
        <time>2014-05-11T08:58:16Z</time>
      </trkpt>
      <trkpt lat="45.694669336080551" lon="10.112462164834142">
        <ele>318.32999999999998</ele>
        <time>2014-05-11T08:58:29Z</time>
      </trkpt>
      <trkpt lat="45.694792130962014" lon="10.112489741295576">
        <ele>319.30000000000001</ele>
        <time>2014-05-11T08:58:44Z</time>
      </trkpt>
      <trkpt lat="45.694804452359676" lon="10.112500051036477">
        <ele>319.30000000000001</ele>
        <time>2014-05-11T08:59:00Z</time>
      </trkpt>
      <trkpt lat="45.694824904203415" lon="10.11249627918005">
        <ele>319.77999999999997</ele>
        <time>2014-05-11T08:59:24Z</time>
      </trkpt>
      <trkpt lat="45.694798333570361" lon="10.11242394335568">
        <ele>320.25999999999999</ele>
        <time>2014-05-11T08:59:50Z</time>
      </trkpt>
      <trkpt lat="45.694890366867185" lon="10.112561993300915">
        <ele>320.74000000000001</ele>
        <time>2014-05-11T09:00:06Z</time>
      </trkpt>
      <trkpt lat="45.694892462342978" lon="10.112564926967025">
        <ele>320.74000000000001</ele>
        <time>2014-05-11T09:00:22Z</time>
      </trkpt>
      <trkpt lat="45.694874022156" lon="10.112512456253171">
        <ele>319.77999999999997</ele>
        <time>2014-05-11T09:00:39Z</time>
      </trkpt>
      <trkpt lat="45.694897156208754" lon="10.112503068521619">
        <ele>320.25999999999999</ele>
        <time>2014-05-11T09:01:00Z</time>
      </trkpt>
      <trkpt lat="45.694894473999739" lon="10.112504158169031">
        <ele>320.25999999999999</ele>
        <time>2014-05-11T09:01:18Z</time>
      </trkpt>
      <trkpt lat="45.694886678829789" lon="10.112494686618447">
        <ele>320.25999999999999</ele>
        <time>2014-05-11T09:01:45Z</time>
      </trkpt>
      <trkpt lat="45.694881565868855" lon="10.112497117370367">
        <ele>320.25999999999999</ele>
        <time>2014-05-11T09:02:10Z</time>
      </trkpt>
      <trkpt lat="45.694887600839138" lon="10.112474821507931">
        <ele>320.25999999999999</ele>
        <time>2014-05-11T09:02:32Z</time>
      </trkpt>
      <trkpt lat="45.694878548383713" lon="10.112505415454507">
        <ele>320.74000000000001</ele>
        <time>2014-05-11T09:03:01Z</time>
      </trkpt>
      <trkpt lat="45.694856084883213" lon="10.112517401576042">
        <ele>320.74000000000001</ele>
        <time>2014-05-11T09:03:29Z</time>
      </trkpt>
      <trkpt lat="45.694857258349657" lon="10.112479096278548">
        <ele>320.74000000000001</ele>
        <time>2014-05-11T09:03:54Z</time>
      </trkpt>
      <trkpt lat="45.694844182580709" lon="10.112488651648164">
        <ele>320.74000000000001</ele>
        <time>2014-05-11T09:04:12Z</time>
      </trkpt>
      <trkpt lat="45.694828424602747" lon="10.112488400191069">
        <ele>321.22000000000003</ele>
        <time>2014-05-11T09:04:28Z</time>
      </trkpt>
      <trkpt lat="45.694849546998739" lon="10.11249921284616">
        <ele>321.22000000000003</ele>
        <time>2014-05-11T09:04:49Z</time>
      </trkpt>
      <trkpt lat="45.694866981357336" lon="10.112498961389065">
        <ele>322.66000000000003</ele>
        <time>2014-05-11T09:05:00Z</time>
      </trkpt>
      <trkpt lat="45.694867735728621" lon="10.112508768215775">
        <ele>322.66000000000003</ele>
        <time>2014-05-11T09:05:22Z</time>
      </trkpt>
      <trkpt lat="45.694883158430457" lon="10.112511366605759">
        <ele>322.66000000000003</ele>
        <time>2014-05-11T09:05:44Z</time>
      </trkpt>
      <trkpt lat="45.694881398230791" lon="10.112512204796076">
        <ele>321.69999999999999</ele>
        <time>2014-05-11T09:05:46Z</time>
      </trkpt>
      <trkpt lat="45.694898078218102" lon="10.112551599740982">
        <ele>321.69999999999999</ele>
        <time>2014-05-11T09:05:59Z</time>
      </trkpt>
      <trkpt lat="45.694889696314931" lon="10.112584205344319">
        <ele>321.69999999999999</ele>
        <time>2014-05-11T09:06:24Z</time>
      </trkpt>
      <trkpt lat="45.694888858124614" lon="10.112553611397743">
        <ele>321.69999999999999</ele>
        <time>2014-05-11T09:06:28Z</time>
      </trkpt>
      <trkpt lat="45.694908890873194" lon="10.112520838156343">
        <ele>321.69999999999999</ele>
        <time>2014-05-11T09:06:42Z</time>
      </trkpt>
      <trkpt lat="45.694931354373693" lon="10.112515641376376">
        <ele>321.69999999999999</ele>
        <time>2014-05-11T09:07:21Z</time>
      </trkpt>
      <trkpt lat="45.694932527840137" lon="10.112526705488563">
        <ele>323.13999999999999</ele>
        <time>2014-05-11T09:07:34Z</time>
      </trkpt>
      <trkpt lat="45.694915764033794" lon="10.112512540072203">
        <ele>323.13999999999999</ele>
        <time>2014-05-11T09:07:51Z</time>
      </trkpt>
      <trkpt lat="45.694940406829119" lon="10.112575739622116">
        <ele>323.13999999999999</ele>
        <time>2014-05-11T09:08:05Z</time>
      </trkpt>
      <trkpt lat="45.694954236969352" lon="10.112547744065523">
        <ele>323.62</ele>
        <time>2014-05-11T09:08:29Z</time>
      </trkpt>
      <trkpt lat="45.69497125223279" lon="10.112426960840821">
        <ele>323.62</ele>
        <time>2014-05-11T09:08:57Z</time>
      </trkpt>
      <trkpt lat="45.694965049624443" lon="10.112423356622458">
        <ele>323.62</ele>
        <time>2014-05-11T09:09:19Z</time>
      </trkpt>
      <trkpt lat="45.694923223927617" lon="10.112463422119617">
        <ele>323.62</ele>
        <time>2014-05-11T09:09:28Z</time>
      </trkpt>
      <trkpt lat="45.694893635809422" lon="10.112500134855509">
        <ele>322.18000000000001</ele>
        <time>2014-05-11T09:09:42Z</time>
      </trkpt>
      <trkpt lat="45.694889193400741" lon="10.112501559779048">
        <ele>324.10000000000002</ele>
        <time>2014-05-11T09:09:44Z</time>
      </trkpt>
      <trkpt lat="45.694891288876534" lon="10.112514970824122">
        <ele>324.10000000000002</ele>
        <time>2014-05-11T09:10:03Z</time>
      </trkpt>
      <trkpt lat="45.694868238642812" lon="10.112498123198748">
        <ele>324.10000000000002</ele>
        <time>2014-05-11T09:10:17Z</time>
      </trkpt>
      <trkpt lat="45.694866226986051" lon="10.112457638606429">
        <ele>324.10000000000002</ele>
        <time>2014-05-11T09:10:39Z</time>
      </trkpt>
      <trkpt lat="45.694928420707583" lon="10.112549168989062">
        <ele>324.10000000000002</ele>
        <time>2014-05-11T09:11:06Z</time>
      </trkpt>
      <trkpt lat="45.69492775015533" lon="10.112566854804754">
        <ele>324.10000000000002</ele>
        <time>2014-05-11T09:11:34Z</time>
      </trkpt>
      <trkpt lat="45.694935293868184" lon="10.112596275284886">
        <ele>324.10000000000002</ele>
        <time>2014-05-11T09:11:56Z</time>
      </trkpt>
      <trkpt lat="45.694916769862175" lon="10.112635502591729">
        <ele>324.10000000000002</ele>
        <time>2014-05-11T09:12:21Z</time>
      </trkpt>
      <trkpt lat="45.69487351924181" lon="10.112542798742652">
        <ele>324.10000000000002</ele>
        <time>2014-05-11T09:12:41Z</time>
      </trkpt>
      <trkpt lat="45.694875447079539" lon="10.112543134018779">
        <ele>324.10000000000002</ele>
        <time>2014-05-11T09:12:55Z</time>
      </trkpt>
      <trkpt lat="45.694874860346317" lon="10.11255637742579">
        <ele>324.10000000000002</ele>
        <time>2014-05-11T09:13:11Z</time>
      </trkpt>
      <trkpt lat="45.694883409887552" lon="10.112530728802085">
        <ele>324.10000000000002</ele>
        <time>2014-05-11T09:13:29Z</time>
      </trkpt>
      <trkpt lat="45.694894390180707" lon="10.112538691610098">
        <ele>324.10000000000002</ele>
        <time>2014-05-11T09:13:48Z</time>
      </trkpt>
      <trkpt lat="45.694924732670188" lon="10.112508600577712">
        <ele>324.10000000000002</ele>
        <time>2014-05-11T09:14:00Z</time>
      </trkpt>
      <trkpt lat="45.695080887526274" lon="10.112540451809764">
        <ele>324.10000000000002</ele>
        <time>2014-05-11T09:14:17Z</time>
      </trkpt>
      <trkpt lat="45.695103518664837" lon="10.112536093220115">
        <ele>324.10000000000002</ele>
        <time>2014-05-11T09:14:20Z</time>
      </trkpt>
      <trkpt lat="45.69515842013061" lon="10.112522849813104">
        <ele>324.10000000000002</ele>
        <time>2014-05-11T09:14:33Z</time>
      </trkpt>
      <trkpt lat="45.69516085088253" lon="10.112474486231804">
        <ele>324.10000000000002</ele>
        <time>2014-05-11T09:14:51Z</time>
      </trkpt>
      <trkpt lat="45.695181889459491" lon="10.112504074349999">
        <ele>324.10000000000002</ele>
        <time>2014-05-11T09:14:55Z</time>
      </trkpt>
      <trkpt lat="45.6952781137079" lon="10.112508768215775">
        <ele>324.10000000000002</ele>
        <time>2014-05-11T09:15:09Z</time>
      </trkpt>
      <trkpt lat="45.695283310487866" lon="10.112500302493572">
        <ele>324.10000000000002</ele>
        <time>2014-05-11T09:15:28Z</time>
      </trkpt>
      <trkpt lat="45.69526101462543" lon="10.112497955560684">
        <ele>324.10000000000002</ele>
        <time>2014-05-11T09:15:42Z</time>
      </trkpt>
      <trkpt lat="45.69521994329989" lon="10.112494854256511">
        <ele>324.10000000000002</ele>
        <time>2014-05-11T09:16:02Z</time>
      </trkpt>
      <trkpt lat="45.695290518924594" lon="10.112483203411102">
        <ele>324.10000000000002</ele>
        <time>2014-05-11T09:16:18Z</time>
      </trkpt>
      <trkpt lat="45.69533477537334" lon="10.112499296665192">
        <ele>324.10000000000002</ele>
        <time>2014-05-11T09:16:22Z</time>
      </trkpt>
      <trkpt lat="45.695503503084183" lon="10.112527208402753">
        <ele>325.06</ele>
        <time>2014-05-11T09:16:32Z</time>
      </trkpt>
      <trkpt lat="45.695632752031088" lon="10.112600633874536">
        <ele>326.5</ele>
        <time>2014-05-11T09:16:49Z</time>
      </trkpt>
      <trkpt lat="45.695676757022738" lon="10.112550174817443">
        <ele>326.5</ele>
        <time>2014-05-11T09:17:03Z</time>
      </trkpt>
      <trkpt lat="45.695685809478164" lon="10.112590324133635">
        <ele>326.99000000000001</ele>
        <time>2014-05-11T09:17:23Z</time>
      </trkpt>
      <trkpt lat="45.695709781721234" lon="10.112578002735972">
        <ele>326.99000000000001</ele>
        <time>2014-05-11T09:17:28Z</time>
      </trkpt>
      <trkpt lat="45.695734256878495" lon="10.112592335790396">
        <ele>326.99000000000001</ele>
        <time>2014-05-11T09:17:31Z</time>
      </trkpt>
      <trkpt lat="45.695888316258788" lon="10.112733570858836">
        <ele>325.06</ele>
        <time>2014-05-11T09:17:50Z</time>
      </trkpt>
      <trkpt lat="45.695961574092507" lon="10.112894335761666">
        <ele>326.5</ele>
        <time>2014-05-11T09:18:04Z</time>
      </trkpt>
      <trkpt lat="45.696020415052772" lon="10.113029116764665">
        <ele>328.43000000000001</ele>
        <time>2014-05-11T09:18:20Z</time>
      </trkpt>
      <trkpt lat="45.69610096514225" lon="10.113116120919585">
        <ele>329.38999999999999</ele>
        <time>2014-05-11T09:18:30Z</time>
      </trkpt>
      <trkpt lat="45.696155615150928" lon="10.113267917186022">
        <ele>330.35000000000002</ele>
        <time>2014-05-11T09:18:44Z</time>
      </trkpt>
      <trkpt lat="45.696295341476798" lon="10.113477213308215">
        <ele>331.79000000000002</ele>
        <time>2014-05-11T09:19:04Z</time>
      </trkpt>
      <trkpt lat="45.696394331753254" lon="10.113620460033417">
        <ele>331.79000000000002</ele>
        <time>2014-05-11T09:19:23Z</time>
      </trkpt>
      <trkpt lat="45.696371952071786" lon="10.113614425063133">
        <ele>331.79000000000002</ele>
        <time>2014-05-11T09:19:46Z</time>
      </trkpt>
      <trkpt lat="45.696359882131219" lon="10.113621298223734">
        <ele>331.79000000000002</ele>
        <time>2014-05-11T09:20:04Z</time>
      </trkpt>
      <trkpt lat="45.69640782661736" lon="10.113633200526237">
        <ele>330.35000000000002</ele>
        <time>2014-05-11T09:20:16Z</time>
      </trkpt>
      <trkpt lat="45.696480581536889" lon="10.113719366490841">
        <ele>328.91000000000003</ele>
        <time>2014-05-11T09:20:32Z</time>
      </trkpt>
      <trkpt lat="45.696542859077454" lon="10.113795474171638">
        <ele>327.47000000000003</ele>
        <time>2014-05-11T09:20:46Z</time>
      </trkpt>
      <trkpt lat="45.696571189910173" lon="10.113820619881153">
        <ele>326.5</ele>
        <time>2014-05-11T09:20:52Z</time>
      </trkpt>
      <trkpt lat="45.696622570976615" lon="10.113875437527895">
        <ele>325.54000000000002</ele>
        <time>2014-05-11T09:20:59Z</time>
      </trkpt>
      <trkpt lat="45.696670012548566" lon="10.113932602107525">
        <ele>324.57999999999998</ele>
        <time>2014-05-11T09:21:12Z</time>
      </trkpt>
      <trkpt lat="45.696827257052064" lon="10.114171402528882">
        <ele>324.10000000000002</ele>
        <time>2014-05-11T09:21:32Z</time>
      </trkpt>
      <trkpt lat="45.696969078853726" lon="10.114403581246734">
        <ele>323.62</ele>
        <time>2014-05-11T09:21:50Z</time>
      </trkpt>
      <trkpt lat="45.697167729958892" lon="10.114493686705828">
        <ele>323.62</ele>
        <time>2014-05-11T09:22:09Z</time>
      </trkpt>
      <trkpt lat="45.697194971144199" lon="10.114495027810335">
        <ele>323.62</ele>
        <time>2014-05-11T09:22:11Z</time>
      </trkpt>
      <trkpt lat="45.697431843727827" lon="10.114582618698478">
        <ele>323.62</ele>
        <time>2014-05-11T09:22:31Z</time>
      </trkpt>
      <trkpt lat="45.697496049106121" lon="10.114614637568593">
        <ele>325.06</ele>
        <time>2014-05-11T09:22:40Z</time>
      </trkpt>
      <trkpt lat="45.697578024119139" lon="10.114694098010659">
        <ele>324.57999999999998</ele>
        <time>2014-05-11T09:23:03Z</time>
      </trkpt>
      <trkpt lat="45.697733340784907" lon="10.114905154332519">
        <ele>326.5</ele>
        <time>2014-05-11T09:23:21Z</time>
      </trkpt>
      <trkpt lat="45.697790589183569" lon="10.114994673058391">
        <ele>327.47000000000003</ele>
        <time>2014-05-11T09:23:33Z</time>
      </trkpt>
      <trkpt lat="45.697845490649343" lon="10.11505326256156">
        <ele>327.94999999999999</ele>
        <time>2014-05-11T09:23:40Z</time>
      </trkpt>
      <trkpt lat="45.697876252233982" lon="10.115104475989938">
        <ele>327.94999999999999</ele>
        <time>2014-05-11T09:23:46Z</time>
      </trkpt>
      <trkpt lat="45.697977840900421" lon="10.115244202315807">
        <ele>328.43000000000001</ele>
        <time>2014-05-11T09:23:59Z</time>
      </trkpt>
      <trkpt lat="45.698107341304421" lon="10.115375798195601">
        <ele>330.35000000000002</ele>
        <time>2014-05-11T09:24:12Z</time>
      </trkpt>
      <trkpt lat="45.698197949677706" lon="10.115448636934161">
        <ele>330.82999999999998</ele>
        <time>2014-05-11T09:24:21Z</time>
      </trkpt>
      <trkpt lat="45.69839165546" lon="10.115577718243003">
        <ele>331.31</ele>
        <time>2014-05-11T09:24:38Z</time>
      </trkpt>
      <trkpt lat="45.698554264381528" lon="10.115682575851679">
        <ele>331.31</ele>
        <time>2014-05-11T09:24:54Z</time>
      </trkpt>
      <trkpt lat="45.698729110881686" lon="10.115837389603257">
        <ele>331.31</ele>
        <time>2014-05-11T09:25:12Z</time>
      </trkpt>
      <trkpt lat="45.698852073401213" lon="10.115982731804252">
        <ele>331.31</ele>
        <time>2014-05-11T09:25:24Z</time>
      </trkpt>
      <trkpt lat="45.6988924741745" lon="10.116021707653999">
        <ele>331.31</ele>
        <time>2014-05-11T09:25:29Z</time>
      </trkpt>
      <trkpt lat="45.698934886604548" lon="10.116065293550491">
        <ele>331.31</ele>
        <time>2014-05-11T09:25:33Z</time>
      </trkpt>
      <trkpt lat="45.699050137773156" lon="10.116165122017264">
        <ele>331.31</ele>
        <time>2014-05-11T09:25:46Z</time>
      </trkpt>
      <trkpt lat="45.699045024812222" lon="10.11616688221693">
        <ele>331.31</ele>
        <time>2014-05-11T09:26:07Z</time>
      </trkpt>
      <trkpt lat="45.699137561023235" lon="10.116206193342805">
        <ele>331.31</ele>
        <time>2014-05-11T09:26:19Z</time>
      </trkpt>
      <trkpt lat="45.699163964018226" lon="10.116236535832286">
        <ele>332.26999999999998</ele>
        <time>2014-05-11T09:26:32Z</time>
      </trkpt>
      <trkpt lat="45.699173519387841" lon="10.116232009604573">
        <ele>332.26999999999998</ele>
        <time>2014-05-11T09:26:36Z</time>
      </trkpt>
      <trkpt lat="45.699255326762795" lon="10.116250282153487">
        <ele>332.75</ele>
        <time>2014-05-11T09:26:42Z</time>
      </trkpt>
      <trkpt lat="45.699310563504696" lon="10.116321528330445">
        <ele>333.23000000000002</ele>
        <time>2014-05-11T09:26:48Z</time>
      </trkpt>
      <trkpt lat="45.699384324252605" lon="10.116417501121759">
        <ele>334.19999999999999</ele>
        <time>2014-05-11T09:26:57Z</time>
      </trkpt>
      <trkpt lat="45.699481051415205" lon="10.116517664864659">
        <ele>335.16000000000003</ele>
        <time>2014-05-11T09:27:09Z</time>
      </trkpt>
      <trkpt lat="45.699594793841243" lon="10.116579942405224">
        <ele>336.60000000000002</ele>
        <time>2014-05-11T09:27:24Z</time>
      </trkpt>
      <trkpt lat="45.699599571526051" lon="10.116562424227595">
        <ele>337.56</ele>
        <time>2014-05-11T09:27:40Z</time>
      </trkpt>
      <trkpt lat="45.699635613709688" lon="10.116579607129097">
        <ele>336.60000000000002</ele>
        <time>2014-05-11T09:28:02Z</time>
      </trkpt>
      <trkpt lat="45.699720187112689" lon="10.116639286279678">
        <ele>335.63999999999999</ele>
        <time>2014-05-11T09:28:10Z</time>
      </trkpt>
      <trkpt lat="45.699792774394155" lon="10.116671556606889">
        <ele>335.16000000000003</ele>
        <time>2014-05-11T09:28:17Z</time>
      </trkpt>
      <trkpt lat="45.699839796870947" lon="10.116693014279008">
        <ele>334.68000000000001</ele>
        <time>2014-05-11T09:28:22Z</time>
      </trkpt>
      <trkpt lat="45.70000609382987" lon="10.116857131943107">
        <ele>333.23000000000002</ele>
        <time>2014-05-11T09:28:41Z</time>
      </trkpt>
      <trkpt lat="45.700085638090968" lon="10.116925276815891">
        <ele>332.75</ele>
        <time>2014-05-11T09:28:49Z</time>
      </trkpt>
      <trkpt lat="45.700204661116004" lon="10.117108253762126">
        <ele>332.75</ele>
        <time>2014-05-11T09:29:03Z</time>
      </trkpt>
      <trkpt lat="45.700322678312659" lon="10.117282681167126">
        <ele>332.75</ele>
        <time>2014-05-11T09:29:21Z</time>
      </trkpt>
      <trkpt lat="45.70050205104053" lon="10.117414109408855">
        <ele>332.75</ele>
        <time>2014-05-11T09:29:41Z</time>
      </trkpt>
      <trkpt lat="45.700617888942361" lon="10.117509663105011">
        <ele>333.70999999999998</ele>
        <time>2014-05-11T09:29:52Z</time>
      </trkpt>
      <trkpt lat="45.700732804834843" lon="10.117588117718697">
        <ele>333.70999999999998</ele>
        <time>2014-05-11T09:30:03Z</time>
      </trkpt>
      <trkpt lat="45.700765242800117" lon="10.117619885131717">
        <ele>333.70999999999998</ele>
        <time>2014-05-11T09:30:08Z</time>
      </trkpt>
      <trkpt lat="45.700827771797776" lon="10.117710828781128">
        <ele>332.26999999999998</ele>
        <time>2014-05-11T09:30:21Z</time>
      </trkpt>
      <trkpt lat="45.700858365744352" lon="10.117892380803823">
        <ele>329.38999999999999</ele>
        <time>2014-05-11T09:30:39Z</time>
      </trkpt>
      <trkpt lat="45.700871860608459" lon="10.118064796552062">
        <ele>326.01999999999998</ele>
        <time>2014-05-11T09:30:57Z</time>
      </trkpt>
      <trkpt lat="45.700972778722644" lon="10.118112489581108">
        <ele>325.06</ele>
        <time>2014-05-11T09:31:12Z</time>
      </trkpt>
      <trkpt lat="45.70116950199008" lon="10.118015091866255">
        <ele>323.13999999999999</ele>
        <time>2014-05-11T09:31:27Z</time>
      </trkpt>
      <trkpt lat="45.701237395405769" lon="10.117941834032536">
        <ele>322.66000000000003</ele>
        <time>2014-05-11T09:31:34Z</time>
      </trkpt>
      <trkpt lat="45.701295901089907" lon="10.117893721908331">
        <ele>322.18000000000001</ele>
        <time>2014-05-11T09:31:40Z</time>
      </trkpt>
      <trkpt lat="45.701311407610774" lon="10.117868408560753">
        <ele>321.69999999999999</ele>
        <time>2014-05-11T09:31:42Z</time>
      </trkpt>
      <trkpt lat="45.701422048732638" lon="10.117770759388804">
        <ele>321.22000000000003</ele>
        <time>2014-05-11T09:31:54Z</time>
      </trkpt>
      <trkpt lat="45.701430179178715" lon="10.117736561223865">
        <ele>320.25999999999999</ele>
        <time>2014-05-11T09:32:04Z</time>
      </trkpt>
      <trkpt lat="45.701554231345654" lon="10.117670008912683">
        <ele>318.32999999999998</ele>
        <time>2014-05-11T09:32:15Z</time>
      </trkpt>
      <trkpt lat="45.701663866639137" lon="10.117614353075624">
        <ele>315.93000000000001</ele>
        <time>2014-05-11T09:32:25Z</time>
      </trkpt>
      <trkpt lat="45.701677277684212" lon="10.117608066648245">
        <ele>315.93000000000001</ele>
        <time>2014-05-11T09:32:26Z</time>
      </trkpt>
      <trkpt lat="45.701807700097561" lon="10.117581496015191">
        <ele>313.52999999999997</ele>
        <time>2014-05-11T09:32:36Z</time>
      </trkpt>
      <trkpt lat="45.701902834698558" lon="10.117535898461938">
        <ele>312.08999999999997</ele>
        <time>2014-05-11T09:32:44Z</time>
      </trkpt>
      <trkpt lat="45.701961256563663" lon="10.117501029744744">
        <ele>310.63999999999999</ele>
        <time>2014-05-11T09:32:50Z</time>
      </trkpt>
      <trkpt lat="45.701978774741292" lon="10.117498347535729">
        <ele>310.63999999999999</ele>
        <time>2014-05-11T09:32:51Z</time>
      </trkpt>
      <trkpt lat="45.701990174129605" lon="10.117493150755763">
        <ele>310.16000000000003</ele>
        <time>2014-05-11T09:32:52Z</time>
      </trkpt>
      <trkpt lat="45.702043231576681" lon="10.117453504353762">
        <ele>308.72000000000003</ele>
        <time>2014-05-11T09:32:58Z</time>
      </trkpt>
      <trkpt lat="45.702059911563993" lon="10.117453755810857">
        <ele>308.72000000000003</ele>
        <time>2014-05-11T09:32:59Z</time>
      </trkpt>
      <trkpt lat="45.702192345634103" lon="10.117435650900006">
        <ele>306.80000000000001</ele>
        <time>2014-05-11T09:33:10Z</time>
      </trkpt>
      <trkpt lat="45.702243559062481" lon="10.117379073053598">
        <ele>305.83999999999997</ele>
        <time>2014-05-11T09:33:33Z</time>
      </trkpt>
      <trkpt lat="45.702274153009057" lon="10.117378318682313">
        <ele>305.36000000000001</ele>
        <time>2014-05-11T09:33:40Z</time>
      </trkpt>
      <trkpt lat="45.702286055311561" lon="10.117373960092664">
        <ele>304.88</ele>
        <time>2014-05-11T09:33:41Z</time>
      </trkpt>
      <trkpt lat="45.702296616509557" lon="10.117365159094334">
        <ele>304.88</ele>
        <time>2014-05-11T09:33:42Z</time>
      </trkpt>
      <trkpt lat="45.702403234317899" lon="10.117278071120381">
        <ele>301.99000000000001</ele>
        <time>2014-05-11T09:33:54Z</time>
      </trkpt>
      <trkpt lat="45.70241404697299" lon="10.11727262288332">
        <ele>301.99000000000001</ele>
        <time>2014-05-11T09:33:55Z</time>
      </trkpt>
      <trkpt lat="45.70247950963676" lon="10.117256864905357">
        <ele>300.06999999999999</ele>
        <time>2014-05-11T09:34:08Z</time>
      </trkpt>
      <trkpt lat="45.702497363090515" lon="10.117231216281652">
        <ele>300.55000000000001</ele>
        <time>2014-05-11T09:34:11Z</time>
      </trkpt>
      <trkpt lat="45.702508594840765" lon="10.117226019501686">
        <ele>300.06999999999999</ele>
        <time>2014-05-11T09:34:12Z</time>
      </trkpt>
      <trkpt lat="45.702625270932913" lon="10.117156952619553">
        <ele>297.18000000000001</ele>
        <time>2014-05-11T09:34:22Z</time>
      </trkpt>
      <trkpt lat="45.70275217294693" lon="10.117164496332407">
        <ele>294.77999999999997</ele>
        <time>2014-05-11T09:34:32Z</time>
      </trkpt>
      <trkpt lat="45.702873459085822" lon="10.117131806910038">
        <ele>292.38</ele>
        <time>2014-05-11T09:34:43Z</time>
      </trkpt>
      <trkpt lat="45.702923918142915" lon="10.117134405300021">
        <ele>291.42000000000002</ele>
        <time>2014-05-11T09:34:48Z</time>
      </trkpt>
      <trkpt lat="45.702935652807355" lon="10.117130214348435">
        <ele>291.42000000000002</ele>
        <time>2014-05-11T09:34:49Z</time>
      </trkpt>
      <trkpt lat="45.703086107969284" lon="10.117096519097686">
        <ele>289.49000000000001</ele>
        <time>2014-05-11T09:35:02Z</time>
      </trkpt>
      <trkpt lat="45.703173195943236" lon="10.117118982598186">
        <ele>289.00999999999999</ele>
        <time>2014-05-11T09:35:09Z</time>
      </trkpt>
      <trkpt lat="45.703266067430377" lon="10.117160389199853">
        <ele>288.52999999999997</ele>
        <time>2014-05-11T09:35:17Z</time>
      </trkpt>
      <trkpt lat="45.703278975561261" lon="10.117172040045261">
        <ele>288.05000000000001</ele>
        <time>2014-05-11T09:35:18Z</time>
      </trkpt>
      <trkpt lat="45.703295404091477" lon="10.117186540737748">
        <ele>288.05000000000001</ele>
        <time>2014-05-11T09:35:19Z</time>
      </trkpt>
      <trkpt lat="45.703314179554582" lon="10.117200622335076">
        <ele>288.05000000000001</ele>
        <time>2014-05-11T09:35:20Z</time>
      </trkpt>
      <trkpt lat="45.703330859541893" lon="10.117213279008865">
        <ele>288.05000000000001</ele>
        <time>2014-05-11T09:35:21Z</time>
      </trkpt>
      <trkpt lat="45.703463377431035" lon="10.117322746664286">
        <ele>287.08999999999997</ele>
        <time>2014-05-11T09:35:32Z</time>
      </trkpt>
      <trkpt lat="45.703556332737207" lon="10.117388879880309">
        <ele>285.64999999999998</ele>
        <time>2014-05-11T09:35:42Z</time>
      </trkpt>
      <trkpt lat="45.703591201454401" lon="10.117411846294999">
        <ele>285.17000000000002</ele>
        <time>2014-05-11T09:35:45Z</time>
      </trkpt>
      <trkpt lat="45.703611569479108" lon="10.117427604272962">
        <ele>284.69</ele>
        <time>2014-05-11T09:35:47Z</time>
      </trkpt>
      <trkpt lat="45.703621795400977" lon="10.117424419149756">
        <ele>284.69</ele>
        <time>2014-05-11T09:35:48Z</time>
      </trkpt>
      <trkpt lat="45.703814746811986" lon="10.117490636184812">
        <ele>282.76999999999998</ele>
        <time>2014-05-11T09:36:03Z</time>
      </trkpt>
      <trkpt lat="45.703839473426342" lon="10.117513854056597">
        <ele>282.27999999999997</ele>
        <time>2014-05-11T09:36:06Z</time>
      </trkpt>
      <trkpt lat="45.703848358243704" lon="10.117532713338733">
        <ele>282.27999999999997</ele>
        <time>2014-05-11T09:36:07Z</time>
      </trkpt>
      <trkpt lat="45.703856572508812" lon="10.117546292021871">
        <ele>282.27999999999997</ele>
        <time>2014-05-11T09:36:08Z</time>
      </trkpt>
      <trkpt lat="45.703870402649045" lon="10.117556685581803">
        <ele>282.27999999999997</ele>
        <time>2014-05-11T09:36:09Z</time>
      </trkpt>
      <trkpt lat="45.70388238877058" lon="10.11756288819015">
        <ele>281.80000000000001</ele>
        <time>2014-05-11T09:36:10Z</time>
      </trkpt>
      <trkpt lat="45.703938212245703" lon="10.117607396095991">
        <ele>281.31999999999999</ele>
        <time>2014-05-11T09:36:16Z</time>
      </trkpt>
      <trkpt lat="45.703950366005301" lon="10.117612006142735">
        <ele>281.31999999999999</ele>
        <time>2014-05-11T09:36:17Z</time>
      </trkpt>
      <trkpt lat="45.703964112326503" lon="10.117619214579463">
        <ele>281.31999999999999</ele>
        <time>2014-05-11T09:36:18Z</time>
      </trkpt>
      <trkpt lat="45.703979870304465" lon="10.117626171559095">
        <ele>281.31999999999999</ele>
        <time>2014-05-11T09:36:19Z</time>
      </trkpt>
      <trkpt lat="45.703993616625667" lon="10.117630697786808">
        <ele>281.31999999999999</ele>
        <time>2014-05-11T09:36:20Z</time>
      </trkpt>
      <trkpt lat="45.704004010185599" lon="10.117629440501332">
        <ele>281.31999999999999</ele>
        <time>2014-05-11T09:36:21Z</time>
      </trkpt>
      <trkpt lat="45.704014487564564" lon="10.117621477693319">
        <ele>281.31999999999999</ele>
        <time>2014-05-11T09:36:22Z</time>
      </trkpt>
      <trkpt lat="45.704029323533177" lon="10.117614855989814">
        <ele>280.83999999999997</ele>
        <time>2014-05-11T09:36:23Z</time>
      </trkpt>
      <trkpt lat="45.704153375700116" lon="10.117616364732385">
        <ele>280.36000000000001</ele>
        <time>2014-05-11T09:36:35Z</time>
      </trkpt>
      <trkpt lat="45.704255802556872" lon="10.11760194785893">
        <ele>279.88</ele>
        <time>2014-05-11T09:36:43Z</time>
      </trkpt>
      <trkpt lat="45.704341130331159" lon="10.117493821308017">
        <ele>279.88</ele>
        <time>2014-05-11T09:36:52Z</time>
      </trkpt>
      <trkpt lat="45.70434607565403" lon="10.117477560415864">
        <ele>279.39999999999998</ele>
        <time>2014-05-11T09:36:53Z</time>
      </trkpt>
      <trkpt lat="45.704352613538504" lon="10.117459958419204">
        <ele>279.39999999999998</ele>
        <time>2014-05-11T09:36:54Z</time>
      </trkpt>
      <trkpt lat="45.704458728432655" lon="10.117242867127061">
        <ele>277.95999999999998</ele>
        <time>2014-05-11T09:37:09Z</time>
      </trkpt>
      <trkpt lat="45.704557551071048" lon="10.117064081132412">
        <ele>277</ele>
        <time>2014-05-11T09:37:20Z</time>
      </trkpt>
      <trkpt lat="45.704814959317446" lon="10.116867776960135">
        <ele>274.58999999999997</ele>
        <time>2014-05-11T09:37:48Z</time>
      </trkpt>
      <trkpt lat="45.705028278753161" lon="10.116760237142444">
        <ele>272.19</ele>
        <time>2014-05-11T09:38:13Z</time>
      </trkpt>
      <trkpt lat="45.705041773617268" lon="10.116669712588191">
        <ele>271.70999999999998</ele>
        <time>2014-05-11T09:38:39Z</time>
      </trkpt>
      <trkpt lat="45.705095082521439" lon="10.116648506373167">
        <ele>270.75</ele>
        <time>2014-05-11T09:38:59Z</time>
      </trkpt>
      <trkpt lat="45.705214692279696" lon="10.116665353998542">
        <ele>269.31</ele>
        <time>2014-05-11T09:39:18Z</time>
      </trkpt>
      <trkpt lat="45.705237910151482" lon="10.116695528849959">
        <ele>268.82999999999998</ele>
        <time>2014-05-11T09:39:28Z</time>
      </trkpt>
      <trkpt lat="45.705280741676688" lon="10.116632832214236">
        <ele>268.35000000000002</ele>
        <time>2014-05-11T09:39:39Z</time>
      </trkpt>
      <trkpt lat="45.705288536846638" lon="10.116620426997542">
        <ele>268.35000000000002</ele>
        <time>2014-05-11T09:39:40Z</time>
      </trkpt>
      <trkpt lat="45.705319130793214" lon="10.116598131135106">
        <ele>267.38</ele>
        <time>2014-05-11T09:39:44Z</time>
      </trkpt>
      <trkpt lat="45.705334218218923" lon="10.116595700383186">
        <ele>267.38</ele>
        <time>2014-05-11T09:39:45Z</time>
      </trkpt>
      <trkpt lat="45.705454582348466" lon="10.116568710654974">
        <ele>265.94</ele>
        <time>2014-05-11T09:39:57Z</time>
      </trkpt>
      <trkpt lat="45.70555541664362" lon="10.116474581882358">
        <ele>264.5</ele>
        <time>2014-05-11T09:40:08Z</time>
      </trkpt>
      <trkpt lat="45.705579724162817" lon="10.11644977144897">
        <ele>264.5</ele>
        <time>2014-05-11T09:40:10Z</time>
      </trkpt>
      <trkpt lat="45.705596823245287" lon="10.116420853883028">
        <ele>263.54000000000002</ele>
        <time>2014-05-11T09:40:14Z</time>
      </trkpt>
      <trkpt lat="45.705613922327757" lon="10.116398558020592">
        <ele>263.54000000000002</ele>
        <time>2014-05-11T09:40:16Z</time>
      </trkpt>
      <trkpt lat="45.705621633678675" lon="10.116385985165834">
        <ele>263.06</ele>
        <time>2014-05-11T09:40:17Z</time>
      </trkpt>
      <trkpt lat="45.705629680305719" lon="10.116374585777521">
        <ele>263.06</ele>
        <time>2014-05-11T09:40:18Z</time>
      </trkpt>
      <trkpt lat="45.705691957846284" lon="10.116262352094054">
        <ele>261.13999999999999</ele>
        <time>2014-05-11T09:40:31Z</time>
      </trkpt>
      <trkpt lat="45.705746775493026" lon="10.116306440904737">
        <ele>260.64999999999998</ele>
        <time>2014-05-11T09:40:46Z</time>
      </trkpt>
      <trkpt lat="45.705764545127749" lon="10.116313565522432">
        <ele>260.64999999999998</ele>
        <time>2014-05-11T09:41:02Z</time>
      </trkpt>
      <trkpt lat="45.70575188845396" lon="10.116298561915755">
        <ele>260.64999999999998</ele>
        <time>2014-05-11T09:41:25Z</time>
      </trkpt>
      <trkpt lat="45.705811148509383" lon="10.116467289626598">
        <ele>260.64999999999998</ele>
        <time>2014-05-11T09:41:43Z</time>
      </trkpt>
      <trkpt lat="45.705838138237596" lon="10.116495117545128">
        <ele>261.62</ele>
        <time>2014-05-11T09:41:46Z</time>
      </trkpt>
      <trkpt lat="45.705860937014222" lon="10.116514060646296">
        <ele>261.62</ele>
        <time>2014-05-11T09:41:47Z</time>
      </trkpt>
      <trkpt lat="45.705915754660964" lon="10.116595784202218">
        <ele>262.10000000000002</ele>
        <time>2014-05-11T09:42:02Z</time>
      </trkpt>
      <trkpt lat="45.705940145999193" lon="10.116665018722415">
        <ele>262.10000000000002</ele>
        <time>2014-05-11T09:42:18Z</time>
      </trkpt>
      <trkpt lat="45.705938721075654" lon="10.116728553548455">
        <ele>262.10000000000002</ele>
        <time>2014-05-11T09:42:42Z</time>
      </trkpt>
      <trkpt lat="45.70600837469101" lon="10.11671707034111">
        <ele>262.57999999999998</ele>
        <time>2014-05-11T09:43:00Z</time>
      </trkpt>
      <trkpt lat="45.70605137385428" lon="10.116672730073333">
        <ele>262.57999999999998</ele>
        <time>2014-05-11T09:43:22Z</time>
      </trkpt>
      <trkpt lat="45.706018013879657" lon="10.116642639040947">
        <ele>262.57999999999998</ele>
        <time>2014-05-11T09:43:37Z</time>
      </trkpt>
      <trkpt lat="45.706063779070973" lon="10.116740372031927">
        <ele>263.06</ele>
        <time>2014-05-11T09:43:55Z</time>
      </trkpt>
      <trkpt lat="45.70607878267765" lon="10.116760153323412">
        <ele>263.54000000000002</ele>
        <time>2014-05-11T09:44:15Z</time>
      </trkpt>
      <trkpt lat="45.706080542877316" lon="10.116784125566483">
        <ele>263.54000000000002</ele>
        <time>2014-05-11T09:44:29Z</time>
      </trkpt>
      <trkpt lat="45.706079034134746" lon="10.116798374801874">
        <ele>263.54000000000002</ele>
        <time>2014-05-11T09:44:49Z</time>
      </trkpt>
      <trkpt lat="45.706081464886665" lon="10.116799296811223">
        <ele>263.06</ele>
        <time>2014-05-11T09:45:13Z</time>
      </trkpt>
      <trkpt lat="45.706098563969135" lon="10.116821005940437">
        <ele>263.54000000000002</ele>
        <time>2014-05-11T09:45:40Z</time>
      </trkpt>
      <trkpt lat="45.706173665821552" lon="10.116827208548784">
        <ele>264.01999999999998</ele>
        <time>2014-05-11T09:46:00Z</time>
      </trkpt>
      <trkpt lat="45.706146927550435" lon="10.116841876879334">
        <ele>264.01999999999998</ele>
        <time>2014-05-11T09:46:22Z</time>
      </trkpt>
      <trkpt lat="45.706154052168131" lon="10.11685486882925">
        <ele>264.5</ele>
        <time>2014-05-11T09:46:43Z</time>
      </trkpt>
      <trkpt lat="45.706128068268299" lon="10.11679376475513">
        <ele>264.5</ele>
        <time>2014-05-11T09:47:05Z</time>
      </trkpt>
      <trkpt lat="45.706190932542086" lon="10.116874650120735">
        <ele>264.98000000000002</ele>
        <time>2014-05-11T09:47:31Z</time>
      </trkpt>
      <trkpt lat="45.706139048561454" lon="10.116822263225913">
        <ele>264.98000000000002</ele>
        <time>2014-05-11T09:47:45Z</time>
      </trkpt>
      <trkpt lat="45.70614667609334" lon="10.116826705634594">
        <ele>264.98000000000002</ele>
        <time>2014-05-11T09:48:01Z</time>
      </trkpt>
      <trkpt lat="45.706100994721055" lon="10.116751519963145">
        <ele>264.98000000000002</ele>
        <time>2014-05-11T09:48:13Z</time>
      </trkpt>
      <trkpt lat="45.706088338047266" lon="10.116730146110058">
        <ele>263.54000000000002</ele>
        <time>2014-05-11T09:48:15Z</time>
      </trkpt>
      <trkpt lat="45.706053469330072" lon="10.116673484444618">
        <ele>263.54000000000002</ele>
        <time>2014-05-11T09:48:29Z</time>
      </trkpt>
      <trkpt lat="45.706049194559455" lon="10.116630904376507">
        <ele>263.54000000000002</ele>
        <time>2014-05-11T09:48:45Z</time>
      </trkpt>
      <trkpt lat="45.706055983901024" lon="10.116615314036608">
        <ele>263.54000000000002</ele>
        <time>2014-05-11T09:48:49Z</time>
      </trkpt>
      <trkpt lat="45.706102252006531" lon="10.116586061194539">
        <ele>263.06</ele>
        <time>2014-05-11T09:49:01Z</time>
      </trkpt>
      <trkpt lat="45.705970069393516" lon="10.116545408964157">
        <ele>263.06</ele>
        <time>2014-05-11T09:49:16Z</time>
      </trkpt>
      <trkpt lat="45.70594978518784" lon="10.116519508883357">
        <ele>262.57999999999998</ele>
        <time>2014-05-11T09:49:19Z</time>
      </trkpt>
      <trkpt lat="45.705938804894686" lon="10.1165103726089">
        <ele>262.57999999999998</ele>
        <time>2014-05-11T09:49:20Z</time>
      </trkpt>
      <trkpt lat="45.705786421895027" lon="10.116393025964499">
        <ele>262.10000000000002</ele>
        <time>2014-05-11T09:49:36Z</time>
      </trkpt>
      <trkpt lat="45.705787762999535" lon="10.116376597434282">
        <ele>261.62</ele>
        <time>2014-05-11T09:49:37Z</time>
      </trkpt>
      <trkpt lat="45.705794217064977" lon="10.116359833627939">
        <ele>261.62</ele>
        <time>2014-05-11T09:49:38Z</time>
      </trkpt>
      <trkpt lat="45.705798994749784" lon="10.116344830021262">
        <ele>261.62</ele>
        <time>2014-05-11T09:49:39Z</time>
      </trkpt>
      <trkpt lat="45.705802934244275" lon="10.116328820586205">
        <ele>261.62</ele>
        <time>2014-05-11T09:49:40Z</time>
      </trkpt>
      <trkpt lat="45.705871833488345" lon="10.116131342947483">
        <ele>258.73000000000002</ele>
        <time>2014-05-11T09:49:54Z</time>
      </trkpt>
      <trkpt lat="45.705873342230916" lon="10.116106532514095">
        <ele>258.25</ele>
        <time>2014-05-11T09:49:55Z</time>
      </trkpt>
      <trkpt lat="45.705873509868979" lon="10.116075938567519">
        <ele>258.25</ele>
        <time>2014-05-11T09:49:56Z</time>
      </trkpt>
      <trkpt lat="45.705874767154455" lon="10.11604811064899">
        <ele>258.25</ele>
        <time>2014-05-11T09:49:57Z</time>
      </trkpt>
      <trkpt lat="45.705873342230916" lon="10.116008128970861">
        <ele>257.76999999999998</ele>
        <time>2014-05-11T09:49:59Z</time>
      </trkpt>
      <trkpt lat="45.705975014716387" lon="10.11586002074182">
        <ele>255.37</ele>
        <time>2014-05-11T09:50:10Z</time>
      </trkpt>
      <trkpt lat="45.706047937273979" lon="10.115730101242661">
        <ele>253.93000000000001</ele>
        <time>2014-05-11T09:50:18Z</time>
      </trkpt>
      <trkpt lat="45.706052631139755" lon="10.115704368799925">
        <ele>253.93000000000001</ele>
        <time>2014-05-11T09:50:19Z</time>
      </trkpt>
      <trkpt lat="45.706056905910373" lon="10.115684000775218">
        <ele>253.93000000000001</ele>
        <time>2014-05-11T09:50:20Z</time>
      </trkpt>
      <trkpt lat="45.706108286976814" lon="10.115538910031319">
        <ele>252.47999999999999</ele>
        <time>2014-05-11T09:50:29Z</time>
      </trkpt>
      <trkpt lat="45.706134689971805" lon="10.115452324971557">
        <ele>251.52000000000001</ele>
        <time>2014-05-11T09:50:36Z</time>
      </trkpt>
      <trkpt lat="45.70613888092339" lon="10.115435142070055">
        <ele>251.03999999999999</ele>
        <time>2014-05-11T09:50:37Z</time>
      </trkpt>
      <trkpt lat="45.706201661378145" lon="10.115225426852703">
        <ele>249.12</ele>
        <time>2014-05-11T09:50:48Z</time>
      </trkpt>
      <trkpt lat="45.706182718276978" lon="10.114918146282434">
        <ele>246.72</ele>
        <time>2014-05-11T09:51:06Z</time>
      </trkpt>
      <trkpt lat="45.706251198425889" lon="10.114629473537207">
        <ele>243.34999999999999</ele>
        <time>2014-05-11T09:51:22Z</time>
      </trkpt>
      <trkpt lat="45.706275925040245" lon="10.114594604820013">
        <ele>242.38999999999999</ele>
        <time>2014-05-11T09:51:26Z</time>
      </trkpt>
      <trkpt lat="45.706292185932398" lon="10.114579685032368">
        <ele>242.38999999999999</ele>
        <time>2014-05-11T09:51:27Z</time>
      </trkpt>
      <trkpt lat="45.706400061026216" lon="10.114468205720186">
        <ele>240.94999999999999</ele>
        <time>2014-05-11T09:51:35Z</time>
      </trkpt>
      <trkpt lat="45.706409867852926" lon="10.114455716684461">
        <ele>240.94999999999999</ele>
        <time>2014-05-11T09:51:36Z</time>
      </trkpt>
      <trkpt lat="45.706422859802842" lon="10.114444401115179">
        <ele>240.47</ele>
        <time>2014-05-11T09:51:37Z</time>
      </trkpt>
      <trkpt lat="45.706433169543743" lon="10.114436103031039">
        <ele>240.47</ele>
        <time>2014-05-11T09:51:38Z</time>
      </trkpt>
      <trkpt lat="45.706447921693325" lon="10.114425625652075">
        <ele>240.47</ele>
        <time>2014-05-11T09:51:39Z</time>
      </trkpt>
      <trkpt lat="45.706459069624543" lon="10.114413388073444">
        <ele>239.99000000000001</ele>
        <time>2014-05-11T09:51:40Z</time>
      </trkpt>
      <trkpt lat="45.706554120406508" lon="10.114342560991645">
        <ele>238.53999999999999</ele>
        <time>2014-05-11T09:51:52Z</time>
      </trkpt>
      <trkpt lat="45.706644058227539" lon="10.114165199920535">
        <ele>236.62</ele>
        <time>2014-05-11T09:52:05Z</time>
      </trkpt>
      <trkpt lat="45.706698540598154" lon="10.11403008364141">
        <ele>235.18000000000001</ele>
        <time>2014-05-11T09:52:14Z</time>
      </trkpt>
      <trkpt lat="45.70670080371201" lon="10.11401298455894">
        <ele>234.69999999999999</ele>
        <time>2014-05-11T09:52:15Z</time>
      </trkpt>
      <trkpt lat="45.706707090139389" lon="10.11399295181036">
        <ele>234.69999999999999</ele>
        <time>2014-05-11T09:52:16Z</time>
      </trkpt>
      <trkpt lat="45.706748832017183" lon="10.113783236593008">
        <ele>232.78</ele>
        <time>2014-05-11T09:52:27Z</time>
      </trkpt>
      <trkpt lat="45.7067945972085" lon="10.113597325980663">
        <ele>230.84999999999999</ele>
        <time>2014-05-11T09:52:37Z</time>
      </trkpt>
      <trkpt lat="45.706873051822186" lon="10.113483751192689">
        <ele>228.93000000000001</ele>
        <time>2014-05-11T09:52:46Z</time>
      </trkpt>
      <trkpt lat="45.706892078742385" lon="10.113477045670152">
        <ele>228.44999999999999</ele>
        <time>2014-05-11T09:52:47Z</time>
      </trkpt>
      <trkpt lat="45.706960642710328" lon="10.113446535542607">
        <ele>227.97</ele>
        <time>2014-05-11T09:52:51Z</time>
      </trkpt>
      <trkpt lat="45.706973550841212" lon="10.113351903855801">
        <ele>226.05000000000001</ele>
        <time>2014-05-11T09:52:58Z</time>
      </trkpt>
      <trkpt lat="45.706979166716337" lon="10.11333379894495">
        <ele>226.05000000000001</ele>
        <time>2014-05-11T09:52:59Z</time>
      </trkpt>
      <trkpt lat="45.706987380981445" lon="10.113315861672163">
        <ele>226.05000000000001</ele>
        <time>2014-05-11T09:53:00Z</time>
      </trkpt>
      <trkpt lat="45.706997942179441" lon="10.113294571638107">
        <ele>225.56999999999999</ele>
        <time>2014-05-11T09:53:01Z</time>
      </trkpt>
      <trkpt lat="45.707010934129357" lon="10.11327126994729">
        <ele>225.56999999999999</ele>
        <time>2014-05-11T09:53:02Z</time>
      </trkpt>
      <trkpt lat="45.707023004069924" lon="10.113249476999044">
        <ele>225.56999999999999</ele>
        <time>2014-05-11T09:53:03Z</time>
      </trkpt>
      <trkpt lat="45.707040019333363" lon="10.11322776786983">
        <ele>225.09</ele>
        <time>2014-05-11T09:53:04Z</time>
      </trkpt>
      <trkpt lat="45.707058124244213" lon="10.113208489492536">
        <ele>225.09</ele>
        <time>2014-05-11T09:53:05Z</time>
      </trkpt>
      <trkpt lat="45.707072876393795" lon="10.113192647695541">
        <ele>225.09</ele>
        <time>2014-05-11T09:53:06Z</time>
      </trkpt>
      <trkpt lat="45.707084778696299" lon="10.11317940428853">
        <ele>225.09</ele>
        <time>2014-05-11T09:53:07Z</time>
      </trkpt>
      <trkpt lat="45.707094166427851" lon="10.113169346004725">
        <ele>224.61000000000001</ele>
        <time>2014-05-11T09:53:08Z</time>
      </trkpt>
      <trkpt lat="45.707146301865578" lon="10.113140512257814">
        <ele>224.12</ele>
        <time>2014-05-11T09:53:15Z</time>
      </trkpt>
      <trkpt lat="45.707163065671921" lon="10.113136908039451">
        <ele>224.12</ele>
        <time>2014-05-11T09:53:16Z</time>
      </trkpt>
      <trkpt lat="45.707335900515318" lon="10.113111007958651">
        <ele>222.19999999999999</ele>
        <time>2014-05-11T09:53:29Z</time>
      </trkpt>
      <trkpt lat="45.707386359572411" lon="10.113106397911906">
        <ele>221.72</ele>
        <time>2014-05-11T09:53:33Z</time>
      </trkpt>
      <trkpt lat="45.707398764789104" lon="10.113110924139619">
        <ele>221.72</ele>
        <time>2014-05-11T09:53:34Z</time>
      </trkpt>
      <trkpt lat="45.707412678748369" lon="10.113118467852473">
        <ele>221.72</ele>
        <time>2014-05-11T09:53:35Z</time>
      </trkpt>
      <trkpt lat="45.707424916327" lon="10.113123580813408">
        <ele>221.72</ele>
        <time>2014-05-11T09:53:36Z</time>
      </trkpt>
      <trkpt lat="45.707436734810472" lon="10.113125508651137">
        <ele>221.72</ele>
        <time>2014-05-11T09:53:37Z</time>
      </trkpt>
      <trkpt lat="45.70772004313767" lon="10.113152246922255">
        <ele>219.80000000000001</ele>
        <time>2014-05-11T09:53:52Z</time>
      </trkpt>
      <trkpt lat="45.707926237955689" lon="10.112938089296222">
        <ele>217.88</ele>
        <time>2014-05-11T09:54:10Z</time>
      </trkpt>
      <trkpt lat="45.708060935139656" lon="10.112825436517596">
        <ele>216.91</ele>
        <time>2014-05-11T09:54:25Z</time>
      </trkpt>
      <trkpt lat="45.708243157714605" lon="10.112619241699576">
        <ele>215.94999999999999</ele>
        <time>2014-05-11T09:54:42Z</time>
      </trkpt>
      <trkpt lat="45.70855563506484" lon="10.112307434901595">
        <ele>213.06999999999999</ele>
        <time>2014-05-11T09:55:03Z</time>
      </trkpt>
      <trkpt lat="45.708707934245467" lon="10.112140299752355">
        <ele>211.63</ele>
        <time>2014-05-11T09:55:17Z</time>
      </trkpt>
      <trkpt lat="45.708823101595044" lon="10.111993364989758">
        <ele>210.66999999999999</ele>
        <time>2014-05-11T09:55:30Z</time>
      </trkpt>
      <trkpt lat="45.708823688328266" lon="10.111976685002446">
        <ele>210.66999999999999</ele>
        <time>2014-05-11T09:55:31Z</time>
      </trkpt>
      <trkpt lat="45.708823017776012" lon="10.111955143511295">
        <ele>210.19</ele>
        <time>2014-05-11T09:55:32Z</time>
      </trkpt>
      <trkpt lat="45.708823185414076" lon="10.11193385347724">
        <ele>210.19</ele>
        <time>2014-05-11T09:55:33Z</time>
      </trkpt>
      <trkpt lat="45.708821006119251" lon="10.11191239580512">
        <ele>210.19</ele>
        <time>2014-05-11T09:55:34Z</time>
      </trkpt>
      <trkpt lat="45.708767361938953" lon="10.111589021980762">
        <ele>207.30000000000001</ele>
        <time>2014-05-11T09:55:51Z</time>
      </trkpt>
      <trkpt lat="45.708757387474179" lon="10.111388945952058">
        <ele>207.30000000000001</ele>
        <time>2014-05-11T09:56:04Z</time>
      </trkpt>
      <trkpt lat="45.708915051072836" lon="10.111333373934031">
        <ele>207.30000000000001</ele>
        <time>2014-05-11T09:56:19Z</time>
      </trkpt>
      <trkpt lat="45.709058633074164" lon="10.111354580149055">
        <ele>207.30000000000001</ele>
        <time>2014-05-11T09:56:29Z</time>
      </trkpt>
      <trkpt lat="45.709136417135596" lon="10.111278472468257">
        <ele>207.30000000000001</ele>
        <time>2014-05-11T09:56:34Z</time>
      </trkpt>
      <trkpt lat="45.709148403257132" lon="10.111253829672933">
        <ele>206.81999999999999</ele>
        <time>2014-05-11T09:56:35Z</time>
      </trkpt>
      <trkpt lat="45.709155108779669" lon="10.111228516325355">
        <ele>206.81999999999999</ele>
        <time>2014-05-11T09:56:36Z</time>
      </trkpt>
      <trkpt lat="45.709158880636096" lon="10.111210998147726">
        <ele>206.81999999999999</ele>
        <time>2014-05-11T09:56:37Z</time>
      </trkpt>
      <trkpt lat="45.70916349068284" lon="10.111163221299648">
        <ele>206.81999999999999</ele>
        <time>2014-05-11T09:56:43Z</time>
      </trkpt>
      <trkpt lat="45.709165669977665" lon="10.111144781112671">
        <ele>206.81999999999999</ele>
        <time>2014-05-11T09:56:44Z</time>
      </trkpt>
      <trkpt lat="45.709168016910553" lon="10.111122820526361">
        <ele>206.81999999999999</ele>
        <time>2014-05-11T09:56:45Z</time>
      </trkpt>
      <trkpt lat="45.709159383550286" lon="10.11108317412436">
        <ele>206.81999999999999</ele>
        <time>2014-05-11T09:56:49Z</time>
      </trkpt>
      <trkpt lat="45.709152510389686" lon="10.111063309013844">
        <ele>206.81999999999999</ele>
        <time>2014-05-11T09:56:50Z</time>
      </trkpt>
      <trkpt lat="45.709144631400704" lon="10.111039085313678">
        <ele>206.81999999999999</ele>
        <time>2014-05-11T09:56:51Z</time>
      </trkpt>
      <trkpt lat="45.709136165678501" lon="10.111020309850574">
        <ele>206.81999999999999</ele>
        <time>2014-05-11T09:56:52Z</time>
      </trkpt>
      <trkpt lat="45.709139183163643" lon="10.111006228253245">
        <ele>206.34</ele>
        <time>2014-05-11T09:57:08Z</time>
      </trkpt>
      <trkpt lat="45.709148487076163" lon="10.111005892977118">
        <ele>206.34</ele>
        <time>2014-05-11T09:57:09Z</time>
      </trkpt>
      <trkpt lat="45.709161814302206" lon="10.111005222424865">
        <ele>206.34</ele>
        <time>2014-05-11T09:57:10Z</time>
      </trkpt>
      <trkpt lat="45.709303636103868" lon="10.110963983461261">
        <ele>206.34</ele>
        <time>2014-05-11T09:57:23Z</time>
      </trkpt>
      <trkpt lat="45.709455767646432" lon="10.110926516354084">
        <ele>205.86000000000001</ele>
        <time>2014-05-11T09:57:35Z</time>
      </trkpt>
      <trkpt lat="45.709467083215714" lon="10.110921654850245">
        <ele>205.86000000000001</ele>
        <time>2014-05-11T09:57:36Z</time>
      </trkpt>
      <trkpt lat="45.709482422098517" lon="10.110918805003166">
        <ele>205.86000000000001</ele>
        <time>2014-05-11T09:57:37Z</time>
      </trkpt>
      <trkpt lat="45.709727173671126" lon="10.110894665122032">
        <ele>204.90000000000001</ele>
        <time>2014-05-11T09:57:52Z</time>
      </trkpt>
      <trkpt lat="45.709985420107841" lon="10.110937748104334">
        <ele>204.41999999999999</ele>
        <time>2014-05-11T09:58:06Z</time>
      </trkpt>
      <trkpt lat="45.710067227482796" lon="10.110783688724041">
        <ele>203.46000000000001</ele>
        <time>2014-05-11T09:58:21Z</time>
      </trkpt>
      <trkpt lat="45.71007820777595" lon="10.110763236880302">
        <ele>203.46000000000001</ele>
        <time>2014-05-11T09:58:22Z</time>
      </trkpt>
      <trkpt lat="45.710173510015011" lon="10.110415136441588">
        <ele>202.00999999999999</ele>
        <time>2014-05-11T09:58:34Z</time>
      </trkpt>
      <trkpt lat="45.710172336548567" lon="10.110368030145764">
        <ele>200.56999999999999</ele>
        <time>2014-05-11T09:58:42Z</time>
      </trkpt>
      <trkpt lat="45.710168480873108" lon="10.110346991568804">
        <ele>200.56999999999999</ele>
        <time>2014-05-11T09:58:44Z</time>
      </trkpt>
      <trkpt lat="45.710164289921522" lon="10.11032628826797">
        <ele>200.09</ele>
        <time>2014-05-11T09:58:45Z</time>
      </trkpt>
      <trkpt lat="45.710161440074444" lon="10.110304830595851">
        <ele>200.09</ele>
        <time>2014-05-11T09:58:46Z</time>
      </trkpt>
      <trkpt lat="45.710160685703158" lon="10.110279349610209">
        <ele>199.61000000000001</ele>
        <time>2014-05-11T09:58:47Z</time>
      </trkpt>
      <trkpt lat="45.710160350427032" lon="10.110250432044268">
        <ele>199.61000000000001</ele>
        <time>2014-05-11T09:58:48Z</time>
      </trkpt>
      <trkpt lat="45.710156578570604" lon="10.110223526135087">
        <ele>199.61000000000001</ele>
        <time>2014-05-11T09:58:49Z</time>
      </trkpt>
      <trkpt lat="45.710155908018351" lon="10.110202068462968">
        <ele>199.61000000000001</ele>
        <time>2014-05-11T09:58:50Z</time>
      </trkpt>
      <trkpt lat="45.710156410932541" lon="10.110178347676992">
        <ele>198.65000000000001</ele>
        <time>2014-05-11T09:58:51Z</time>
      </trkpt>
      <trkpt lat="45.710152303799987" lon="10.110069718211889">
        <ele>197.21000000000001</ele>
        <time>2014-05-11T09:59:01Z</time>
      </trkpt>
      <trkpt lat="45.710241319611669" lon="10.109858242794871">
        <ele>195.77000000000001</ele>
        <time>2014-05-11T09:59:11Z</time>
      </trkpt>
      <trkpt lat="45.710230087861419" lon="10.109622878953815">
        <ele>195.28</ele>
        <time>2014-05-11T09:59:27Z</time>
      </trkpt>
      <trkpt lat="45.710222879424691" lon="10.109609132632613">
        <ele>195.28</ele>
        <time>2014-05-11T09:59:42Z</time>
      </trkpt>
      <trkpt lat="45.710217598825693" lon="10.109638469293714">
        <ele>195.28</ele>
        <time>2014-05-11T10:00:06Z</time>
      </trkpt>
      <trkpt lat="45.710201757028699" lon="10.109662441536784">
        <ele>196.25</ele>
        <time>2014-05-11T10:00:27Z</time>
      </trkpt>
      <trkpt lat="45.710169738158584" lon="10.109666464850307">
        <ele>196.25</ele>
        <time>2014-05-11T10:00:30Z</time>
      </trkpt>
      <trkpt lat="45.710002183914185" lon="10.109686832875013">
        <ele>196.25</ele>
        <time>2014-05-11T10:00:44Z</time>
      </trkpt>
      <trkpt lat="45.709952227771282" lon="10.109648946672678">
        <ele>195.28</ele>
        <time>2014-05-11T10:01:00Z</time>
      </trkpt>
      <trkpt lat="45.710003692656755" lon="10.109618352726102">
        <ele>194.80000000000001</ele>
        <time>2014-05-11T10:01:22Z</time>
      </trkpt>
      <trkpt lat="45.709975361824036" lon="10.109660848975182">
        <ele>194.80000000000001</ele>
        <time>2014-05-11T10:01:37Z</time>
      </trkpt>
      <trkpt lat="45.709967063739896" lon="10.109649784862995">
        <ele>194.80000000000001</ele>
        <time>2014-05-11T10:01:58Z</time>
      </trkpt>
      <trkpt lat="45.710017858073115" lon="10.109653389081359">
        <ele>194.80000000000001</ele>
        <time>2014-05-11T10:02:16Z</time>
      </trkpt>
      <trkpt lat="45.710032861679792" lon="10.109684066846967">
        <ele>194.80000000000001</ele>
        <time>2014-05-11T10:02:37Z</time>
      </trkpt>
      <trkpt lat="45.710136797279119" lon="10.109687000513077">
        <ele>194.80000000000001</ele>
        <time>2014-05-11T10:02:51Z</time>
      </trkpt>
      <trkpt lat="45.710143335163593" lon="10.109674427658319">
        <ele>194.80000000000001</ele>
        <time>2014-05-11T10:03:05Z</time>
      </trkpt>
      <trkpt lat="45.710170911625028" lon="10.109689850360155">
        <ele>194.80000000000001</ele>
        <time>2014-05-11T10:03:21Z</time>
      </trkpt>
      <trkpt lat="45.710201254114509" lon="10.109734944999218">
        <ele>194.80000000000001</ele>
        <time>2014-05-11T10:03:26Z</time>
      </trkpt>
      <trkpt lat="45.710212904959917" lon="10.109806526452303">
        <ele>194.80000000000001</ele>
        <time>2014-05-11T10:03:31Z</time>
      </trkpt>
      <trkpt lat="45.710127744823694" lon="10.109996292740107">
        <ele>197.21000000000001</ele>
        <time>2014-05-11T10:03:46Z</time>
      </trkpt>
      <trkpt lat="45.710110394284129" lon="10.110035520046949">
        <ele>197.21000000000001</ele>
        <time>2014-05-11T10:03:50Z</time>
      </trkpt>
      <trkpt lat="45.710145179182291" lon="10.110095366835594">
        <ele>198.16999999999999</ele>
        <time>2014-05-11T10:03:56Z</time>
      </trkpt>
      <trkpt lat="45.710162362083793" lon="10.110141048207879">
        <ele>198.65000000000001</ele>
        <time>2014-05-11T10:04:00Z</time>
      </trkpt>
      <trkpt lat="45.710182646289468" lon="10.110384123399854">
        <ele>200.56999999999999</ele>
        <time>2014-05-11T10:04:18Z</time>
      </trkpt>
      <trkpt lat="45.710178874433041" lon="10.110476575791836">
        <ele>201.53</ele>
        <time>2014-05-11T10:04:24Z</time>
      </trkpt>
      <trkpt lat="45.710152052342892" lon="10.110709592700005">
        <ele>203.46000000000001</ele>
        <time>2014-05-11T10:04:42Z</time>
      </trkpt>
      <trkpt lat="45.710084829479456" lon="10.1108393445611">
        <ele>204.41999999999999</ele>
        <time>2014-05-11T10:04:50Z</time>
      </trkpt>
      <trkpt lat="45.710044009611011" lon="10.110874464735389">
        <ele>204.41999999999999</ele>
        <time>2014-05-11T10:04:53Z</time>
      </trkpt>
      <trkpt lat="45.710027161985636" lon="10.110886786133051">
        <ele>204.41999999999999</ele>
        <time>2014-05-11T10:04:54Z</time>
      </trkpt>
      <trkpt lat="45.710014086216688" lon="10.11089600622654">
        <ele>204.41999999999999</ele>
        <time>2014-05-11T10:04:55Z</time>
      </trkpt>
      <trkpt lat="45.709967147558928" lon="10.110918302088976">
        <ele>204.41999999999999</ele>
        <time>2014-05-11T10:05:01Z</time>
      </trkpt>
      <trkpt lat="45.709948791190982" lon="10.110922157764435">
        <ele>204.41999999999999</ele>
        <time>2014-05-11T10:05:02Z</time>
      </trkpt>
      <trkpt lat="45.709928506985307" lon="10.110928192734718">
        <ele>204.41999999999999</ele>
        <time>2014-05-11T10:05:03Z</time>
      </trkpt>
      <trkpt lat="45.709912329912186" lon="10.110933557152748">
        <ele>204.41999999999999</ele>
        <time>2014-05-11T10:05:04Z</time>
      </trkpt>
      <trkpt lat="45.709883831441402" lon="10.110935233533382">
        <ele>204.41999999999999</ele>
        <time>2014-05-11T10:05:08Z</time>
      </trkpt>
      <trkpt lat="45.709871342405677" lon="10.110936155542731">
        <ele>204.90000000000001</ele>
        <time>2014-05-11T10:05:09Z</time>
      </trkpt>
      <trkpt lat="45.709637654945254" lon="10.110970856621861">
        <ele>205.86000000000001</ele>
        <time>2014-05-11T10:05:27Z</time>
      </trkpt>
      <trkpt lat="45.709374966099858" lon="10.111028272658587">
        <ele>206.81999999999999</ele>
        <time>2014-05-11T10:05:48Z</time>
      </trkpt>
      <trkpt lat="45.709266839548945" lon="10.111088454723358">
        <ele>207.30000000000001</ele>
        <time>2014-05-11T10:05:58Z</time>
      </trkpt>
      <trkpt lat="45.709198778495193" lon="10.111249638721347">
        <ele>207.30000000000001</ele>
        <time>2014-05-11T10:06:08Z</time>
      </trkpt>
      <trkpt lat="45.709136165678501" lon="10.111447954550385">
        <ele>208.25999999999999</ele>
        <time>2014-05-11T10:06:21Z</time>
      </trkpt>
      <trkpt lat="45.709078833460808" lon="10.111737884581089">
        <ele>210.66999999999999</ele>
        <time>2014-05-11T10:06:43Z</time>
      </trkpt>
      <trkpt lat="45.709006832912564" lon="10.111918179318309">
        <ele>211.15000000000001</ele>
        <time>2014-05-11T10:06:55Z</time>
      </trkpt>
      <trkpt lat="45.708968108519912" lon="10.111967381089926">
        <ele>211.15000000000001</ele>
        <time>2014-05-11T10:06:57Z</time>
      </trkpt>
      <trkpt lat="45.708951596170664" lon="10.111985988914967">
        <ele>211.15000000000001</ele>
        <time>2014-05-11T10:06:58Z</time>
      </trkpt>
      <trkpt lat="45.708933407440782" lon="10.112001830711961">
        <ele>211.15000000000001</ele>
        <time>2014-05-11T10:06:59Z</time>
      </trkpt>
      <trkpt lat="45.708709191530943" lon="10.112145747989416">
        <ele>211.63</ele>
        <time>2014-05-11T10:07:18Z</time>
      </trkpt>
      <trkpt lat="45.708510288968682" lon="10.112266698852181">
        <ele>214.03</ele>
        <time>2014-05-11T10:07:39Z</time>
      </trkpt>
      <trkpt lat="45.708383386954665" lon="10.11243618093431">
        <ele>214.99000000000001</ele>
        <time>2014-05-11T10:07:52Z</time>
      </trkpt>
      <trkpt lat="45.708374502137303" lon="10.112460991367698">
        <ele>215.47</ele>
        <time>2014-05-11T10:07:53Z</time>
      </trkpt>
      <trkpt lat="45.70832597091794" lon="10.112567357718945">
        <ele>216.43000000000001</ele>
        <time>2014-05-11T10:08:01Z</time>
      </trkpt>
      <trkpt lat="45.708310548216105" lon="10.112576996907592">
        <ele>216.43000000000001</ele>
        <time>2014-05-11T10:08:02Z</time>
      </trkpt>
      <trkpt lat="45.708176521584392" lon="10.112727535888553">
        <ele>217.40000000000001</ele>
        <time>2014-05-11T10:08:14Z</time>
      </trkpt>
      <trkpt lat="45.707970578223467" lon="10.112884361296892">
        <ele>218.36000000000001</ele>
        <time>2014-05-11T10:08:34Z</time>
      </trkpt>
      <trkpt lat="45.707767149433494" lon="10.113062225282192">
        <ele>219.80000000000001</ele>
        <time>2014-05-11T10:08:53Z</time>
      </trkpt>
      <trkpt lat="45.707621471956372" lon="10.113151995465159">
        <ele>220.75999999999999</ele>
        <time>2014-05-11T10:09:06Z</time>
      </trkpt>
      <trkpt lat="45.707395579665899" lon="10.113122994080186">
        <ele>222.19999999999999</ele>
        <time>2014-05-11T10:09:22Z</time>
      </trkpt>
      <trkpt lat="45.707216458395123" lon="10.11313590221107">
        <ele>224.12</ele>
        <time>2014-05-11T10:09:35Z</time>
      </trkpt>
      <trkpt lat="45.70703356526792" lon="10.113260624930263">
        <ele>226.05000000000001</ele>
        <time>2014-05-11T10:09:49Z</time>
      </trkpt>
      <trkpt lat="45.707004396244884" lon="10.113304378464818">
        <ele>226.53</ele>
        <time>2014-05-11T10:09:55Z</time>
      </trkpt>
      <trkpt lat="45.706988554447889" lon="10.113311083987355">
        <ele>226.53</ele>
        <time>2014-05-11T10:09:56Z</time>
      </trkpt>
      <trkpt lat="45.706969443708658" lon="10.113321477547288">
        <ele>227.00999999999999</ele>
        <time>2014-05-11T10:09:57Z</time>
      </trkpt>
      <trkpt lat="45.706947986036539" lon="10.113331535831094">
        <ele>227.00999999999999</ele>
        <time>2014-05-11T10:09:58Z</time>
      </trkpt>
      <trkpt lat="45.706921499222517" lon="10.113361710682511">
        <ele>227.49000000000001</ele>
        <time>2014-05-11T10:10:02Z</time>
      </trkpt>
      <trkpt lat="45.70691529661417" lon="10.113379312679172">
        <ele>227.49000000000001</ele>
        <time>2014-05-11T10:10:03Z</time>
      </trkpt>
      <trkpt lat="45.706816809251904" lon="10.113513926044106">
        <ele>229.88999999999999</ele>
        <time>2014-05-11T10:10:15Z</time>
      </trkpt>
      <trkpt lat="45.706762494519353" lon="10.113624734804034">
        <ele>231.81</ele>
        <time>2014-05-11T10:10:24Z</time>
      </trkpt>
      <trkpt lat="45.706719495356083" lon="10.113794719800353">
        <ele>233.74000000000001</ele>
        <time>2014-05-11T10:10:37Z</time>
      </trkpt>
      <trkpt lat="45.706681860610843" lon="10.113955484703183">
        <ele>234.69999999999999</ele>
        <time>2014-05-11T10:10:47Z</time>
      </trkpt>
      <trkpt lat="45.706654954701662" lon="10.114107364788651">
        <ele>237.09999999999999</ele>
        <time>2014-05-11T10:10:58Z</time>
      </trkpt>
      <trkpt lat="45.706569626927376" lon="10.114268381148577">
        <ele>238.53999999999999</ele>
        <time>2014-05-11T10:11:09Z</time>
      </trkpt>
      <trkpt lat="45.706466948613524" lon="10.114408526569605">
        <ele>240.47</ele>
        <time>2014-05-11T10:11:19Z</time>
      </trkpt>
      <trkpt lat="45.706421937793493" lon="10.114449514076114">
        <ele>241.43000000000001</ele>
        <time>2014-05-11T10:11:24Z</time>
      </trkpt>
      <trkpt lat="45.706408023834229" lon="10.114457812160254">
        <ele>241.43000000000001</ele>
        <time>2014-05-11T10:11:25Z</time>
      </trkpt>
      <trkpt lat="45.706387236714363" lon="10.114467199891806">
        <ele>241.43000000000001</ele>
        <time>2014-05-11T10:11:26Z</time>
      </trkpt>
      <trkpt lat="45.706366701051593" lon="10.114477090537548">
        <ele>241.43000000000001</ele>
        <time>2014-05-11T10:11:27Z</time>
      </trkpt>
      <trkpt lat="45.706353038549423" lon="10.114489998668432">
        <ele>241.91</ele>
        <time>2014-05-11T10:11:28Z</time>
      </trkpt>
      <trkpt lat="45.706300651654601" lon="10.114548336714506">
        <ele>242.87</ele>
        <time>2014-05-11T10:11:34Z</time>
      </trkpt>
      <trkpt lat="45.706288497895002" lon="10.114595359191298">
        <ele>243.34999999999999</ele>
        <time>2014-05-11T10:11:39Z</time>
      </trkpt>
      <trkpt lat="45.706281373277307" lon="10.114613380283117">
        <ele>244.31</ele>
        <time>2014-05-11T10:11:40Z</time>
      </trkpt>
      <trkpt lat="45.706273326650262" lon="10.114631066098809">
        <ele>244.31</ele>
        <time>2014-05-11T10:11:41Z</time>
      </trkpt>
      <trkpt lat="45.706269387155771" lon="10.114683788269758">
        <ele>245.27000000000001</ele>
        <time>2014-05-11T10:11:46Z</time>
      </trkpt>
      <trkpt lat="45.706261843442917" lon="10.114705162122846">
        <ele>245.27000000000001</ele>
        <time>2014-05-11T10:11:47Z</time>
      </trkpt>
      <trkpt lat="45.706255054101348" lon="10.114725111052394">
        <ele>245.75</ele>
        <time>2014-05-11T10:11:48Z</time>
      </trkpt>
      <trkpt lat="45.706219598650932" lon="10.114851510152221">
        <ele>247.19999999999999</ele>
        <time>2014-05-11T10:11:58Z</time>
      </trkpt>
      <trkpt lat="45.70616964250803" lon="10.115066422149539">
        <ele>248.63999999999999</ele>
        <time>2014-05-11T10:12:09Z</time>
      </trkpt>
      <trkpt lat="45.706142904236913" lon="10.115230958908796">
        <ele>250.08000000000001</ele>
        <time>2014-05-11T10:12:20Z</time>
      </trkpt>
      <trkpt lat="45.706087416037917" lon="10.115428604185581">
        <ele>252.47999999999999</ele>
        <time>2014-05-11T10:12:31Z</time>
      </trkpt>
      <trkpt lat="45.706081967800856" lon="10.11551552452147">
        <ele>252.96000000000001</ele>
        <time>2014-05-11T10:12:42Z</time>
      </trkpt>
      <trkpt lat="45.706077609211206" lon="10.115527510643005">
        <ele>253.44</ele>
        <time>2014-05-11T10:12:43Z</time>
      </trkpt>
      <trkpt lat="45.706071071326733" lon="10.115542178973556">
        <ele>253.44</ele>
        <time>2014-05-11T10:12:44Z</time>
      </trkpt>
      <trkpt lat="45.706063527613878" lon="10.115556679666042">
        <ele>253.44</ele>
        <time>2014-05-11T10:12:45Z</time>
      </trkpt>
      <trkpt lat="45.705946516245604" lon="10.115798581391573">
        <ele>255.84999999999999</ele>
        <time>2014-05-11T10:13:01Z</time>
      </trkpt>
      <trkpt lat="45.705933608114719" lon="10.115904109552503">
        <ele>257.29000000000002</ele>
        <time>2014-05-11T10:13:09Z</time>
      </trkpt>
      <trkpt lat="45.70593411102891" lon="10.115921292454004">
        <ele>257.76999999999998</ele>
        <time>2014-05-11T10:13:10Z</time>
      </trkpt>
      <trkpt lat="45.705819362774491" lon="10.116181131452322">
        <ele>260.64999999999998</ele>
        <time>2014-05-11T10:13:26Z</time>
      </trkpt>
      <trkpt lat="45.705755492672324" lon="10.116342399269342">
        <ele>262.57999999999998</ele>
        <time>2014-05-11T10:13:39Z</time>
      </trkpt>
      <trkpt lat="45.705745769664645" lon="10.11633493937552">
        <ele>262.57999999999998</ele>
        <time>2014-05-11T10:13:40Z</time>
      </trkpt>
      <trkpt lat="45.705738393589854" lon="10.116325551643968">
        <ele>262.57999999999998</ele>
        <time>2014-05-11T10:13:41Z</time>
      </trkpt>
      <trkpt lat="45.705695562064648" lon="10.116309709846973">
        <ele>262.57999999999998</ele>
        <time>2014-05-11T10:13:55Z</time>
      </trkpt>
      <trkpt lat="45.705711990594864" lon="10.116353882476687">
        <ele>262.57999999999998</ele>
        <time>2014-05-11T10:14:02Z</time>
      </trkpt>
      <trkpt lat="45.705719869583845" lon="10.116369053721428">
        <ele>262.57999999999998</ele>
        <time>2014-05-11T10:14:03Z</time>
      </trkpt>
      <trkpt lat="45.705738477408886" lon="10.116393696516752">
        <ele>262.57999999999998</ele>
        <time>2014-05-11T10:14:05Z</time>
      </trkpt>
      <trkpt lat="45.705750631168485" lon="10.116408532485366">
        <ele>262.57999999999998</ele>
        <time>2014-05-11T10:14:06Z</time>
      </trkpt>
      <trkpt lat="45.705900583416224" lon="10.116611961275339">
        <ele>263.06</ele>
        <time>2014-05-11T10:14:22Z</time>
      </trkpt>
      <trkpt lat="45.705967387184501" lon="10.116671808063984">
        <ele>264.01999999999998</ele>
        <time>2014-05-11T10:14:30Z</time>
      </trkpt>
      <trkpt lat="45.705976607277989" lon="10.116682285442948">
        <ele>264.01999999999998</ele>
        <time>2014-05-11T10:14:31Z</time>
      </trkpt>
      <trkpt lat="45.706009212881327" lon="10.116735342890024">
        <ele>264.01999999999998</ele>
        <time>2014-05-11T10:14:35Z</time>
      </trkpt>
      <trkpt lat="45.706165200099349" lon="10.116835590451956">
        <ele>264.98000000000002</ele>
        <time>2014-05-11T10:14:50Z</time>
      </trkpt>
      <trkpt lat="45.706255305558443" lon="10.116845732554793">
        <ele>265.94</ele>
        <time>2014-05-11T10:15:02Z</time>
      </trkpt>
      <trkpt lat="45.70627911016345" lon="10.116864172741771">
        <ele>264.5</ele>
        <time>2014-05-11T10:15:16Z</time>
      </trkpt>
      <trkpt lat="45.706289503723383" lon="10.116859143599868">
        <ele>264.01999999999998</ele>
        <time>2014-05-11T10:15:29Z</time>
      </trkpt>
      <trkpt lat="45.7062903419137" lon="10.116818407550454">
        <ele>264.01999999999998</ele>
        <time>2014-05-11T10:15:51Z</time>
      </trkpt>
      <trkpt lat="45.706293527036905" lon="10.116848750039935">
        <ele>265.45999999999998</ele>
        <time>2014-05-11T10:16:15Z</time>
      </trkpt>
      <trkpt lat="45.706324791535735" lon="10.116863418370485">
        <ele>265.45999999999998</ele>
        <time>2014-05-11T10:16:28Z</time>
      </trkpt>
      <trkpt lat="45.706310458481312" lon="10.116856209933758">
        <ele>265.45999999999998</ele>
        <time>2014-05-11T10:16:42Z</time>
      </trkpt>
      <trkpt lat="45.706285815685987" lon="10.116851096972823">
        <ele>265.45999999999998</ele>
        <time>2014-05-11T10:17:09Z</time>
      </trkpt>
      <trkpt lat="45.706302830949426" lon="10.116893257945776">
        <ele>265.45999999999998</ele>
        <time>2014-05-11T10:17:31Z</time>
      </trkpt>
      <trkpt lat="45.706320852041245" lon="10.116933910176158">
        <ele>265.45999999999998</ele>
        <time>2014-05-11T10:17:56Z</time>
      </trkpt>
      <trkpt lat="45.706329233944416" lon="10.116954110562801">
        <ele>265.94</ele>
        <time>2014-05-11T10:18:23Z</time>
      </trkpt>
      <trkpt lat="45.706333927810192" lon="10.116939023137093">
        <ele>265.94</ele>
        <time>2014-05-11T10:18:47Z</time>
      </trkpt>
      <trkpt lat="45.706323450431228" lon="10.116954613476992">
        <ele>265.94</ele>
        <time>2014-05-11T10:19:09Z</time>
      </trkpt>
      <trkpt lat="45.706315990537405" lon="10.116970874369144">
        <ele>266.42000000000002</ele>
        <time>2014-05-11T10:19:38Z</time>
      </trkpt>
      <trkpt lat="45.706313056871295" lon="10.117018902674317">
        <ele>266.42000000000002</ele>
        <time>2014-05-11T10:20:09Z</time>
      </trkpt>
      <trkpt lat="45.706297550350428" lon="10.117033571004868">
        <ele>266.42000000000002</ele>
        <time>2014-05-11T10:20:35Z</time>
      </trkpt>
      <trkpt lat="45.706275505945086" lon="10.117026278749108">
        <ele>266.42000000000002</ele>
        <time>2014-05-11T10:21:08Z</time>
      </trkpt>
      <trkpt lat="45.706290928646922" lon="10.116975568234921">
        <ele>266.89999999999998</ele>
        <time>2014-05-11T10:21:40Z</time>
      </trkpt>
      <trkpt lat="45.706297634169459" lon="10.116974478587508">
        <ele>266.89999999999998</ele>
        <time>2014-05-11T10:22:09Z</time>
      </trkpt>
      <trkpt lat="45.706325797364116" lon="10.117005240172148">
        <ele>266.89999999999998</ele>
        <time>2014-05-11T10:22:43Z</time>
      </trkpt>
      <trkpt lat="45.706319427117705" lon="10.117046143859625">
        <ele>267.38</ele>
        <time>2014-05-11T10:23:13Z</time>
      </trkpt>
      <trkpt lat="45.706342225894332" lon="10.117064081132412">
        <ele>267.38</ele>
        <time>2014-05-11T10:23:38Z</time>
      </trkpt>
      <trkpt lat="45.70634750649333" lon="10.117065673694015">
        <ele>267.38</ele>
        <time>2014-05-11T10:24:08Z</time>
      </trkpt>
      <trkpt lat="45.706337867304683" lon="10.117046982049942">
        <ele>267.38</ele>
        <time>2014-05-11T10:24:40Z</time>
      </trkpt>
      <trkpt lat="45.706325881183147" lon="10.117014963179827">
        <ele>267.38</ele>
        <time>2014-05-11T10:25:06Z</time>
      </trkpt>
      <trkpt lat="45.706322360783815" lon="10.11701705865562">
        <ele>267.38</ele>
        <time>2014-05-11T10:25:37Z</time>
      </trkpt>
      <trkpt lat="45.706339124590158" lon="10.117080761119723">
        <ele>267.38</ele>
        <time>2014-05-11T10:26:00Z</time>
      </trkpt>
      <trkpt lat="45.706342644989491" lon="10.117153516039252">
        <ele>267.38</ele>
        <time>2014-05-11T10:26:33Z</time>
      </trkpt>
      <trkpt lat="45.706357061862946" lon="10.117132728919387">
        <ele>267.86000000000001</ele>
        <time>2014-05-11T10:27:00Z</time>
      </trkpt>
      <trkpt lat="45.706338034942746" lon="10.117059051990509">
        <ele>267.86000000000001</ele>
        <time>2014-05-11T10:27:35Z</time>
      </trkpt>
      <trkpt lat="45.706331497058272" lon="10.117025943472981">
        <ele>268.35000000000002</ele>
        <time>2014-05-11T10:28:08Z</time>
      </trkpt>
      <trkpt lat="45.706322696059942" lon="10.117031307891011">
        <ele>268.35000000000002</ele>
        <time>2014-05-11T10:28:32Z</time>
      </trkpt>
      <trkpt lat="45.706307273358107" lon="10.117044216021895">
        <ele>268.82999999999998</ele>
        <time>2014-05-11T10:29:16Z</time>
      </trkpt>
      <trkpt lat="45.70629863999784" lon="10.117059554904699">
        <ele>269.31</ele>
        <time>2014-05-11T10:29:47Z</time>
      </trkpt>
      <trkpt lat="45.706283049657941" lon="10.11708352714777">
        <ele>269.79000000000002</ele>
        <time>2014-05-11T10:30:18Z</time>
      </trkpt>
      <trkpt lat="45.706291180104017" lon="10.117054525762796">
        <ele>270.26999999999998</ele>
        <time>2014-05-11T10:30:46Z</time>
      </trkpt>
      <trkpt lat="45.70629671216011" lon="10.117082102224231">
        <ele>270.75</ele>
        <time>2014-05-11T10:31:17Z</time>
      </trkpt>
      <trkpt lat="45.706298304721713" lon="10.117050502449274">
        <ele>270.75</ele>
        <time>2014-05-11T10:31:41Z</time>
      </trkpt>
      <trkpt lat="45.706313056871295" lon="10.117047149688005">
        <ele>271.23000000000002</ele>
        <time>2014-05-11T10:32:04Z</time>
      </trkpt>
      <trkpt lat="45.706300986930728" lon="10.11704103089869">
        <ele>271.23000000000002</ele>
        <time>2014-05-11T10:32:32Z</time>
      </trkpt>
      <trkpt lat="45.706290761008859" lon="10.117047233507037">
        <ele>271.23000000000002</ele>
        <time>2014-05-11T10:32:56Z</time>
      </trkpt>
      <trkpt lat="45.706280367448926" lon="10.117057207971811">
        <ele>271.70999999999998</ele>
        <time>2014-05-11T10:33:27Z</time>
      </trkpt>
      <trkpt lat="45.706283384934068" lon="10.117063075304031">
        <ele>271.70999999999998</ele>
        <time>2014-05-11T10:33:58Z</time>
      </trkpt>
      <trkpt lat="45.706306435167789" lon="10.117072211578488">
        <ele>272.19</ele>
        <time>2014-05-11T10:34:27Z</time>
      </trkpt>
      <trkpt lat="45.706303417682648" lon="10.11706005781889">
        <ele>272.19</ele>
        <time>2014-05-11T10:34:54Z</time>
      </trkpt>
      <trkpt lat="45.706298220902681" lon="10.117018399760127">
        <ele>272.19</ele>
        <time>2014-05-11T10:35:25Z</time>
      </trkpt>
      <trkpt lat="45.706294868141413" lon="10.116953691467643">
        <ele>271.23000000000002</ele>
        <time>2014-05-11T10:35:59Z</time>
      </trkpt>
      <trkpt lat="45.706280786544085" lon="10.116906752809882">
        <ele>271.70999999999998</ele>
        <time>2014-05-11T10:36:29Z</time>
      </trkpt>
      <trkpt lat="45.706287575885653" lon="10.116900717839599">
        <ele>271.70999999999998</ele>
        <time>2014-05-11T10:36:52Z</time>
      </trkpt>
      <trkpt lat="45.70627374574542" lon="10.116886468604207">
        <ele>271.23000000000002</ele>
        <time>2014-05-11T10:37:28Z</time>
      </trkpt>
      <trkpt lat="45.706276930868626" lon="10.116923935711384">
        <ele>271.23000000000002</ele>
        <time>2014-05-11T10:37:55Z</time>
      </trkpt>
      <trkpt lat="45.70629671216011" lon="10.116945644840598">
        <ele>271.23000000000002</ele>
        <time>2014-05-11T10:38:31Z</time>
      </trkpt>
      <trkpt lat="45.706323450431228" lon="10.116960145533085">
        <ele>270.75</ele>
        <time>2014-05-11T10:38:56Z</time>
      </trkpt>
      <trkpt lat="45.706313727423549" lon="10.116959474980831">
        <ele>270.75</ele>
        <time>2014-05-11T10:39:34Z</time>
      </trkpt>
      <trkpt lat="45.706316409632564" lon="10.116960061714053">
        <ele>270.75</ele>
        <time>2014-05-11T10:40:01Z</time>
      </trkpt>
      <trkpt lat="45.706301322206855" lon="10.11697506532073">
        <ele>270.26999999999998</ele>
        <time>2014-05-11T10:40:32Z</time>
      </trkpt>
      <trkpt lat="45.706291599199176" lon="10.116993589326739">
        <ele>270.26999999999998</ele>
        <time>2014-05-11T10:41:01Z</time>
      </trkpt>
      <trkpt lat="45.706296628341079" lon="10.116959810256958">
        <ele>270.26999999999998</ele>
        <time>2014-05-11T10:41:30Z</time>
      </trkpt>
      <trkpt lat="45.706299226731062" lon="10.116963498294353">
        <ele>269.79000000000002</ele>
        <time>2014-05-11T10:42:08Z</time>
      </trkpt>
      <trkpt lat="45.706311883404851" lon="10.116992080584168">
        <ele>269.79000000000002</ele>
        <time>2014-05-11T10:42:36Z</time>
      </trkpt>
      <trkpt lat="45.706308363005519" lon="10.117009095847607">
        <ele>269.31</ele>
        <time>2014-05-11T10:43:08Z</time>
      </trkpt>
      <trkpt lat="45.706315822899342" lon="10.117030721157789">
        <ele>270.26999999999998</ele>
        <time>2014-05-11T10:43:31Z</time>
      </trkpt>
      <trkpt lat="45.706328144297004" lon="10.117065673694015">
        <ele>270.26999999999998</ele>
        <time>2014-05-11T10:43:53Z</time>
      </trkpt>
      <trkpt lat="45.706338118761778" lon="10.117103392258286">
        <ele>270.26999999999998</ele>
        <time>2014-05-11T10:44:11Z</time>
      </trkpt>
      <trkpt lat="45.70634113624692" lon="10.117103727534413">
        <ele>269.79000000000002</ele>
        <time>2014-05-11T10:44:39Z</time>
      </trkpt>
      <trkpt lat="45.706346668303013" lon="10.11704983189702">
        <ele>269.79000000000002</ele>
        <time>2014-05-11T10:45:02Z</time>
      </trkpt>
      <trkpt lat="45.706338537856936" lon="10.117004485800862">
        <ele>269.31</ele>
        <time>2014-05-11T10:45:24Z</time>
      </trkpt>
      <trkpt lat="45.706320852041245" lon="10.116951512172818">
        <ele>269.31</ele>
        <time>2014-05-11T10:45:54Z</time>
      </trkpt>
      <trkpt lat="45.706317164003849" lon="10.116933071985841">
        <ele>269.31</ele>
        <time>2014-05-11T10:46:25Z</time>
      </trkpt>
      <trkpt lat="45.706316158175468" lon="10.116942459717393">
        <ele>268.82999999999998</ele>
        <time>2014-05-11T10:46:58Z</time>
      </trkpt>
      <trkpt lat="45.706318505108356" lon="10.116954697296023">
        <ele>268.82999999999998</ele>
        <time>2014-05-11T10:47:24Z</time>
      </trkpt>
      <trkpt lat="45.706335688009858" lon="10.11696576140821">
        <ele>268.82999999999998</ele>
        <time>2014-05-11T10:47:52Z</time>
      </trkpt>
      <trkpt lat="45.70633040741086" lon="10.116961151361465">
        <ele>267.38</ele>
        <time>2014-05-11T10:48:18Z</time>
      </trkpt>
      <trkpt lat="45.706340884789824" lon="10.116916140541434">
        <ele>267.38</ele>
        <time>2014-05-11T10:48:46Z</time>
      </trkpt>
      <trkpt lat="45.706314733251929" lon="10.116858724504709">
        <ele>267.38</ele>
        <time>2014-05-11T10:49:16Z</time>
      </trkpt>
      <trkpt lat="45.706303920596838" lon="10.116808265447617">
        <ele>266.89999999999998</ele>
        <time>2014-05-11T10:49:49Z</time>
      </trkpt>
      <trkpt lat="45.706300400197506" lon="10.116811199113727">
        <ele>266.89999999999998</ele>
        <time>2014-05-11T10:50:11Z</time>
      </trkpt>
      <trkpt lat="45.706314565613866" lon="10.116827711462975">
        <ele>266.89999999999998</ele>
        <time>2014-05-11T10:50:42Z</time>
      </trkpt>
      <trkpt lat="45.70631087757647" lon="10.116849420592189">
        <ele>266.89999999999998</ele>
        <time>2014-05-11T10:51:09Z</time>
      </trkpt>
      <trkpt lat="45.706307357177138" lon="10.11686660349369">
        <ele>266.42000000000002</ele>
        <time>2014-05-11T10:51:33Z</time>
      </trkpt>
      <trkpt lat="45.706309285014868" lon="10.116936340928078">
        <ele>266.42000000000002</ele>
        <time>2014-05-11T10:51:59Z</time>
      </trkpt>
      <trkpt lat="45.706324120983481" lon="10.117063410580158">
        <ele>266.42000000000002</ele>
        <time>2014-05-11T10:52:26Z</time>
      </trkpt>
      <trkpt lat="45.706342812627554" lon="10.117073552682996">
        <ele>265.94</ele>
        <time>2014-05-11T10:52:53Z</time>
      </trkpt>
      <trkpt lat="45.706355972215533" lon="10.117051508277655">
        <ele>266.89999999999998</ele>
        <time>2014-05-11T10:53:20Z</time>
      </trkpt>
      <trkpt lat="45.706351026892662" lon="10.117048993706703">
        <ele>266.42000000000002</ele>
        <time>2014-05-11T10:53:44Z</time>
      </trkpt>
      <trkpt lat="45.706360246986151" lon="10.11708159931004">
        <ele>266.42000000000002</ele>
        <time>2014-05-11T10:54:10Z</time>
      </trkpt>
      <trkpt lat="45.706369131803513" lon="10.117082018405199">
        <ele>266.42000000000002</ele>
        <time>2014-05-11T10:54:38Z</time>
      </trkpt>
      <trkpt lat="45.706400563940406" lon="10.117112277075648">
        <ele>266.89999999999998</ele>
        <time>2014-05-11T10:55:03Z</time>
      </trkpt>
      <trkpt lat="45.706401988863945" lon="10.117106242105365">
        <ele>266.42000000000002</ele>
        <time>2014-05-11T10:55:25Z</time>
      </trkpt>
      <trkpt lat="45.706406012177467" lon="10.117110768333077">
        <ele>266.42000000000002</ele>
        <time>2014-05-11T10:55:50Z</time>
      </trkpt>
      <trkpt lat="45.706402575597167" lon="10.11712359264493">
        <ele>265.94</ele>
        <time>2014-05-11T10:56:21Z</time>
      </trkpt>
      <trkpt lat="45.706409951671958" lon="10.117124933749437">
        <ele>265.45999999999998</ele>
        <time>2014-05-11T10:56:47Z</time>
      </trkpt>
      <trkpt lat="45.706414729356766" lon="10.117159048095345">
        <ele>264.98000000000002</ele>
        <time>2014-05-11T10:57:16Z</time>
      </trkpt>
      <trkpt lat="45.706400815397501" lon="10.117159383371472">
        <ele>264.5</ele>
        <time>2014-05-11T10:57:47Z</time>
      </trkpt>
      <trkpt lat="45.706417327746749" lon="10.117149073630571">
        <ele>264.01999999999998</ele>
        <time>2014-05-11T10:58:10Z</time>
      </trkpt>
      <trkpt lat="45.706424368545413" lon="10.117153348401189">
        <ele>263.54000000000002</ele>
        <time>2014-05-11T10:58:31Z</time>
      </trkpt>
      <trkpt lat="45.706402324140072" lon="10.11714898981154">
        <ele>263.06</ele>
        <time>2014-05-11T10:58:58Z</time>
      </trkpt>
      <trkpt lat="45.706424368545413" lon="10.117200370877981">
        <ele>262.57999999999998</ele>
        <time>2014-05-11T10:59:25Z</time>
      </trkpt>
      <trkpt lat="45.706426799297333" lon="10.117247812449932">
        <ele>262.10000000000002</ele>
        <time>2014-05-11T10:59:49Z</time>
      </trkpt>
      <trkpt lat="45.706440797075629" lon="10.117293577641249">
        <ele>261.62</ele>
        <time>2014-05-11T11:00:08Z</time>
      </trkpt>
      <trkpt lat="45.706474995240569" lon="10.117269856855273">
        <ele>260.17000000000002</ele>
        <time>2014-05-11T11:00:30Z</time>
      </trkpt>
      <trkpt lat="45.706469463184476" lon="10.117246471345425">
        <ele>259.69</ele>
        <time>2014-05-11T11:00:50Z</time>
      </trkpt>
      <trkpt lat="45.706434343010187" lon="10.117201963439584">
        <ele>258.73000000000002</ele>
        <time>2014-05-11T11:01:13Z</time>
      </trkpt>
      <trkpt lat="45.706453369930387" lon="10.117182685062289">
        <ele>258.25</ele>
        <time>2014-05-11T11:01:41Z</time>
      </trkpt>
      <trkpt lat="45.706448089331388" lon="10.117138177156448">
        <ele>257.76999999999998</ele>
        <time>2014-05-11T11:02:09Z</time>
      </trkpt>
      <trkpt lat="45.706451274454594" lon="10.11710062623024">
        <ele>257.29000000000002</ele>
        <time>2014-05-11T11:02:33Z</time>
      </trkpt>
      <trkpt lat="45.706443814560771" lon="10.117109259590507">
        <ele>256.81</ele>
        <time>2014-05-11T11:03:03Z</time>
      </trkpt>
      <trkpt lat="45.706446077674627" lon="10.117226103320718">
        <ele>256.32999999999998</ele>
        <time>2014-05-11T11:03:30Z</time>
      </trkpt>
      <trkpt lat="45.706557473167777" lon="10.117202214896679">
        <ele>255.84999999999999</ele>
        <time>2014-05-11T11:04:01Z</time>
      </trkpt>
      <trkpt lat="45.706562083214521" lon="10.11723599396646">
        <ele>254.88999999999999</ele>
        <time>2014-05-11T11:04:30Z</time>
      </trkpt>
      <trkpt lat="45.706522101536393" lon="10.117330625653267">
        <ele>254.41</ele>
        <time>2014-05-11T11:04:59Z</time>
      </trkpt>
      <trkpt lat="45.706508103758097" lon="10.117426933720708">
        <ele>253.44</ele>
        <time>2014-05-11T11:05:29Z</time>
      </trkpt>
      <trkpt lat="45.706530986353755" lon="10.117491977289319">
        <ele>252.47999999999999</ele>
        <time>2014-05-11T11:06:01Z</time>
      </trkpt>
      <trkpt lat="45.706502487882972" lon="10.117470184341073">
        <ele>251.52000000000001</ele>
        <time>2014-05-11T11:06:27Z</time>
      </trkpt>
      <trkpt lat="45.706484550610185" lon="10.117349317297339">
        <ele>250.56</ele>
        <time>2014-05-11T11:07:00Z</time>
      </trkpt>
      <trkpt lat="45.706501062959433" lon="10.11735912412405">
        <ele>251.03999999999999</ele>
        <time>2014-05-11T11:07:35Z</time>
      </trkpt>
      <trkpt lat="45.706509109586477" lon="10.117243872955441">
        <ele>250.08000000000001</ele>
        <time>2014-05-11T11:08:08Z</time>
      </trkpt>
      <trkpt lat="45.706485221162438" lon="10.117176901549101">
        <ele>250.08000000000001</ele>
        <time>2014-05-11T11:08:38Z</time>
      </trkpt>
      <trkpt lat="45.706394193693995" lon="10.116982525214553">
        <ele>249.59999999999999</ele>
        <time>2014-05-11T11:09:10Z</time>
      </trkpt>
      <trkpt lat="45.706385727971792" lon="10.116972466930747">
        <ele>249.59999999999999</ele>
        <time>2014-05-11T11:09:41Z</time>
      </trkpt>
      <trkpt lat="45.706366281956434" lon="10.116919577121735">
        <ele>249.59999999999999</ele>
        <time>2014-05-11T11:10:17Z</time>
      </trkpt>
      <trkpt lat="45.706347841769457" lon="10.116893425583839">
        <ele>249.59999999999999</ele>
        <time>2014-05-11T11:10:54Z</time>
      </trkpt>
      <trkpt lat="45.706346081569791" lon="10.116910440847278">
        <ele>249.59999999999999</ele>
        <time>2014-05-11T11:11:26Z</time>
      </trkpt>
      <trkpt lat="45.706326384097338" lon="10.116851767525077">
        <ele>249.59999999999999</ele>
        <time>2014-05-11T11:12:01Z</time>
      </trkpt>
      <trkpt lat="45.706297215074301" lon="10.116796363145113">
        <ele>250.08000000000001</ele>
        <time>2014-05-11T11:12:31Z</time>
      </trkpt>
      <trkpt lat="45.706274583935738" lon="10.116764008998871">
        <ele>250.08000000000001</ele>
        <time>2014-05-11T11:13:02Z</time>
      </trkpt>
      <trkpt lat="45.706253964453936" lon="10.116812624037266">
        <ele>250.56</ele>
        <time>2014-05-11T11:13:33Z</time>
      </trkpt>
      <trkpt lat="45.706248851493001" lon="10.116801057010889">
        <ele>251.03999999999999</ele>
        <time>2014-05-11T11:13:58Z</time>
      </trkpt>
      <trkpt lat="45.706236697733402" lon="10.116685554385185">
        <ele>251.52000000000001</ele>
        <time>2014-05-11T11:14:30Z</time>
      </trkpt>
      <trkpt lat="45.706219179555774" lon="10.116636184975505">
        <ele>252</ele>
        <time>2014-05-11T11:14:56Z</time>
      </trkpt>
      <trkpt lat="45.706215491518378" lon="10.116672143340111">
        <ele>252.47999999999999</ele>
        <time>2014-05-11T11:15:23Z</time>
      </trkpt>
      <trkpt lat="45.706235440447927" lon="10.116671221330762">
        <ele>252.96000000000001</ele>
        <time>2014-05-11T11:15:54Z</time>
      </trkpt>
      <trkpt lat="45.706227645277977" lon="10.116651942953467">
        <ele>253.44</ele>
        <time>2014-05-11T11:16:22Z</time>
      </trkpt>
      <trkpt lat="45.706190261989832" lon="10.116664096713066">
        <ele>254.41</ele>
        <time>2014-05-11T11:16:57Z</time>
      </trkpt>
      <trkpt lat="45.706156399101019" lon="10.116626378148794">
        <ele>254.88999999999999</ele>
        <time>2014-05-11T11:17:28Z</time>
      </trkpt>
      <trkpt lat="45.706151872873306" lon="10.116587150841951">
        <ele>255.84999999999999</ele>
        <time>2014-05-11T11:17:58Z</time>
      </trkpt>
      <trkpt lat="45.706206187605858" lon="10.116610703989863">
        <ele>256.32999999999998</ele>
        <time>2014-05-11T11:18:32Z</time>
      </trkpt>
      <trkpt lat="45.706202834844589" lon="10.116600980982184">
        <ele>256.32999999999998</ele>
        <time>2014-05-11T11:19:03Z</time>
      </trkpt>
      <trkpt lat="45.706204092130065" lon="10.116595029830933">
        <ele>256.32999999999998</ele>
        <time>2014-05-11T11:19:38Z</time>
      </trkpt>
      <trkpt lat="45.706218257546425" lon="10.116646494716406">
        <ele>256.81</ele>
        <time>2014-05-11T11:20:09Z</time>
      </trkpt>
      <trkpt lat="45.706210378557444" lon="10.116570889949799">
        <ele>256.81</ele>
        <time>2014-05-11T11:20:38Z</time>
      </trkpt>
      <trkpt lat="45.7062126416713" lon="10.116580445319414">
        <ele>257.29000000000002</ele>
        <time>2014-05-11T11:21:08Z</time>
      </trkpt>
      <trkpt lat="45.706205265596509" lon="10.116626461967826">
        <ele>257.76999999999998</ele>
        <time>2014-05-11T11:21:39Z</time>
      </trkpt>
      <trkpt lat="45.706175677478313" lon="10.116599556058645">
        <ele>257.29000000000002</ele>
        <time>2014-05-11T11:22:15Z</time>
      </trkpt>
      <trkpt lat="45.706160757690668" lon="10.116636771708727">
        <ele>257.29000000000002</ele>
        <time>2014-05-11T11:22:44Z</time>
      </trkpt>
      <trkpt lat="45.706161176785827" lon="10.116608776152134">
        <ele>257.76999999999998</ele>
        <time>2014-05-11T11:23:09Z</time>
      </trkpt>
      <trkpt lat="45.706167044118047" lon="10.116602070629597">
        <ele>258.25</ele>
        <time>2014-05-11T11:23:39Z</time>
      </trkpt>
      <trkpt lat="45.706169977784157" lon="10.116622857749462">
        <ele>258.25</ele>
        <time>2014-05-11T11:24:10Z</time>
      </trkpt>
      <trkpt lat="45.706125218421221" lon="10.116546079516411">
        <ele>258.73000000000002</ele>
        <time>2014-05-11T11:24:39Z</time>
      </trkpt>
      <trkpt lat="45.706126894801855" lon="10.116585893556476">
        <ele>259.20999999999998</ele>
        <time>2014-05-11T11:25:16Z</time>
      </trkpt>
      <trkpt lat="45.706102084368467" lon="10.116553036496043">
        <ele>259.69</ele>
        <time>2014-05-11T11:25:52Z</time>
      </trkpt>
      <trkpt lat="45.706096468493342" lon="10.116517748683691">
        <ele>260.17000000000002</ele>
        <time>2014-05-11T11:26:21Z</time>
      </trkpt>
      <trkpt lat="45.706093031913042" lon="10.116546833887696">
        <ele>260.64999999999998</ele>
        <time>2014-05-11T11:26:48Z</time>
      </trkpt>
      <trkpt lat="45.706080291420221" lon="10.116492686793208">
        <ele>261.13999999999999</ele>
        <time>2014-05-11T11:27:19Z</time>
      </trkpt>
      <trkpt lat="45.706049110740423" lon="10.116448765620589">
        <ele>261.62</ele>
        <time>2014-05-11T11:27:50Z</time>
      </trkpt>
      <trkpt lat="45.705999154597521" lon="10.116375088691711">
        <ele>263.06</ele>
        <time>2014-05-11T11:28:20Z</time>
      </trkpt>
      <trkpt lat="45.705976691097021" lon="10.11630074121058">
        <ele>263.54000000000002</ele>
        <time>2014-05-11T11:28:49Z</time>
      </trkpt>
      <trkpt lat="45.705994125455618" lon="10.116379447281361">
        <ele>264.98000000000002</ele>
        <time>2014-05-11T11:29:19Z</time>
      </trkpt>
      <trkpt lat="45.705965207889676" lon="10.116281295195222">
        <ele>265.45999999999998</ele>
        <time>2014-05-11T11:29:47Z</time>
      </trkpt>
      <trkpt lat="45.705956155434251" lon="10.116233853623271">
        <ele>265.94</ele>
        <time>2014-05-11T11:30:10Z</time>
      </trkpt>
      <trkpt lat="45.705906869843602" lon="10.116155818104744">
        <ele>266.42000000000002</ele>
        <time>2014-05-11T11:30:30Z</time>
      </trkpt>
      <trkpt lat="45.705886501818895" lon="10.116122206673026">
        <ele>267.38</ele>
        <time>2014-05-11T11:30:57Z</time>
      </trkpt>
      <trkpt lat="45.705896224826574" lon="10.116139641031623">
        <ele>267.86000000000001</ele>
        <time>2014-05-11T11:31:14Z</time>
      </trkpt>
      <trkpt lat="45.705903600901365" lon="10.116148022934794">
        <ele>268.35000000000002</ele>
        <time>2014-05-11T11:31:29Z</time>
      </trkpt>
      <trkpt lat="45.70589404553175" lon="10.116121955215931">
        <ele>268.82999999999998</ele>
        <time>2014-05-11T11:31:47Z</time>
      </trkpt>
      <trkpt lat="45.705874180421233" lon="10.116093624383211">
        <ele>268.82999999999998</ele>
        <time>2014-05-11T11:32:02Z</time>
      </trkpt>
      <trkpt lat="45.705863200128078" lon="10.116091361269355">
        <ele>269.79000000000002</ele>
        <time>2014-05-11T11:32:23Z</time>
      </trkpt>
      <trkpt lat="45.705853728577495" lon="10.116095887497067">
        <ele>270.26999999999998</ele>
        <time>2014-05-11T11:32:35Z</time>
      </trkpt>
      <trkpt lat="45.705847777426243" lon="10.116096893325448">
        <ele>270.75</ele>
        <time>2014-05-11T11:32:54Z</time>
      </trkpt>
      <trkpt lat="45.705862613394856" lon="10.116172498092055">
        <ele>271.70999999999998</ele>
        <time>2014-05-11T11:33:22Z</time>
      </trkpt>
      <trkpt lat="45.705877281725407" lon="10.116196218878031">
        <ele>272.19</ele>
        <time>2014-05-11T11:33:43Z</time>
      </trkpt>
      <trkpt lat="45.705899745225906" lon="10.116206696256995">
        <ele>273.14999999999998</ele>
        <time>2014-05-11T11:34:12Z</time>
      </trkpt>
      <trkpt lat="45.705913323909044" lon="10.116226645186543">
        <ele>273.63</ele>
        <time>2014-05-11T11:34:43Z</time>
      </trkpt>
      <trkpt lat="45.705938637256622" lon="10.116260005161166">
        <ele>274.58999999999997</ele>
        <time>2014-05-11T11:35:16Z</time>
      </trkpt>
      <trkpt lat="45.705929836258292" lon="10.116254724562168">
        <ele>275.06999999999999</ele>
        <time>2014-05-11T11:35:50Z</time>
      </trkpt>
      <trkpt lat="45.705950791016221" lon="10.116270985454321">
        <ele>276.04000000000002</ele>
        <time>2014-05-11T11:36:26Z</time>
      </trkpt>
      <trkpt lat="45.705976104363799" lon="10.116390762850642">
        <ele>276.51999999999998</ele>
        <time>2014-05-11T11:37:02Z</time>
      </trkpt>
      <trkpt lat="45.70596688427031" lon="10.116370394825935">
        <ele>277</ele>
        <time>2014-05-11T11:37:37Z</time>
      </trkpt>
      <trkpt lat="45.705992449074984" lon="10.116332257166505">
        <ele>277.48000000000002</ele>
        <time>2014-05-11T11:38:07Z</time>
      </trkpt>
      <trkpt lat="45.706019438803196" lon="10.116430660709739">
        <ele>277.95999999999998</ele>
        <time>2014-05-11T11:38:45Z</time>
      </trkpt>
      <trkpt lat="45.706020025536418" lon="10.116425044834614">
        <ele>278.44</ele>
        <time>2014-05-11T11:39:07Z</time>
      </trkpt>
      <trkpt lat="45.705992029979825" lon="10.116356564685702">
        <ele>278.44</ele>
        <time>2014-05-11T11:39:40Z</time>
      </trkpt>
      <trkpt lat="45.70600301027298" lon="10.116368215531111">
        <ele>278.92000000000002</ele>
        <time>2014-05-11T11:40:08Z</time>
      </trkpt>
      <trkpt lat="45.706038633361459" lon="10.116441641002893">
        <ele>279.39999999999998</ele>
        <time>2014-05-11T11:40:49Z</time>
      </trkpt>
      <trkpt lat="45.706023294478655" lon="10.116415908560157">
        <ele>279.39999999999998</ele>
        <time>2014-05-11T11:41:29Z</time>
      </trkpt>
      <trkpt lat="45.706021450459957" lon="10.116433594375849">
        <ele>280.36000000000001</ele>
        <time>2014-05-11T11:41:56Z</time>
      </trkpt>
      <trkpt lat="45.706004519015551" lon="10.116388332098722">
        <ele>280.36000000000001</ele>
        <time>2014-05-11T11:42:34Z</time>
      </trkpt>
      <trkpt lat="45.706019354984164" lon="10.116415908560157">
        <ele>280.36000000000001</ele>
        <time>2014-05-11T11:43:12Z</time>
      </trkpt>
      <trkpt lat="45.706082386896014" lon="10.116501236334443">
        <ele>280.83999999999997</ele>
        <time>2014-05-11T11:43:45Z</time>
      </trkpt>
      <trkpt lat="45.706095714122057" lon="10.116508612409234">
        <ele>280.83999999999997</ele>
        <time>2014-05-11T11:44:23Z</time>
      </trkpt>
      <trkpt lat="45.706070484593511" lon="10.116504086181521">
        <ele>280.83999999999997</ele>
        <time>2014-05-11T11:44:53Z</time>
      </trkpt>
      <trkpt lat="45.706048440188169" lon="10.116482125595212">
        <ele>280.83999999999997</ele>
        <time>2014-05-11T11:45:29Z</time>
      </trkpt>
      <trkpt lat="45.706058414652944" lon="10.11650794185698">
        <ele>281.31999999999999</ele>
        <time>2014-05-11T11:45:57Z</time>
      </trkpt>
      <trkpt lat="45.706079369410872" lon="10.116535518318415">
        <ele>281.80000000000001</ele>
        <time>2014-05-11T11:46:29Z</time>
      </trkpt>
      <trkpt lat="45.706137455999851" lon="10.116587486118078">
        <ele>281.80000000000001</ele>
        <time>2014-05-11T11:47:02Z</time>
      </trkpt>
      <trkpt lat="45.706145251169801" lon="10.116594946011901">
        <ele>281.80000000000001</ele>
        <time>2014-05-11T11:47:33Z</time>
      </trkpt>
      <trkpt lat="45.706148855388165" lon="10.116621851921082">
        <ele>282.27999999999997</ele>
        <time>2014-05-11T11:48:08Z</time>
      </trkpt>
      <trkpt lat="45.706135611981153" lon="10.116618163883686">
        <ele>282.27999999999997</ele>
        <time>2014-05-11T11:48:43Z</time>
      </trkpt>
      <trkpt lat="45.706134522333741" lon="10.116613134741783">
        <ele>282.76999999999998</ele>
        <time>2014-05-11T11:49:07Z</time>
      </trkpt>
      <trkpt lat="45.706141144037247" lon="10.116603579372168">
        <ele>282.76999999999998</ele>
        <time>2014-05-11T11:49:42Z</time>
      </trkpt>
      <trkpt lat="45.706162685528398" lon="10.116637442260981">
        <ele>282.76999999999998</ele>
        <time>2014-05-11T11:50:13Z</time>
      </trkpt>
      <trkpt lat="45.70616913959384" lon="10.11661690659821">
        <ele>282.76999999999998</ele>
        <time>2014-05-11T11:50:44Z</time>
      </trkpt>
      <trkpt lat="45.706182215362787" lon="10.116614056751132">
        <ele>282.76999999999998</ele>
        <time>2014-05-11T11:51:24Z</time>
      </trkpt>
      <trkpt lat="45.706167547032237" lon="10.116605088114738">
        <ele>282.76999999999998</ele>
        <time>2014-05-11T11:51:48Z</time>
      </trkpt>
      <trkpt lat="45.706163858994842" lon="10.116611709818244">
        <ele>282.76999999999998</ele>
        <time>2014-05-11T11:52:16Z</time>
      </trkpt>
      <trkpt lat="45.706165954470634" lon="10.116628222167492">
        <ele>282.76999999999998</ele>
        <time>2014-05-11T11:52:47Z</time>
      </trkpt>
      <trkpt lat="45.70616427809" lon="10.116647835820913">
        <ele>282.76999999999998</ele>
        <time>2014-05-11T11:53:13Z</time>
      </trkpt>
      <trkpt lat="45.706183221191168" lon="10.116708520799875">
        <ele>282.76999999999998</ele>
        <time>2014-05-11T11:53:45Z</time>
      </trkpt>
      <trkpt lat="45.706193782389164" lon="10.116695277392864">
        <ele>282.76999999999998</ele>
        <time>2014-05-11T11:54:05Z</time>
      </trkpt>
      <trkpt lat="45.706192860379815" lon="10.116637777537107">
        <ele>282.76999999999998</ele>
        <time>2014-05-11T11:54:28Z</time>
      </trkpt>
      <trkpt lat="45.706179114058614" lon="10.116540966555476">
        <ele>282.76999999999998</ele>
        <time>2014-05-11T11:55:03Z</time>
      </trkpt>
      <trkpt lat="45.706175593659282" lon="10.11652453802526">
        <ele>283.25</ele>
        <time>2014-05-11T11:55:33Z</time>
      </trkpt>
      <trkpt lat="45.70618137717247" lon="10.116527304053307">
        <ele>283.73000000000002</ele>
        <time>2014-05-11T11:56:09Z</time>
      </trkpt>
      <trkpt lat="45.706202164292336" lon="10.116538032889366">
        <ele>283.73000000000002</ele>
        <time>2014-05-11T11:56:40Z</time>
      </trkpt>
      <trkpt lat="45.706215826794505" lon="10.116577260196209">
        <ele>283.73000000000002</ele>
        <time>2014-05-11T11:57:04Z</time>
      </trkpt>
      <trkpt lat="45.706204092130065" lon="10.116669796407223">
        <ele>283.73000000000002</ele>
        <time>2014-05-11T11:57:27Z</time>
      </trkpt>
      <trkpt lat="45.706182047724724" lon="10.116658732295036">
        <ele>283.73000000000002</ele>
        <time>2014-05-11T11:57:49Z</time>
      </trkpt>
      <trkpt lat="45.706159500405192" lon="10.116622438654304">
        <ele>283.25</ele>
        <time>2014-05-11T11:58:21Z</time>
      </trkpt>
      <trkpt lat="45.706122620031238" lon="10.116586564108729">
        <ele>283.73000000000002</ele>
        <time>2014-05-11T11:58:44Z</time>
      </trkpt>
      <trkpt lat="45.706178527325392" lon="10.11663593351841">
        <ele>283.73000000000002</ele>
        <time>2014-05-11T11:59:15Z</time>
      </trkpt>
      <trkpt lat="45.706208283081651" lon="10.116667365655303">
        <ele>283.73000000000002</ele>
        <time>2014-05-11T11:59:45Z</time>
      </trkpt>
      <trkpt lat="45.706218592822552" lon="10.116669209674001">
        <ele>283.73000000000002</ele>
        <time>2014-05-11T12:00:14Z</time>
      </trkpt>
      <trkpt lat="45.706229154020548" lon="10.116704162210226">
        <ele>283.73000000000002</ele>
        <time>2014-05-11T12:00:35Z</time>
      </trkpt>
      <trkpt lat="45.706226974725723" lon="10.116681447252631">
        <ele>283.73000000000002</ele>
        <time>2014-05-11T12:01:09Z</time>
      </trkpt>
      <trkpt lat="45.706251114606857" lon="10.11668530292809">
        <ele>283.73000000000002</ele>
        <time>2014-05-11T12:01:36Z</time>
      </trkpt>
      <trkpt lat="45.70624633692205" lon="10.116694774478674">
        <ele>283.73000000000002</ele>
        <time>2014-05-11T12:01:59Z</time>
      </trkpt>
      <trkpt lat="45.706228902563453" lon="10.116652110591531">
        <ele>283.73000000000002</ele>
        <time>2014-05-11T12:02:16Z</time>
      </trkpt>
      <trkpt lat="45.706285061314702" lon="10.116737689822912">
        <ele>283.73000000000002</ele>
        <time>2014-05-11T12:02:41Z</time>
      </trkpt>
      <trkpt lat="45.706268381327391" lon="10.116728721186519">
        <ele>283.73000000000002</ele>
        <time>2014-05-11T12:02:55Z</time>
      </trkpt>
      <trkpt lat="45.706251617521048" lon="10.116698881611228">
        <ele>283.73000000000002</ele>
        <time>2014-05-11T12:03:08Z</time>
      </trkpt>
      <trkpt lat="45.706254467368126" lon="10.116693936288357">
        <ele>283.73000000000002</ele>
        <time>2014-05-11T12:03:23Z</time>
      </trkpt>
      <trkpt lat="45.706252371892333" lon="10.1166588999331">
        <ele>283.73000000000002</ele>
        <time>2014-05-11T12:03:37Z</time>
      </trkpt>
      <trkpt lat="45.706243151798844" lon="10.11665646918118">
        <ele>283.73000000000002</ele>
        <time>2014-05-11T12:03:43Z</time>
      </trkpt>
      <trkpt lat="45.706244995817542" lon="10.116641633212566">
        <ele>283.73000000000002</ele>
        <time>2014-05-11T12:03:52Z</time>
      </trkpt>
      <trkpt lat="45.706239296123385" lon="10.116632916033268">
        <ele>283.73000000000002</ele>
        <time>2014-05-11T12:04:07Z</time>
      </trkpt>
      <trkpt lat="45.706238374114037" lon="10.116617074236274">
        <ele>283.73000000000002</ele>
        <time>2014-05-11T12:04:23Z</time>
      </trkpt>
      <trkpt lat="45.706245834007859" lon="10.116622354835272">
        <ele>283.73000000000002</ele>
        <time>2014-05-11T12:04:35Z</time>
      </trkpt>
      <trkpt lat="45.706245582550764" lon="10.116601819172502">
        <ele>283.73000000000002</ele>
        <time>2014-05-11T12:04:49Z</time>
      </trkpt>
      <trkpt lat="45.706229908391833" lon="10.116633586585522">
        <ele>283.73000000000002</ele>
        <time>2014-05-11T12:05:04Z</time>
      </trkpt>
      <trkpt lat="45.706203756853938" lon="10.116710448637605">
        <ele>283.73000000000002</ele>
        <time>2014-05-11T12:05:24Z</time>
      </trkpt>
      <trkpt lat="45.706152375787497" lon="10.116758812218904">
        <ele>283.73000000000002</ele>
        <time>2014-05-11T12:05:37Z</time>
      </trkpt>
      <trkpt lat="45.706073669716716" lon="10.116759901866317">
        <ele>281.80000000000001</ele>
        <time>2014-05-11T12:05:49Z</time>
      </trkpt>
      <trkpt lat="45.706055983901024" lon="10.11671170592308">
        <ele>282.76999999999998</ele>
        <time>2014-05-11T12:06:01Z</time>
      </trkpt>
      <trkpt lat="45.70602061226964" lon="10.116704497486353">
        <ele>281.31999999999999</ele>
        <time>2014-05-11T12:06:07Z</time>
      </trkpt>
      <trkpt lat="45.70596294477582" lon="10.116659319028258">
        <ele>281.31999999999999</ele>
        <time>2014-05-11T12:06:18Z</time>
      </trkpt>
      <trkpt lat="45.705923130735755" lon="10.116613134741783">
        <ele>280.83999999999997</ele>
        <time>2014-05-11T12:06:28Z</time>
      </trkpt>
      <trkpt lat="45.705947605893016" lon="10.11663056910038">
        <ele>280.36000000000001</ele>
        <time>2014-05-11T12:06:41Z</time>
      </trkpt>
      <trkpt lat="45.705957412719727" lon="10.116668958216906">
        <ele>281.31999999999999</ele>
        <time>2014-05-11T12:06:59Z</time>
      </trkpt>
      <trkpt lat="45.705973589792848" lon="10.116661330685019">
        <ele>281.31999999999999</ele>
        <time>2014-05-11T12:07:11Z</time>
      </trkpt>
      <trkpt lat="45.705885160714388" lon="10.116682201623917">
        <ele>281.80000000000001</ele>
        <time>2014-05-11T12:07:29Z</time>
      </trkpt>
      <trkpt lat="45.705864205956459" lon="10.116660660132766">
        <ele>281.80000000000001</ele>
        <time>2014-05-11T12:07:48Z</time>
      </trkpt>
      <trkpt lat="45.705919275060296" lon="10.116673484444618">
        <ele>282.27999999999997</ele>
        <time>2014-05-11T12:08:05Z</time>
      </trkpt>
      <trkpt lat="45.705922627821565" lon="10.116657307371497">
        <ele>281.80000000000001</ele>
        <time>2014-05-11T12:08:22Z</time>
      </trkpt>
      <trkpt lat="45.70590041577816" lon="10.116645572707057">
        <ele>280.36000000000001</ele>
        <time>2014-05-11T12:08:39Z</time>
      </trkpt>
      <trkpt lat="45.705922460183501" lon="10.116656133905053">
        <ele>280.36000000000001</ele>
        <time>2014-05-11T12:08:54Z</time>
      </trkpt>
      <trkpt lat="45.705910976976156" lon="10.116631239652634">
        <ele>280.36000000000001</ele>
        <time>2014-05-11T12:09:06Z</time>
      </trkpt>
      <trkpt lat="45.705875353887677" lon="10.116584636271">
        <ele>279.39999999999998</ele>
        <time>2014-05-11T12:09:17Z</time>
      </trkpt>
      <trkpt lat="45.705844843760133" lon="10.11654507368803">
        <ele>280.36000000000001</ele>
        <time>2014-05-11T12:09:25Z</time>
      </trkpt>
      <trkpt lat="45.705818776041269" lon="10.116516994312406">
        <ele>278.92000000000002</ele>
        <time>2014-05-11T12:09:29Z</time>
      </trkpt>
      <trkpt lat="45.705738477408886" lon="10.116369556635618">
        <ele>277.48000000000002</ele>
        <time>2014-05-11T12:09:44Z</time>
      </trkpt>
      <trkpt lat="45.705768065527081" lon="10.116210803389549">
        <ele>276.04000000000002</ele>
        <time>2014-05-11T12:09:55Z</time>
      </trkpt>
      <trkpt lat="45.705810729414225" lon="10.116145256906748">
        <ele>275.56</ele>
        <time>2014-05-11T12:10:01Z</time>
      </trkpt>
      <trkpt lat="45.705941151827574" lon="10.116029251366854">
        <ele>274.11000000000001</ele>
        <time>2014-05-11T12:10:15Z</time>
      </trkpt>
      <trkpt lat="45.705980630591512" lon="10.116034280508757">
        <ele>274.11000000000001</ele>
        <time>2014-05-11T12:10:20Z</time>
      </trkpt>
      <trkpt lat="45.70602991618216" lon="10.116058420389891">
        <ele>273.63</ele>
        <time>2014-05-11T12:10:27Z</time>
      </trkpt>
      <trkpt lat="45.706091690808535" lon="10.116001591086388">
        <ele>273.14999999999998</ele>
        <time>2014-05-11T12:10:34Z</time>
      </trkpt>
      <trkpt lat="45.706217586994171" lon="10.116045512259007">
        <ele>272.67000000000002</ele>
        <time>2014-05-11T12:10:44Z</time>
      </trkpt>
      <trkpt lat="45.706302244216204" lon="10.116034783422947">
        <ele>272.19</ele>
        <time>2014-05-11T12:10:51Z</time>
      </trkpt>
      <trkpt lat="45.706471977755427" lon="10.11601340956986">
        <ele>271.70999999999998</ele>
        <time>2014-05-11T12:11:09Z</time>
      </trkpt>
      <trkpt lat="45.706640454009175" lon="10.116053642705083">
        <ele>271.70999999999998</ele>
        <time>2014-05-11T12:11:29Z</time>
      </trkpt>
      <trkpt lat="45.706823263317347" lon="10.116094462573528">
        <ele>272.67000000000002</ele>
        <time>2014-05-11T12:11:47Z</time>
      </trkpt>
      <trkpt lat="45.706994254142046" lon="10.116103682667017">
        <ele>272.67000000000002</ele>
        <time>2014-05-11T12:12:03Z</time>
      </trkpt>
      <trkpt lat="45.707219140604138" lon="10.116206360980868">
        <ele>272.19</ele>
        <time>2014-05-11T12:12:24Z</time>
      </trkpt>
      <trkpt lat="45.707449475303292" lon="10.11632421053946">
        <ele>273.14999999999998</ele>
        <time>2014-05-11T12:12:44Z</time>
      </trkpt>
      <trkpt lat="45.707641839981079" lon="10.11637550778687">
        <ele>274.58999999999997</ele>
        <time>2014-05-11T12:13:02Z</time>
      </trkpt>
      <trkpt lat="45.707835461944342" lon="10.116423619911075">
        <ele>275.56</ele>
        <time>2014-05-11T12:13:21Z</time>
      </trkpt>
      <trkpt lat="45.708040902391076" lon="10.116437869146466">
        <ele>276.51999999999998</ele>
        <time>2014-05-11T12:13:39Z</time>
      </trkpt>
      <trkpt lat="45.708226980641484" lon="10.116489417850971">
        <ele>276.04000000000002</ele>
        <time>2014-05-11T12:13:54Z</time>
      </trkpt>
      <trkpt lat="45.708259418606758" lon="10.116533506661654">
        <ele>276.51999999999998</ele>
        <time>2014-05-11T12:13:57Z</time>
      </trkpt>
      <trkpt lat="45.708355810493231" lon="10.11659100651741">
        <ele>276.51999999999998</ele>
        <time>2014-05-11T12:14:05Z</time>
      </trkpt>
      <trkpt lat="45.70842320099473" lon="10.116613386198878">
        <ele>277</ele>
        <time>2014-05-11T12:14:10Z</time>
      </trkpt>
      <trkpt lat="45.708597879856825" lon="10.116672310978174">
        <ele>278.44</ele>
        <time>2014-05-11T12:14:26Z</time>
      </trkpt>
      <trkpt lat="45.708687985315919" lon="10.116715813055634">
        <ele>278.44</ele>
        <time>2014-05-11T12:14:35Z</time>
      </trkpt>
      <trkpt lat="45.708746910095215" lon="10.116754453629255">
        <ele>278.44</ele>
        <time>2014-05-11T12:14:39Z</time>
      </trkpt>
      <trkpt lat="45.708787059411407" lon="10.116753447800875">
        <ele>279.39999999999998</ele>
        <time>2014-05-11T12:14:42Z</time>
      </trkpt>
      <trkpt lat="45.708944974467158" lon="10.116777503862977">
        <ele>279.39999999999998</ele>
        <time>2014-05-11T12:14:56Z</time>
      </trkpt>
      <trkpt lat="45.709061315283179" lon="10.116811702027917">
        <ele>279.39999999999998</ele>
        <time>2014-05-11T12:15:08Z</time>
      </trkpt>
      <trkpt lat="45.709072379395366" lon="10.116816144436598">
        <ele>279.39999999999998</ele>
        <time>2014-05-11T12:15:09Z</time>
      </trkpt>
      <trkpt lat="45.709086712449789" lon="10.116818239912391">
        <ele>279.39999999999998</ele>
        <time>2014-05-11T12:15:10Z</time>
      </trkpt>
      <trkpt lat="45.709102554246783" lon="10.116819581016898">
        <ele>279.39999999999998</ele>
        <time>2014-05-11T12:15:11Z</time>
      </trkpt>
      <trkpt lat="45.709118898957968" lon="10.116817988455296">
        <ele>279.39999999999998</ele>
        <time>2014-05-11T12:15:12Z</time>
      </trkpt>
      <trkpt lat="45.709133902564645" lon="10.116814468055964">
        <ele>278.92000000000002</ele>
        <time>2014-05-11T12:15:13Z</time>
      </trkpt>
      <trkpt lat="45.70930858142674" lon="10.116844223812222">
        <ele>279.39999999999998</ele>
        <time>2014-05-11T12:15:26Z</time>
      </trkpt>
      <trkpt lat="45.709355352446437" lon="10.116852186620235">
        <ele>279.39999999999998</ele>
        <time>2014-05-11T12:15:32Z</time>
      </trkpt>
      <trkpt lat="45.709369350224733" lon="10.116849672049284">
        <ele>279.39999999999998</ele>
        <time>2014-05-11T12:15:33Z</time>
      </trkpt>
      <trkpt lat="45.709386700764298" lon="10.116850426420569">
        <ele>279.39999999999998</ele>
        <time>2014-05-11T12:15:34Z</time>
      </trkpt>
      <trkpt lat="45.709406733512878" lon="10.116853695362806">
        <ele>279.39999999999998</ele>
        <time>2014-05-11T12:15:35Z</time>
      </trkpt>
      <trkpt lat="45.709426514804363" lon="10.116858808323741">
        <ele>279.39999999999998</ele>
        <time>2014-05-11T12:15:36Z</time>
      </trkpt>
      <trkpt lat="45.709492145106196" lon="10.116875069215894">
        <ele>279.88</ele>
        <time>2014-05-11T12:15:43Z</time>
      </trkpt>
      <trkpt lat="45.709505388513207" lon="10.116878589615226">
        <ele>279.88</ele>
        <time>2014-05-11T12:15:44Z</time>
      </trkpt>
      <trkpt lat="45.709655592218041" lon="10.116871381178498">
        <ele>280.36000000000001</ele>
        <time>2014-05-11T12:15:55Z</time>
      </trkpt>
      <trkpt lat="45.709812669083476" lon="10.116861993446946">
        <ele>282.27999999999997</ele>
        <time>2014-05-11T12:16:09Z</time>
      </trkpt>
      <trkpt lat="45.710027245804667" lon="10.116878673434258">
        <ele>282.76999999999998</ele>
        <time>2014-05-11T12:16:28Z</time>
      </trkpt>
      <trkpt lat="45.710298484191298" lon="10.116864843294024">
        <ele>281.31999999999999</ele>
        <time>2014-05-11T12:16:49Z</time>
      </trkpt>
      <trkpt lat="45.710310051217675" lon="10.116858975961804">
        <ele>281.31999999999999</ele>
        <time>2014-05-11T12:16:50Z</time>
      </trkpt>
      <trkpt lat="45.710320863872766" lon="10.116856964305043">
        <ele>281.31999999999999</ele>
        <time>2014-05-11T12:16:51Z</time>
      </trkpt>
      <trkpt lat="45.710330503061414" lon="10.116848917677999">
        <ele>281.31999999999999</ele>
        <time>2014-05-11T12:16:52Z</time>
      </trkpt>
      <trkpt lat="45.710342824459076" lon="10.116845648735762">
        <ele>281.31999999999999</ele>
        <time>2014-05-11T12:16:53Z</time>
      </trkpt>
      <trkpt lat="45.710352715104818" lon="10.116842966526747">
        <ele>281.31999999999999</ele>
        <time>2014-05-11T12:16:54Z</time>
      </trkpt>
      <trkpt lat="45.710610961541533" lon="10.116803320124745">
        <ele>280.36000000000001</ele>
        <time>2014-05-11T12:17:18Z</time>
      </trkpt>
      <trkpt lat="45.710854874923825" lon="10.116846319288015">
        <ele>280.36000000000001</ele>
        <time>2014-05-11T12:17:38Z</time>
      </trkpt>
      <trkpt lat="45.710939364507794" lon="10.116861825808883">
        <ele>281.31999999999999</ele>
        <time>2014-05-11T12:17:46Z</time>
      </trkpt>
      <trkpt lat="45.711034331470728" lon="10.116900047287345">
        <ele>282.27999999999997</ele>
        <time>2014-05-11T12:17:54Z</time>
      </trkpt>
      <trkpt lat="45.711046820506454" lon="10.11691203340888">
        <ele>282.27999999999997</ele>
        <time>2014-05-11T12:17:55Z</time>
      </trkpt>
      <trkpt lat="45.711244298145175" lon="10.117017226293683">
        <ele>281.31999999999999</ele>
        <time>2014-05-11T12:18:09Z</time>
      </trkpt>
      <trkpt lat="45.711270533502102" lon="10.116990152746439">
        <ele>280.83999999999997</ele>
        <time>2014-05-11T12:18:12Z</time>
      </trkpt>
      <trkpt lat="45.711280088871717" lon="10.116977244615555">
        <ele>280.83999999999997</ele>
        <time>2014-05-11T12:18:13Z</time>
      </trkpt>
      <trkpt lat="45.711402799934149" lon="10.116731151938438">
        <ele>277.48000000000002</ele>
        <time>2014-05-11T12:18:33Z</time>
      </trkpt>
      <trkpt lat="45.71134957484901" lon="10.116520514711738">
        <ele>273.63</ele>
        <time>2014-05-11T12:18:47Z</time>
      </trkpt>
      <trkpt lat="45.711296517401934" lon="10.1164067722857">
        <ele>272.67000000000002</ele>
        <time>2014-05-11T12:18:56Z</time>
      </trkpt>
      <trkpt lat="45.711265923455358" lon="10.116379614919424">
        <ele>272.19</ele>
        <time>2014-05-11T12:18:58Z</time>
      </trkpt>
      <trkpt lat="45.711260810494423" lon="10.116360504180193">
        <ele>271.70999999999998</ele>
        <time>2014-05-11T12:18:59Z</time>
      </trkpt>
      <trkpt lat="45.711236502975225" lon="10.116188758984208">
        <ele>269.79000000000002</ele>
        <time>2014-05-11T12:19:11Z</time>
      </trkpt>
      <trkpt lat="45.711197862401605" lon="10.116023886948824">
        <ele>267.38</ele>
        <time>2014-05-11T12:19:24Z</time>
      </trkpt>
      <trkpt lat="45.711187971755862" lon="10.116007206961513">
        <ele>266.89999999999998</ele>
        <time>2014-05-11T12:19:26Z</time>
      </trkpt>
      <trkpt lat="45.711183361709118" lon="10.115990107879043">
        <ele>266.89999999999998</ele>
        <time>2014-05-11T12:19:27Z</time>
      </trkpt>
      <trkpt lat="45.711187468841672" lon="10.115850297734141">
        <ele>265.94</ele>
        <time>2014-05-11T12:19:36Z</time>
      </trkpt>
      <trkpt lat="45.711193503811955" lon="10.115824900567532">
        <ele>265.94</ele>
        <time>2014-05-11T12:19:37Z</time>
      </trkpt>
      <trkpt lat="45.711260307580233" lon="10.115634296089411">
        <ele>265.45999999999998</ele>
        <time>2014-05-11T12:19:50Z</time>
      </trkpt>
      <trkpt lat="45.711389388889074" lon="10.115494318306446">
        <ele>265.45999999999998</ele>
        <time>2014-05-11T12:20:06Z</time>
      </trkpt>
      <trkpt lat="45.711404643952847" lon="10.115475207567215">
        <ele>265.45999999999998</ele>
        <time>2014-05-11T12:20:08Z</time>
      </trkpt>
      <trkpt lat="45.711416797712445" lon="10.115467077121139">
        <ele>265.45999999999998</ele>
        <time>2014-05-11T12:20:09Z</time>
      </trkpt>
      <trkpt lat="45.711452085524797" lon="10.115430867299438">
        <ele>264.98000000000002</ele>
        <time>2014-05-11T12:20:13Z</time>
      </trkpt>
      <trkpt lat="45.711463233456016" lon="10.115419551730156">
        <ele>264.98000000000002</ele>
        <time>2014-05-11T12:20:14Z</time>
      </trkpt>
      <trkpt lat="45.711494497954845" lon="10.115376301109791">
        <ele>264.98000000000002</ele>
        <time>2014-05-11T12:20:18Z</time>
      </trkpt>
      <trkpt lat="45.711537748575211" lon="10.115351993590593">
        <ele>264.98000000000002</ele>
        <time>2014-05-11T12:20:23Z</time>
      </trkpt>
      <trkpt lat="45.711637828499079" lon="10.115330284461379">
        <ele>264.5</ele>
        <time>2014-05-11T12:20:40Z</time>
      </trkpt>
      <trkpt lat="45.711683174595237" lon="10.115356352180243">
        <ele>264.5</ele>
        <time>2014-05-11T12:20:51Z</time>
      </trkpt>
      <trkpt lat="45.711695244535804" lon="10.115365739911795">
        <ele>264.5</ele>
        <time>2014-05-11T12:20:52Z</time>
      </trkpt>
      <trkpt lat="45.711706560105085" lon="10.115376384928823">
        <ele>264.5</ele>
        <time>2014-05-11T12:20:53Z</time>
      </trkpt>
      <trkpt lat="45.711748972535133" lon="10.115391220897436">
        <ele>264.5</ele>
        <time>2014-05-11T12:20:58Z</time>
      </trkpt>
      <trkpt lat="45.71176347322762" lon="10.115398848429322">
        <ele>264.5</ele>
        <time>2014-05-11T12:20:59Z</time>
      </trkpt>
      <trkpt lat="45.7117800693959" lon="10.115411840379238">
        <ele>264.5</ele>
        <time>2014-05-11T12:21:00Z</time>
      </trkpt>
      <trkpt lat="45.711796246469021" lon="10.115430699661374">
        <ele>264.5</ele>
        <time>2014-05-11T12:21:01Z</time>
      </trkpt>
      <trkpt lat="45.711811585351825" lon="10.115443272516131">
        <ele>264.5</ele>
        <time>2014-05-11T12:21:02Z</time>
      </trkpt>
      <trkpt lat="45.711829019710422" lon="10.115450648590922">
        <ele>264.5</ele>
        <time>2014-05-11T12:21:03Z</time>
      </trkpt>
      <trkpt lat="45.711844526231289" lon="10.115451570600271">
        <ele>264.5</ele>
        <time>2014-05-11T12:21:04Z</time>
      </trkpt>
      <trkpt lat="45.711859278380871" lon="10.115450145676732">
        <ele>264.5</ele>
        <time>2014-05-11T12:21:05Z</time>
      </trkpt>
      <trkpt lat="45.711873192340136" lon="10.115450983867049">
        <ele>263.54000000000002</ele>
        <time>2014-05-11T12:21:06Z</time>
      </trkpt>
      <trkpt lat="45.711885429918766" lon="10.11545542627573">
        <ele>263.54000000000002</ele>
        <time>2014-05-11T12:21:07Z</time>
      </trkpt>
      <trkpt lat="45.712044769898057" lon="10.115584339946508">
        <ele>263.06</ele>
        <time>2014-05-11T12:21:22Z</time>
      </trkpt>
      <trkpt lat="45.71220763027668" lon="10.115622142329812">
        <ele>262.57999999999998</ele>
        <time>2014-05-11T12:21:37Z</time>
      </trkpt>
      <trkpt lat="45.712367137894034" lon="10.115641672164202">
        <ele>263.54000000000002</ele>
        <time>2014-05-11T12:21:49Z</time>
      </trkpt>
      <trkpt lat="45.712467050179839" lon="10.115594146773219">
        <ele>264.01999999999998</ele>
        <time>2014-05-11T12:21:58Z</time>
      </trkpt>
      <trkpt lat="45.712483311071992" lon="10.115586938336492">
        <ele>264.01999999999998</ele>
        <time>2014-05-11T12:21:59Z</time>
      </trkpt>
      <trkpt lat="45.712543744593859" lon="10.11552725918591">
        <ele>263.54000000000002</ele>
        <time>2014-05-11T12:22:08Z</time>
      </trkpt>
      <trkpt lat="45.712553635239601" lon="10.115518039092422">
        <ele>263.54000000000002</ele>
        <time>2014-05-11T12:22:09Z</time>
      </trkpt>
      <trkpt lat="45.712650781497359" lon="10.115442685782909">
        <ele>263.54000000000002</ele>
        <time>2014-05-11T12:22:20Z</time>
      </trkpt>
      <trkpt lat="45.71266402490437" lon="10.115430615842342">
        <ele>263.54000000000002</ele>
        <time>2014-05-11T12:22:21Z</time>
      </trkpt>
      <trkpt lat="45.712792184203863" lon="10.115344449877739">
        <ele>262.57999999999998</ele>
        <time>2014-05-11T12:22:33Z</time>
      </trkpt>
      <trkpt lat="45.712914057075977" lon="10.115318717435002">
        <ele>262.10000000000002</ele>
        <time>2014-05-11T12:22:43Z</time>
      </trkpt>
      <trkpt lat="45.712931994348764" lon="10.115309581160545">
        <ele>262.10000000000002</ele>
        <time>2014-05-11T12:22:44Z</time>
      </trkpt>
      <trkpt lat="45.712970718741417" lon="10.115291392430663">
        <ele>262.10000000000002</ele>
        <time>2014-05-11T12:22:48Z</time>
      </trkpt>
      <trkpt lat="45.712984297424555" lon="10.11528686620295">
        <ele>262.10000000000002</ele>
        <time>2014-05-11T12:22:49Z</time>
      </trkpt>
      <trkpt lat="45.712997289374471" lon="10.115282675251365">
        <ele>262.10000000000002</ele>
        <time>2014-05-11T12:22:50Z</time>
      </trkpt>
      <trkpt lat="45.713033499196172" lon="10.115273287519813">
        <ele>262.10000000000002</ele>
        <time>2014-05-11T12:22:54Z</time>
      </trkpt>
      <trkpt lat="45.713046910241246" lon="10.115275047719479">
        <ele>262.10000000000002</ele>
        <time>2014-05-11T12:22:55Z</time>
      </trkpt>
      <trkpt lat="45.713050682097673" lon="10.115274041891098">
        <ele>263.54000000000002</ele>
        <time>2014-05-11T12:23:09Z</time>
      </trkpt>
      <trkpt lat="45.713062081485987" lon="10.115248812362552">
        <ele>263.06</ele>
        <time>2014-05-11T12:23:14Z</time>
      </trkpt>
      <trkpt lat="45.713074570521712" lon="10.115242777392268">
        <ele>263.06</ele>
        <time>2014-05-11T12:23:15Z</time>
      </trkpt>
      <trkpt lat="45.71310868486762" lon="10.11519642546773">
        <ele>263.06</ele>
        <time>2014-05-11T12:23:20Z</time>
      </trkpt>
      <trkpt lat="45.713122095912695" lon="10.115190893411636">
        <ele>263.06</ele>
        <time>2014-05-11T12:23:21Z</time>
      </trkpt>
      <trkpt lat="45.713216476142406" lon="10.115159461274743">
        <ele>263.06</ele>
        <time>2014-05-11T12:23:30Z</time>
      </trkpt>
      <trkpt lat="45.713231228291988" lon="10.115159461274743">
        <ele>263.06</ele>
        <time>2014-05-11T12:23:31Z</time>
      </trkpt>
      <trkpt lat="45.713266180828214" lon="10.115158287808299">
        <ele>261.62</ele>
        <time>2014-05-11T12:23:33Z</time>
      </trkpt>
      <trkpt lat="45.713447816669941" lon="10.115070277824998">
        <ele>259.20999999999998</ele>
        <time>2014-05-11T12:23:46Z</time>
      </trkpt>
      <trkpt lat="45.713497269898653" lon="10.115020237863064">
        <ele>257.76999999999998</ele>
        <time>2014-05-11T12:23:53Z</time>
      </trkpt>
      <trkpt lat="45.713513614609838" lon="10.115020573139191">
        <ele>257.29000000000002</ele>
        <time>2014-05-11T12:23:54Z</time>
      </trkpt>
      <trkpt lat="45.713530629873276" lon="10.115019818767905">
        <ele>257.29000000000002</ele>
        <time>2014-05-11T12:23:55Z</time>
      </trkpt>
      <trkpt lat="45.71368720382452" lon="10.114988889545202">
        <ele>255.84999999999999</ele>
        <time>2014-05-11T12:24:08Z</time>
      </trkpt>
      <trkpt lat="45.713863642886281" lon="10.114881014451385">
        <ele>254.88999999999999</ele>
        <time>2014-05-11T12:24:24Z</time>
      </trkpt>
      <trkpt lat="45.713894655928016" lon="10.114853018894792">
        <ele>256.32999999999998</ele>
        <time>2014-05-11T12:24:27Z</time>
      </trkpt>
      <trkpt lat="45.713906222954392" lon="10.114838182926178">
        <ele>256.32999999999998</ele>
        <time>2014-05-11T12:24:29Z</time>
      </trkpt>
      <trkpt lat="45.713914772495627" lon="10.114821251481771">
        <ele>256.32999999999998</ele>
        <time>2014-05-11T12:24:30Z</time>
      </trkpt>
      <trkpt lat="45.713953748345375" lon="10.114712622016668">
        <ele>254.88999999999999</ele>
        <time>2014-05-11T12:24:38Z</time>
      </trkpt>
      <trkpt lat="45.714029772207141" lon="10.114637603983283">
        <ele>254.88999999999999</ele>
        <time>2014-05-11T12:24:47Z</time>
      </trkpt>
      <trkpt lat="45.714043267071247" lon="10.114632491022348">
        <ele>254.88999999999999</ele>
        <time>2014-05-11T12:24:48Z</time>
      </trkpt>
      <trkpt lat="45.714059695601463" lon="10.114631569013">
        <ele>254.88999999999999</ele>
        <time>2014-05-11T12:24:49Z</time>
      </trkpt>
      <trkpt lat="45.714099844917655" lon="10.114626456052065">
        <ele>254.88999999999999</ele>
        <time>2014-05-11T12:24:53Z</time>
      </trkpt>
      <trkpt lat="45.714195147156715" lon="10.114590581506491">
        <ele>254.88999999999999</ele>
        <time>2014-05-11T12:25:04Z</time>
      </trkpt>
      <trkpt lat="45.714230267331004" lon="10.114579433575273">
        <ele>254.41</ele>
        <time>2014-05-11T12:25:18Z</time>
      </trkpt>
      <trkpt lat="45.714262286201119" lon="10.114551689475775">
        <ele>254.41</ele>
        <time>2014-05-11T12:25:33Z</time>
      </trkpt>
      <trkpt lat="45.714328000321984" lon="10.114521095529199">
        <ele>254.41</ele>
        <time>2014-05-11T12:25:51Z</time>
      </trkpt>
      <trkpt lat="45.714384913444519" lon="10.114469211548567">
        <ele>253.44</ele>
        <time>2014-05-11T12:26:09Z</time>
      </trkpt>
      <trkpt lat="45.714529668912292" lon="10.114407856017351">
        <ele>252</ele>
        <time>2014-05-11T12:26:23Z</time>
      </trkpt>
      <trkpt lat="45.714636454358697" lon="10.11438044719398">
        <ele>250.56</ele>
        <time>2014-05-11T12:26:35Z</time>
      </trkpt>
      <trkpt lat="45.714683476835489" lon="10.114391511306167">
        <ele>250.56</ele>
        <time>2014-05-11T12:26:40Z</time>
      </trkpt>
      <trkpt lat="45.714698815718293" lon="10.114394025877118">
        <ele>250.56</ele>
        <time>2014-05-11T12:26:41Z</time>
      </trkpt>
      <trkpt lat="45.714715160429478" lon="10.114391427487135">
        <ele>250.08000000000001</ele>
        <time>2014-05-11T12:26:42Z</time>
      </trkpt>
      <trkpt lat="45.714730834588408" lon="10.114382626488805">
        <ele>250.08000000000001</ele>
        <time>2014-05-11T12:26:43Z</time>
      </trkpt>
      <trkpt lat="45.71474558673799" lon="10.114375418052077">
        <ele>250.08000000000001</ele>
        <time>2014-05-11T12:26:44Z</time>
      </trkpt>
      <trkpt lat="45.714861508458853" lon="10.114322025328875">
        <ele>249.12</ele>
        <time>2014-05-11T12:26:56Z</time>
      </trkpt>
      <trkpt lat="45.71493367664516" lon="10.114258071407676">
        <ele>248.63999999999999</ele>
        <time>2014-05-11T12:27:11Z</time>
      </trkpt>
      <trkpt lat="45.714969802647829" lon="10.114266788586974">
        <ele>248.16</ele>
        <time>2014-05-11T12:27:15Z</time>
      </trkpt>
      <trkpt lat="45.714984303340316" lon="10.114286905154586">
        <ele>248.16</ele>
        <time>2014-05-11T12:27:16Z</time>
      </trkpt>
      <trkpt lat="45.715064099058509" lon="10.114426044747233">
        <ele>246.22999999999999</ele>
        <time>2014-05-11T12:27:27Z</time>
      </trkpt>
      <trkpt lat="45.715192928910255" lon="10.11452361010015">
        <ele>244.78999999999999</ele>
        <time>2014-05-11T12:27:40Z</time>
      </trkpt>
      <trkpt lat="45.715263755992055" lon="10.114717315882444">
        <ele>244.78999999999999</ele>
        <time>2014-05-11T12:27:55Z</time>
      </trkpt>
      <trkpt lat="45.715437345206738" lon="10.114959301427007">
        <ele>246.72</ele>
        <time>2014-05-11T12:28:14Z</time>
      </trkpt>
      <trkpt lat="45.715479170903563" lon="10.114984782412648">
        <ele>247.68000000000001</ele>
        <time>2014-05-11T12:28:30Z</time>
      </trkpt>
      <trkpt lat="45.715489229187369" lon="10.114995762705803">
        <ele>248.16</ele>
        <time>2014-05-11T12:28:48Z</time>
      </trkpt>
      <trkpt lat="45.715549159795046" lon="10.115000288933516">
        <ele>249.12</ele>
        <time>2014-05-11T12:28:57Z</time>
      </trkpt>
      <trkpt lat="45.71561872959137" lon="10.115046137943864">
        <ele>251.52000000000001</ele>
        <time>2014-05-11T12:29:08Z</time>
      </trkpt>
      <trkpt lat="45.71570229716599" lon="10.11518276296556">
        <ele>253.44</ele>
        <time>2014-05-11T12:29:20Z</time>
      </trkpt>
      <trkpt lat="45.715916538611054" lon="10.115134986117482">
        <ele>256.32999999999998</ele>
        <time>2014-05-11T12:29:40Z</time>
      </trkpt>
      <trkpt lat="45.716062048450112" lon="10.115183349698782">
        <ele>259.20999999999998</ele>
        <time>2014-05-11T12:29:55Z</time>
      </trkpt>
      <trkpt lat="45.716189285740256" lon="10.115333888679743">
        <ele>262.10000000000002</ele>
        <time>2014-05-11T12:30:13Z</time>
      </trkpt>
      <trkpt lat="45.71630721911788" lon="10.115346880629659">
        <ele>264.5</ele>
        <time>2014-05-11T12:30:30Z</time>
      </trkpt>
      <trkpt lat="45.716381566599011" lon="10.115362554788589">
        <ele>265.94</ele>
        <time>2014-05-11T12:30:42Z</time>
      </trkpt>
      <trkpt lat="45.716489776968956" lon="10.115366745740175">
        <ele>269.31</ele>
        <time>2014-05-11T12:31:00Z</time>
      </trkpt>
      <trkpt lat="45.716323647648096" lon="10.115195922553539">
        <ele>271.23000000000002</ele>
        <time>2014-05-11T12:31:18Z</time>
      </trkpt>
      <trkpt lat="45.716197080910206" lon="10.114951087161899">
        <ele>272.19</ele>
        <time>2014-05-11T12:31:42Z</time>
      </trkpt>
      <trkpt lat="45.716186016798019" lon="10.114764925092459">
        <ele>275.06999999999999</ele>
        <time>2014-05-11T12:32:01Z</time>
      </trkpt>
      <trkpt lat="45.716300848871469" lon="10.114671131595969">
        <ele>278.44</ele>
        <time>2014-05-11T12:32:23Z</time>
      </trkpt>
      <trkpt lat="45.716305961832404" lon="10.114702982828021">
        <ele>281.31999999999999</ele>
        <time>2014-05-11T12:32:44Z</time>
      </trkpt>
      <trkpt lat="45.716418949887156" lon="10.114695020020008">
        <ele>283.25</ele>
        <time>2014-05-11T12:32:56Z</time>
      </trkpt>
      <trkpt lat="45.716500505805016" lon="10.114670544862747">
        <ele>285.17000000000002</ele>
        <time>2014-05-11T12:33:09Z</time>
      </trkpt>
      <trkpt lat="45.71652221493423" lon="10.114658223465085">
        <ele>285.64999999999998</ele>
        <time>2014-05-11T12:33:15Z</time>
      </trkpt>
      <trkpt lat="45.716567980125546" lon="10.114663671702147">
        <ele>286.13</ele>
        <time>2014-05-11T12:33:21Z</time>
      </trkpt>
      <trkpt lat="45.716646853834391" lon="10.114634586498141">
        <ele>285.17000000000002</ele>
        <time>2014-05-11T12:33:31Z</time>
      </trkpt>
      <trkpt lat="45.716753806918859" lon="10.114581696689129">
        <ele>283.25</ele>
        <time>2014-05-11T12:33:45Z</time>
      </trkpt>
      <trkpt lat="45.716765709221363" lon="10.114574823528528">
        <ele>283.25</ele>
        <time>2014-05-11T12:33:46Z</time>
      </trkpt>
      <trkpt lat="45.71678314357996" lon="10.114569794386625">
        <ele>283.25</ele>
        <time>2014-05-11T12:33:47Z</time>
      </trkpt>
      <trkpt lat="45.716870399191976" lon="10.11457247659564">
        <ele>282.76999999999998</ele>
        <time>2014-05-11T12:33:56Z</time>
      </trkpt>
      <trkpt lat="45.716965533792973" lon="10.114564513787627">
        <ele>281.80000000000001</ele>
        <time>2014-05-11T12:34:09Z</time>
      </trkpt>
      <trkpt lat="45.716983890160918" lon="10.114554204046726">
        <ele>281.31999999999999</ele>
        <time>2014-05-11T12:34:12Z</time>
      </trkpt>
      <trkpt lat="45.717076929286122" lon="10.114493183791637">
        <ele>279.88</ele>
        <time>2014-05-11T12:34:26Z</time>
      </trkpt>
      <trkpt lat="45.717157730832696" lon="10.114517323672771">
        <ele>277</ele>
        <time>2014-05-11T12:34:40Z</time>
      </trkpt>
      <trkpt lat="45.717214308679104" lon="10.114464685320854">
        <ele>274.58999999999997</ele>
        <time>2014-05-11T12:34:51Z</time>
      </trkpt>
      <trkpt lat="45.717224283143878" lon="10.114367874339223">
        <ele>272.67000000000002</ele>
        <time>2014-05-11T12:35:01Z</time>
      </trkpt>
      <trkpt lat="45.717224199324846" lon="10.114260418340564">
        <ele>270.26999999999998</ele>
        <time>2014-05-11T12:35:13Z</time>
      </trkpt>
      <trkpt lat="45.717234425246716" lon="10.114177521318197">
        <ele>267.38</ele>
        <time>2014-05-11T12:35:25Z</time>
      </trkpt>
      <trkpt lat="45.717275161296129" lon="10.114064533263445">
        <ele>264.98000000000002</ele>
        <time>2014-05-11T12:35:38Z</time>
      </trkpt>
      <trkpt lat="45.717283794656396" lon="10.114049864932895">
        <ele>264.5</ele>
        <time>2014-05-11T12:35:39Z</time>
      </trkpt>
      <trkpt lat="45.71735336445272" lon="10.114069143310189">
        <ele>263.54000000000002</ele>
        <time>2014-05-11T12:35:51Z</time>
      </trkpt>
      <trkpt lat="45.71739736944437" lon="10.114125888794661">
        <ele>262.57999999999998</ele>
        <time>2014-05-11T12:35:57Z</time>
      </trkpt>
      <trkpt lat="45.717403572052717" lon="10.114138042554259">
        <ele>262.57999999999998</ele>
        <time>2014-05-11T12:35:58Z</time>
      </trkpt>
      <trkpt lat="45.717448834329844" lon="10.114167127758265">
        <ele>262.57999999999998</ele>
        <time>2014-05-11T12:36:05Z</time>
      </trkpt>
      <trkpt lat="45.71746333502233" lon="10.114177018404007">
        <ele>262.10000000000002</ele>
        <time>2014-05-11T12:36:06Z</time>
      </trkpt>
      <trkpt lat="45.717476662248373" lon="10.114194704219699">
        <ele>262.10000000000002</ele>
        <time>2014-05-11T12:36:07Z</time>
      </trkpt>
      <trkpt lat="45.717488648369908" lon="10.11421725153923">
        <ele>262.10000000000002</ele>
        <time>2014-05-11T12:36:08Z</time>
      </trkpt>
      <trkpt lat="45.717498539015651" lon="10.114236697554588">
        <ele>262.10000000000002</ele>
        <time>2014-05-11T12:36:09Z</time>
      </trkpt>
      <trkpt lat="45.717538688331842" lon="10.114260418340564">
        <ele>262.10000000000002</ele>
        <time>2014-05-11T12:36:14Z</time>
      </trkpt>
      <trkpt lat="45.717617562040687" lon="10.114297885447741">
        <ele>264.98000000000002</ele>
        <time>2014-05-11T12:36:26Z</time>
      </trkpt>
      <trkpt lat="45.717717809602618" lon="10.114340214058757">
        <ele>267.86000000000001</ele>
        <time>2014-05-11T12:36:42Z</time>
      </trkpt>
      <trkpt lat="45.71784496307373" lon="10.114299729466438">
        <ele>270.75</ele>
        <time>2014-05-11T12:37:01Z</time>
      </trkpt>
      <trkpt lat="45.717957699671388" lon="10.114299478009343">
        <ele>274.11000000000001</ele>
        <time>2014-05-11T12:37:18Z</time>
      </trkpt>
      <trkpt lat="45.718086361885071" lon="10.114333927631378">
        <ele>277.48000000000002</ele>
        <time>2014-05-11T12:37:39Z</time>
      </trkpt>
      <trkpt lat="45.718201948329806" lon="10.114413136616349">
        <ele>280.36000000000001</ele>
        <time>2014-05-11T12:37:59Z</time>
      </trkpt>
      <trkpt lat="45.718354415148497" lon="10.114442892372608">
        <ele>283.73000000000002</ele>
        <time>2014-05-11T12:38:20Z</time>
      </trkpt>
      <trkpt lat="45.718476036563516" lon="10.114491172134876">
        <ele>287.56999999999999</ele>
        <time>2014-05-11T12:38:41Z</time>
      </trkpt>
      <trkpt lat="45.718460697680712" lon="10.114486394450068">
        <ele>287.56999999999999</ele>
        <time>2014-05-11T12:38:59Z</time>
      </trkpt>
      <trkpt lat="45.718517610803246" lon="10.114526376128197">
        <ele>288.52999999999997</ele>
        <time>2014-05-11T12:39:24Z</time>
      </trkpt>
      <trkpt lat="45.718586761504412" lon="10.114443562924862">
        <ele>289.49000000000001</ele>
        <time>2014-05-11T12:39:39Z</time>
      </trkpt>
      <trkpt lat="45.718634454533458" lon="10.114457728341222">
        <ele>291.89999999999998</ele>
        <time>2014-05-11T12:39:53Z</time>
      </trkpt>
      <trkpt lat="45.718659684062004" lon="10.114367958158255">
        <ele>294.30000000000001</ele>
        <time>2014-05-11T12:40:05Z</time>
      </trkpt>
      <trkpt lat="45.718690110370517" lon="10.114304842427373">
        <ele>296.22000000000003</ele>
        <time>2014-05-11T12:40:14Z</time>
      </trkpt>
      <trkpt lat="45.718702180311084" lon="10.114302327856421">
        <ele>296.22000000000003</ele>
        <time>2014-05-11T12:40:15Z</time>
      </trkpt>
      <trkpt lat="45.718743503093719" lon="10.114291682839394">
        <ele>298.14999999999998</ele>
        <time>2014-05-11T12:40:21Z</time>
      </trkpt>
      <trkpt lat="45.718754734843969" lon="10.11429344303906">
        <ele>298.14999999999998</ele>
        <time>2014-05-11T12:40:22Z</time>
      </trkpt>
      <trkpt lat="45.718828830868006" lon="10.114299142733216">
        <ele>301.02999999999997</ele>
        <time>2014-05-11T12:40:35Z</time>
      </trkpt>
      <trkpt lat="45.718914493918419" lon="10.114301070570946">
        <ele>302.47000000000003</ele>
        <time>2014-05-11T12:40:58Z</time>
      </trkpt>
      <trkpt lat="45.719016585499048" lon="10.114302411675453">
        <ele>305.36000000000001</ele>
        <time>2014-05-11T12:41:15Z</time>
      </trkpt>
      <trkpt lat="45.719097470864654" lon="10.114308530464768">
        <ele>305.83999999999997</ele>
        <time>2014-05-11T12:41:32Z</time>
      </trkpt>
      <trkpt lat="45.719118090346456" lon="10.114311967045069">
        <ele>305.83999999999997</ele>
        <time>2014-05-11T12:41:35Z</time>
      </trkpt>
      <trkpt lat="45.719145331531763" lon="10.11434817686677">
        <ele>306.80000000000001</ele>
        <time>2014-05-11T12:41:55Z</time>
      </trkpt>
      <trkpt lat="45.719168046489358" lon="10.114373071119189">
        <ele>306.80000000000001</ele>
        <time>2014-05-11T12:42:03Z</time>
      </trkpt>
      <trkpt lat="45.719352951273322" lon="10.114412046968937">
        <ele>309.19999999999999</ele>
        <time>2014-05-11T12:42:17Z</time>
      </trkpt>
      <trkpt lat="45.719498628750443" lon="10.114472396671772">
        <ele>312.08999999999997</ele>
        <time>2014-05-11T12:42:31Z</time>
      </trkpt>
      <trkpt lat="45.719606084749103" lon="10.114497374743223">
        <ele>315.44999999999999</ele>
        <time>2014-05-11T12:42:44Z</time>
      </trkpt>
      <trkpt lat="45.71969099342823" lon="10.114433672279119">
        <ele>317.37</ele>
        <time>2014-05-11T12:43:03Z</time>
      </trkpt>
      <trkpt lat="45.719833066686988" lon="10.11436527594924">
        <ele>319.30000000000001</ele>
        <time>2014-05-11T12:43:22Z</time>
      </trkpt>
      <trkpt lat="45.720072370022535" lon="10.114382123574615">
        <ele>322.18000000000001</ele>
        <time>2014-05-11T12:43:45Z</time>
      </trkpt>
      <trkpt lat="45.720313098281622" lon="10.114377681165934">
        <ele>324.10000000000002</ele>
        <time>2014-05-11T12:44:08Z</time>
      </trkpt>
      <trkpt lat="45.720315529033542" lon="10.114162936806679">
        <ele>326.01999999999998</ele>
        <time>2014-05-11T12:44:26Z</time>
      </trkpt>
      <trkpt lat="45.720412759110332" lon="10.114141060039401">
        <ele>329.38999999999999</ele>
        <time>2014-05-11T12:44:39Z</time>
      </trkpt>
      <trkpt lat="45.720494147390127" lon="10.114281624555588">
        <ele>332.26999999999998</ele>
        <time>2014-05-11T12:44:56Z</time>
      </trkpt>
      <trkpt lat="45.720575535669923" lon="10.114358570426702">
        <ele>335.16000000000003</ele>
        <time>2014-05-11T12:45:09Z</time>
      </trkpt>
      <trkpt lat="45.72073076851666" lon="10.114450855180621">
        <ele>338.04000000000002</ele>
        <time>2014-05-11T12:45:31Z</time>
      </trkpt>
      <trkpt lat="45.720898741856217" lon="10.114488070830703">
        <ele>340.44</ele>
        <time>2014-05-11T12:45:49Z</time>
      </trkpt>
      <trkpt lat="45.720993876457214" lon="10.114529645070434">
        <ele>342.37</ele>
        <time>2014-05-11T12:46:00Z</time>
      </trkpt>
      <trkpt lat="45.721130920574069" lon="10.114585217088461">
        <ele>346.20999999999998</ele>
        <time>2014-05-11T12:46:13Z</time>
      </trkpt>
      <trkpt lat="45.721197724342346" lon="10.11461153626442">
        <ele>346.20999999999998</ele>
        <time>2014-05-11T12:46:21Z</time>
      </trkpt>
      <trkpt lat="45.721300151199102" lon="10.114666018635035">
        <ele>349.10000000000002</ele>
        <time>2014-05-11T12:46:36Z</time>
      </trkpt>
      <trkpt lat="45.721316579729319" lon="10.11472393758595">
        <ele>349.10000000000002</ele>
        <time>2014-05-11T12:47:00Z</time>
      </trkpt>
      <trkpt lat="45.721323033794761" lon="10.114722428843379">
        <ele>349.57999999999998</ele>
        <time>2014-05-11T12:47:16Z</time>
      </trkpt>
      <trkpt lat="45.721341809257865" lon="10.114728715270758">
        <ele>349.57999999999998</ele>
        <time>2014-05-11T12:47:24Z</time>
      </trkpt>
      <trkpt lat="45.721339378505945" lon="10.114738857373595">
        <ele>349.10000000000002</ele>
        <time>2014-05-11T12:47:37Z</time>
      </trkpt>
      <trkpt lat="45.721323871985078" lon="10.114760985597968">
        <ele>349.10000000000002</ele>
        <time>2014-05-11T12:47:49Z</time>
      </trkpt>
      <trkpt lat="45.721333092078567" lon="10.114725697785616">
        <ele>349.10000000000002</ele>
        <time>2014-05-11T12:48:01Z</time>
      </trkpt>
      <trkpt lat="45.721364188939333" lon="10.114745814353228">
        <ele>349.57999999999998</ele>
        <time>2014-05-11T12:48:08Z</time>
      </trkpt>
      <trkpt lat="45.721386736258864" lon="10.11468194425106">
        <ele>349.57999999999998</ele>
        <time>2014-05-11T12:48:12Z</time>
      </trkpt>
      <trkpt lat="45.721454378217459" lon="10.114448005333543">
        <ele>349.57999999999998</ele>
        <time>2014-05-11T12:48:27Z</time>
      </trkpt>
      <trkpt lat="45.721495281904936" lon="10.114250695332885">
        <ele>348.13</ele>
        <time>2014-05-11T12:48:39Z</time>
      </trkpt>
      <trkpt lat="45.721497209742665" lon="10.114246923476458">
        <ele>348.13</ele>
        <time>2014-05-11T12:48:56Z</time>
      </trkpt>
      <trkpt lat="45.721514979377389" lon="10.114161092787981">
        <ele>348.13</ele>
        <time>2014-05-11T12:49:09Z</time>
      </trkpt>
      <trkpt lat="45.72152235545218" lon="10.114137623459101">
        <ele>349.10000000000002</ele>
        <time>2014-05-11T12:49:32Z</time>
      </trkpt>
      <trkpt lat="45.721513973549008" lon="10.114118261262774">
        <ele>349.10000000000002</ele>
        <time>2014-05-11T12:49:58Z</time>
      </trkpt>
      <trkpt lat="45.721513219177723" lon="10.1141307502985">
        <ele>348.62</ele>
        <time>2014-05-11T12:50:12Z</time>
      </trkpt>
      <trkpt lat="45.721521098166704" lon="10.114111388102174">
        <ele>348.62</ele>
        <time>2014-05-11T12:50:28Z</time>
      </trkpt>
      <trkpt lat="45.721527300775051" lon="10.114114489406347">
        <ele>348.62</ele>
        <time>2014-05-11T12:50:44Z</time>
      </trkpt>
      <trkpt lat="45.721527216956019" lon="10.114139802753925">
        <ele>349.10000000000002</ele>
        <time>2014-05-11T12:51:04Z</time>
      </trkpt>
      <trkpt lat="45.721526965498924" lon="10.114127732813358">
        <ele>349.10000000000002</ele>
        <time>2014-05-11T12:51:19Z</time>
      </trkpt>
      <trkpt lat="45.721530821174383" lon="10.114123374223709">
        <ele>349.10000000000002</ele>
        <time>2014-05-11T12:51:28Z</time>
      </trkpt>
      <trkpt lat="45.721594356000423" lon="10.114067299291492">
        <ele>349.10000000000002</ele>
        <time>2014-05-11T12:51:39Z</time>
      </trkpt>
      <trkpt lat="45.721608772873878" lon="10.114052630960941">
        <ele>349.10000000000002</ele>
        <time>2014-05-11T12:51:55Z</time>
      </trkpt>
      <trkpt lat="45.721599720418453" lon="10.11403888463974">
        <ele>348.62</ele>
        <time>2014-05-11T12:52:15Z</time>
      </trkpt>
      <trkpt lat="45.721618747338653" lon="10.114065958186984">
        <ele>347.64999999999998</ele>
        <time>2014-05-11T12:52:38Z</time>
      </trkpt>
      <trkpt lat="45.721629140898585" lon="10.114069059491158">
        <ele>347.64999999999998</ele>
        <time>2014-05-11T12:52:56Z</time>
      </trkpt>
      <trkpt lat="45.721615394577384" lon="10.114057743921876">
        <ele>347.17000000000002</ele>
        <time>2014-05-11T12:53:10Z</time>
      </trkpt>
      <trkpt lat="45.721606509760022" lon="10.114041147753596">
        <ele>347.17000000000002</ele>
        <time>2014-05-11T12:53:27Z</time>
      </trkpt>
      <trkpt lat="45.72164255194366" lon="10.114021366462111">
        <ele>347.17000000000002</ele>
        <time>2014-05-11T12:53:43Z</time>
      </trkpt>
      <trkpt lat="45.721644312143326" lon="10.114028910174966">
        <ele>347.17000000000002</ele>
        <time>2014-05-11T12:54:08Z</time>
      </trkpt>
      <trkpt lat="45.721638528630137" lon="10.1140340231359">
        <ele>348.62</ele>
        <time>2014-05-11T12:54:15Z</time>
      </trkpt>
      <trkpt lat="45.721629308536649" lon="10.114038717001677">
        <ele>348.62</ele>
        <time>2014-05-11T12:54:42Z</time>
      </trkpt>
      <trkpt lat="45.721637103706598" lon="10.114060342311859">
        <ele>348.62</ele>
        <time>2014-05-11T12:55:09Z</time>
      </trkpt>
      <trkpt lat="45.72165235877037" lon="10.114066293463111">
        <ele>348.62</ele>
        <time>2014-05-11T12:55:25Z</time>
      </trkpt>
      <trkpt lat="45.721647413447499" lon="10.1140564866364">
        <ele>348.62</ele>
        <time>2014-05-11T12:55:41Z</time>
      </trkpt>
      <trkpt lat="45.721645234152675" lon="10.114059755578637">
        <ele>347.17000000000002</ele>
        <time>2014-05-11T12:55:44Z</time>
      </trkpt>
      <trkpt lat="45.721659064292908" lon="10.114048607647419">
        <ele>348.62</ele>
        <time>2014-05-11T12:55:50Z</time>
      </trkpt>
      <trkpt lat="45.721683539450169" lon="10.114024970680475">
        <ele>348.13</ele>
        <time>2014-05-11T12:56:05Z</time>
      </trkpt>
      <trkpt lat="45.721711367368698" lon="10.114017259329557">
        <ele>348.13</ele>
        <time>2014-05-11T12:56:22Z</time>
      </trkpt>
      <trkpt lat="45.72171145118773" lon="10.114009464159608">
        <ele>348.13</ele>
        <time>2014-05-11T12:56:39Z</time>
      </trkpt>
      <trkpt lat="45.721723856404424" lon="10.114024551585317">
        <ele>348.13</ele>
        <time>2014-05-11T12:57:02Z</time>
      </trkpt>
      <trkpt lat="45.721731903031468" lon="10.114035028964281">
        <ele>348.13</ele>
        <time>2014-05-11T12:57:20Z</time>
      </trkpt>
      <trkpt lat="45.721745230257511" lon="10.11403352022171">
        <ele>347.64999999999998</ele>
        <time>2014-05-11T12:57:36Z</time>
      </trkpt>
      <trkpt lat="45.721722012385726" lon="10.114043746143579">
        <ele>347.64999999999998</ele>
        <time>2014-05-11T12:57:53Z</time>
      </trkpt>
      <trkpt lat="45.721703739836812" lon="10.114039974287152">
        <ele>347.64999999999998</ele>
        <time>2014-05-11T12:58:05Z</time>
      </trkpt>
      <trkpt lat="45.721709439530969" lon="10.114005859941244">
        <ele>347.64999999999998</ele>
        <time>2014-05-11T12:58:14Z</time>
      </trkpt>
      <trkpt lat="45.721767442300916" lon="10.113967387005687">
        <ele>347.64999999999998</ele>
        <time>2014-05-11T12:58:22Z</time>
      </trkpt>
      <trkpt lat="45.721910605207086" lon="10.113866217434406">
        <ele>347.64999999999998</ele>
        <time>2014-05-11T12:58:41Z</time>
      </trkpt>
      <trkpt lat="45.722019067034125" lon="10.113705201074481">
        <ele>347.64999999999998</ele>
        <time>2014-05-11T12:58:59Z</time>
      </trkpt>
      <trkpt lat="45.722051337361336" lon="10.113533958792686">
        <ele>346.20999999999998</ele>
        <time>2014-05-11T12:59:20Z</time>
      </trkpt>
      <trkpt lat="45.722131133079529" lon="10.113344779238105">
        <ele>344.29000000000002</ele>
        <time>2014-05-11T12:59:42Z</time>
      </trkpt>
      <trkpt lat="45.722200954332948" lon="10.113196168094873">
        <ele>341.41000000000003</ele>
        <time>2014-05-11T13:00:00Z</time>
      </trkpt>
      <trkpt lat="45.72224261239171" lon="10.113141685724258">
        <ele>340.44</ele>
        <time>2014-05-11T13:00:07Z</time>
      </trkpt>
      <trkpt lat="45.722259795293212" lon="10.11311930604279">
        <ele>340.44</ele>
        <time>2014-05-11T13:00:10Z</time>
      </trkpt>
      <trkpt lat="45.722275134176016" lon="10.113101871684194">
        <ele>339.95999999999998</ele>
        <time>2014-05-11T13:00:13Z</time>
      </trkpt>
      <trkpt lat="45.72233104147017" lon="10.113071361556649">
        <ele>339</ele>
        <time>2014-05-11T13:00:23Z</time>
      </trkpt>
      <trkpt lat="45.722341351211071" lon="10.113068260252476">
        <ele>339</ele>
        <time>2014-05-11T13:00:24Z</time>
      </trkpt>
      <trkpt lat="45.722366496920586" lon="10.113055435940623">
        <ele>338.51999999999998</ele>
        <time>2014-05-11T13:00:27Z</time>
      </trkpt>
      <trkpt lat="45.722441682592034" lon="10.112972958013415">
        <ele>336.12</ele>
        <time>2014-05-11T13:00:43Z</time>
      </trkpt>
      <trkpt lat="45.722452914342284" lon="10.112929791212082">
        <ele>336.12</ele>
        <time>2014-05-11T13:01:02Z</time>
      </trkpt>
      <trkpt lat="45.722470097243786" lon="10.112844379618764">
        <ele>335.63999999999999</ele>
        <time>2014-05-11T13:01:29Z</time>
      </trkpt>
      <trkpt lat="45.722487615421414" lon="10.112872626632452">
        <ele>335.16000000000003</ele>
        <time>2014-05-11T13:01:44Z</time>
      </trkpt>
      <trkpt lat="45.722500775009394" lon="10.112870950251818">
        <ele>335.16000000000003</ele>
        <time>2014-05-11T13:02:04Z</time>
      </trkpt>
      <trkpt lat="45.722493818029761" lon="10.112844631075859">
        <ele>335.16000000000003</ele>
        <time>2014-05-11T13:02:22Z</time>
      </trkpt>
      <trkpt lat="45.722510078921914" lon="10.112801296636462">
        <ele>334.68000000000001</ele>
        <time>2014-05-11T13:02:35Z</time>
      </trkpt>
      <trkpt lat="45.722531955689192" lon="10.112758716568351">
        <ele>334.19999999999999</ele>
        <time>2014-05-11T13:02:47Z</time>
      </trkpt>
      <trkpt lat="45.722539164125919" lon="10.112721752375364">
        <ele>334.19999999999999</ele>
        <time>2014-05-11T13:02:57Z</time>
      </trkpt>
      <trkpt lat="45.722558107227087" lon="10.112644052132964">
        <ele>333.70999999999998</ele>
        <time>2014-05-11T13:03:03Z</time>
      </trkpt>
      <trkpt lat="45.72262960486114" lon="10.11251924559474">
        <ele>330.82999999999998</ele>
        <time>2014-05-11T13:03:11Z</time>
      </trkpt>
      <trkpt lat="45.722635556012392" lon="10.112504744902253">
        <ele>330.82999999999998</ele>
        <time>2014-05-11T13:03:13Z</time>
      </trkpt>
      <trkpt lat="45.722639411687851" lon="10.112450430169702">
        <ele>328.91000000000003</ele>
        <time>2014-05-11T13:03:19Z</time>
      </trkpt>
      <trkpt lat="45.722635723650455" lon="10.112426374107599">
        <ele>328.43000000000001</ele>
        <time>2014-05-11T13:03:30Z</time>
      </trkpt>
      <trkpt lat="45.722667155787349" lon="10.112398630008101">
        <ele>328.43000000000001</ele>
        <time>2014-05-11T13:03:58Z</time>
      </trkpt>
      <trkpt lat="45.722673190757632" lon="10.112322941422462">
        <ele>326.99000000000001</ele>
        <time>2014-05-11T13:04:08Z</time>
      </trkpt>
      <trkpt lat="45.72266380302608" lon="10.112242558971047">
        <ele>325.54000000000002</ele>
        <time>2014-05-11T13:04:16Z</time>
      </trkpt>
      <trkpt lat="45.722660282626748" lon="10.112216575071216">
        <ele>325.06</ele>
        <time>2014-05-11T13:04:18Z</time>
      </trkpt>
      <trkpt lat="45.722626419737935" lon="10.112036364153028">
        <ele>322.66000000000003</ele>
        <time>2014-05-11T13:04:33Z</time>
      </trkpt>
      <trkpt lat="45.722610829398036" lon="10.111942738294601">
        <ele>321.22000000000003</ele>
        <time>2014-05-11T13:04:40Z</time>
      </trkpt>
      <trkpt lat="45.7226403336972" lon="10.11176529340446">
        <ele>318.81</ele>
        <time>2014-05-11T13:04:51Z</time>
      </trkpt>
      <trkpt lat="45.722672436386347" lon="10.111490450799465">
        <ele>315.44999999999999</ele>
        <time>2014-05-11T13:05:05Z</time>
      </trkpt>
      <trkpt lat="45.722760614007711" lon="10.111256344243884">
        <ele>313.52999999999997</ele>
        <time>2014-05-11T13:05:21Z</time>
      </trkpt>
      <trkpt lat="45.722772516310215" lon="10.111235808581114">
        <ele>313.52999999999997</ele>
        <time>2014-05-11T13:05:23Z</time>
      </trkpt>
      <trkpt lat="45.722781484946609" lon="10.111218877136707">
        <ele>313.52999999999997</ele>
        <time>2014-05-11T13:05:24Z</time>
      </trkpt>
      <trkpt lat="45.722853317856789" lon="10.111101279035211">
        <ele>311.12</ele>
        <time>2014-05-11T13:05:36Z</time>
      </trkpt>
      <trkpt lat="45.722980890423059" lon="10.111019220203161">
        <ele>307.75999999999999</ele>
        <time>2014-05-11T13:05:48Z</time>
      </trkpt>
      <trkpt lat="45.723055908456445" lon="10.110914027318358">
        <ele>304.88</ele>
        <time>2014-05-11T13:05:57Z</time>
      </trkpt>
      <trkpt lat="45.723063452169299" lon="10.110898856073618">
        <ele>304.88</ele>
        <time>2014-05-11T13:05:58Z</time>
      </trkpt>
      <trkpt lat="45.723072504624724" lon="10.110883181914687">
        <ele>304.38999999999999</ele>
        <time>2014-05-11T13:05:59Z</time>
      </trkpt>
      <trkpt lat="45.723083317279816" lon="10.110867843031883">
        <ele>304.38999999999999</ele>
        <time>2014-05-11T13:06:00Z</time>
      </trkpt>
      <trkpt lat="45.723096812143922" lon="10.110853845253587">
        <ele>303.91000000000003</ele>
        <time>2014-05-11T13:06:01Z</time>
      </trkpt>
      <trkpt lat="45.723111648112535" lon="10.110839512199163">
        <ele>303.91000000000003</ele>
        <time>2014-05-11T13:06:02Z</time>
      </trkpt>
      <trkpt lat="45.723313149064779" lon="10.110677490010858">
        <ele>300.55000000000001</ele>
        <time>2014-05-11T13:06:15Z</time>
      </trkpt>
      <trkpt lat="45.723395459353924" lon="10.110628707334399">
        <ele>297.18000000000001</ele>
        <time>2014-05-11T13:06:25Z</time>
      </trkpt>
      <trkpt lat="45.723518924787641" lon="10.110597610473633">
        <ele>293.81999999999999</ele>
        <time>2014-05-11T13:06:36Z</time>
      </trkpt>
      <trkpt lat="45.723631996661425" lon="10.110489651560783">
        <ele>290.94</ele>
        <time>2014-05-11T13:06:51Z</time>
      </trkpt>
      <trkpt lat="45.723660243675113" lon="10.110345315188169">
        <ele>287.08999999999997</ele>
        <time>2014-05-11T13:07:04Z</time>
      </trkpt>
      <trkpt lat="45.723652364686131" lon="10.110323689877987">
        <ele>286.61000000000001</ele>
        <time>2014-05-11T13:07:06Z</time>
      </trkpt>
      <trkpt lat="45.723644569516182" lon="10.110310697928071">
        <ele>286.61000000000001</ele>
        <time>2014-05-11T13:07:07Z</time>
      </trkpt>
      <trkpt lat="45.723614059388638" lon="10.11012302711606">
        <ele>283.25</ele>
        <time>2014-05-11T13:07:18Z</time>
      </trkpt>
      <trkpt lat="45.723628476262093" lon="10.110006602481008">
        <ele>281.80000000000001</ele>
        <time>2014-05-11T13:07:24Z</time>
      </trkpt>
      <trkpt lat="45.723630068823695" lon="10.109961843118072">
        <ele>280.83999999999997</ele>
        <time>2014-05-11T13:07:26Z</time>
      </trkpt>
      <trkpt lat="45.723677426576614" lon="10.109786745160818">
        <ele>279.88</ele>
        <time>2014-05-11T13:07:40Z</time>
      </trkpt>
      <trkpt lat="45.723834168165922" lon="10.109680462628603">
        <ele>277.48000000000002</ele>
        <time>2014-05-11T13:07:59Z</time>
      </trkpt>
      <trkpt lat="45.723898122087121" lon="10.109647940844297">
        <ele>276.04000000000002</ele>
        <time>2014-05-11T13:08:05Z</time>
      </trkpt>
      <trkpt lat="45.723915304988623" lon="10.109641402959824">
        <ele>275.56</ele>
        <time>2014-05-11T13:08:06Z</time>
      </trkpt>
      <trkpt lat="45.723933996632695" lon="10.10963486507535">
        <ele>275.56</ele>
        <time>2014-05-11T13:08:07Z</time>
      </trkpt>
      <trkpt lat="45.724070705473423" lon="10.109475860372186">
        <ele>272.67000000000002</ele>
        <time>2014-05-11T13:08:20Z</time>
      </trkpt>
      <trkpt lat="45.724081266671419" lon="10.109441913664341">
        <ele>272.19</ele>
        <time>2014-05-11T13:08:22Z</time>
      </trkpt>
      <trkpt lat="45.724100125953555" lon="10.109319537878036">
        <ele>270.26999999999998</ele>
        <time>2014-05-11T13:08:35Z</time>
      </trkpt>
      <trkpt lat="45.724112782627344" lon="10.109266564249992">
        <ele>269.79000000000002</ele>
        <time>2014-05-11T13:08:55Z</time>
      </trkpt>
      <trkpt lat="45.724141616374254" lon="10.109196407720447">
        <ele>268.35000000000002</ele>
        <time>2014-05-11T13:09:14Z</time>
      </trkpt>
      <trkpt lat="45.724174557253718" lon="10.109090209007263">
        <ele>267.86000000000001</ele>
        <time>2014-05-11T13:09:31Z</time>
      </trkpt>
      <trkpt lat="45.724191991612315" lon="10.108989458531141">
        <ele>265.45999999999998</ele>
        <time>2014-05-11T13:09:42Z</time>
      </trkpt>
      <trkpt lat="45.724199870601296" lon="10.108951572328806">
        <ele>265.45999999999998</ele>
        <time>2014-05-11T13:10:06Z</time>
      </trkpt>
      <trkpt lat="45.724219735711813" lon="10.108897006139159">
        <ele>264.5</ele>
        <time>2014-05-11T13:10:22Z</time>
      </trkpt>
      <trkpt lat="45.724218562245369" lon="10.108874123543501">
        <ele>264.01999999999998</ele>
        <time>2014-05-11T13:10:27Z</time>
      </trkpt>
      <trkpt lat="45.72421227581799" lon="10.108858197927475">
        <ele>264.01999999999998</ele>
        <time>2014-05-11T13:10:28Z</time>
      </trkpt>
      <trkpt lat="45.724184531718493" lon="10.108859371393919">
        <ele>264.01999999999998</ele>
        <time>2014-05-11T13:10:32Z</time>
      </trkpt>
      <trkpt lat="45.724169025197625" lon="10.108861969783902">
        <ele>264.01999999999998</ele>
        <time>2014-05-11T13:10:33Z</time>
      </trkpt>
      <trkpt lat="45.724151926115155" lon="10.108867082744837">
        <ele>264.01999999999998</ele>
        <time>2014-05-11T13:10:34Z</time>
      </trkpt>
      <trkpt lat="45.724112866446376" lon="10.108885606750846">
        <ele>264.01999999999998</ele>
        <time>2014-05-11T13:10:48Z</time>
      </trkpt>
      <trkpt lat="45.72411747649312" lon="10.10887797921896">
        <ele>264.01999999999998</ele>
        <time>2014-05-11T13:11:09Z</time>
      </trkpt>
      <trkpt lat="45.724152345210314" lon="10.108882421627641">
        <ele>264.01999999999998</ele>
        <time>2014-05-11T13:11:14Z</time>
      </trkpt>
      <trkpt lat="45.724199283868074" lon="10.108891725540161">
        <ele>264.01999999999998</ele>
        <time>2014-05-11T13:11:20Z</time>
      </trkpt>
      <trkpt lat="45.724212191998959" lon="10.108894826844335">
        <ele>264.01999999999998</ele>
        <time>2014-05-11T13:11:21Z</time>
      </trkpt>
      <trkpt lat="45.724295172840357" lon="10.108868423849344">
        <ele>264.01999999999998</ele>
        <time>2014-05-11T13:11:37Z</time>
      </trkpt>
      <trkpt lat="45.724322581663728" lon="10.108865490183234">
        <ele>265.45999999999998</ele>
        <time>2014-05-11T13:11:47Z</time>
      </trkpt>
      <trkpt lat="45.724350661039352" lon="10.108841685578227">
        <ele>266.89999999999998</ele>
        <time>2014-05-11T13:11:53Z</time>
      </trkpt>
      <trkpt lat="45.724389888346195" lon="10.108798099681735">
        <ele>267.38</ele>
        <time>2014-05-11T13:12:12Z</time>
      </trkpt>
      <trkpt lat="45.724386451765895" lon="10.108841266483068">
        <ele>267.38</ele>
        <time>2014-05-11T13:12:45Z</time>
      </trkpt>
      <trkpt lat="45.724387038499117" lon="10.108839003369212">
        <ele>267.38</ele>
        <time>2014-05-11T13:13:20Z</time>
      </trkpt>
      <trkpt lat="45.724484268575907" lon="10.108805391937494">
        <ele>267.86000000000001</ele>
        <time>2014-05-11T13:13:32Z</time>
      </trkpt>
      <trkpt lat="45.724658779799938" lon="10.108830453827977">
        <ele>271.23000000000002</ele>
        <time>2014-05-11T13:13:51Z</time>
      </trkpt>
      <trkpt lat="45.724850138649344" lon="10.108833303675056">
        <ele>273.63</ele>
        <time>2014-05-11T13:14:12Z</time>
      </trkpt>
      <trkpt lat="45.725029846653342" lon="10.108647393062711">
        <ele>277.48000000000002</ele>
        <time>2014-05-11T13:14:35Z</time>
      </trkpt>
      <trkpt lat="45.72520419023931" lon="10.1085149589926">
        <ele>279.39999999999998</ele>
        <time>2014-05-11T13:14:53Z</time>
      </trkpt>
      <trkpt lat="45.725225564092398" lon="10.108501799404621">
        <ele>279.88</ele>
        <time>2014-05-11T13:14:56Z</time>
      </trkpt>
      <trkpt lat="45.72523788549006" lon="10.108505571261048">
        <ele>279.88</ele>
        <time>2014-05-11T13:14:57Z</time>
      </trkpt>
      <trkpt lat="45.72525448165834" lon="10.108506828546524">
        <ele>279.88</ele>
        <time>2014-05-11T13:15:00Z</time>
      </trkpt>
      <trkpt lat="45.725267305970192" lon="10.108501631766558">
        <ele>280.36000000000001</ele>
        <time>2014-05-11T13:15:01Z</time>
      </trkpt>
      <trkpt lat="45.725364368408918" lon="10.108475228771567">
        <ele>281.80000000000001</ele>
        <time>2014-05-11T13:15:10Z</time>
      </trkpt>
      <trkpt lat="45.725381886586547" lon="10.108458800241351">
        <ele>281.80000000000001</ele>
        <time>2014-05-11T13:15:13Z</time>
      </trkpt>
      <trkpt lat="45.725392196327448" lon="10.108452932909131">
        <ele>282.27999999999997</ele>
        <time>2014-05-11T13:15:14Z</time>
      </trkpt>
      <trkpt lat="45.725499484688044" lon="10.108384117484093">
        <ele>284.20999999999998</ele>
        <time>2014-05-11T13:15:27Z</time>
      </trkpt>
      <trkpt lat="45.725580370053649" lon="10.108273224905133">
        <ele>286.13</ele>
        <time>2014-05-11T13:15:38Z</time>
      </trkpt>
      <trkpt lat="45.725630577653646" lon="10.108137521892786">
        <ele>286.61000000000001</ele>
        <time>2014-05-11T13:15:48Z</time>
      </trkpt>
      <trkpt lat="45.725635271519423" lon="10.108115142211318">
        <ele>287.08999999999997</ele>
        <time>2014-05-11T13:15:49Z</time>
      </trkpt>
      <trkpt lat="45.725690424442291" lon="10.107936859130859">
        <ele>288.52999999999997</ele>
        <time>2014-05-11T13:16:00Z</time>
      </trkpt>
      <trkpt lat="45.725739626213908" lon="10.107823200523853">
        <ele>289.49000000000001</ele>
        <time>2014-05-11T13:16:10Z</time>
      </trkpt>
      <trkpt lat="45.72575680911541" lon="10.107842227444053">
        <ele>289.97000000000003</ele>
        <time>2014-05-11T13:16:27Z</time>
      </trkpt>
      <trkpt lat="45.725750355049968" lon="10.107845915481448">
        <ele>289.97000000000003</ele>
        <time>2014-05-11T13:16:59Z</time>
      </trkpt>
      <trkpt lat="45.725755300372839" lon="10.107836108654737">
        <ele>290.45999999999998</ele>
        <time>2014-05-11T13:17:13Z</time>
      </trkpt>
      <trkpt lat="45.725744487717748" lon="10.107838623225689">
        <ele>290.45999999999998</ele>
        <time>2014-05-11T13:17:39Z</time>
      </trkpt>
      <trkpt lat="45.725762424990535" lon="10.107838707044721">
        <ele>289.97000000000003</ele>
        <time>2014-05-11T13:18:10Z</time>
      </trkpt>
      <trkpt lat="45.725783798843622" lon="10.107828313484788">
        <ele>289.97000000000003</ele>
        <time>2014-05-11T13:18:33Z</time>
      </trkpt>
      <trkpt lat="45.725762005895376" lon="10.107821272686124">
        <ele>289.97000000000003</ele>
        <time>2014-05-11T13:19:02Z</time>
      </trkpt>
      <trkpt lat="45.725768711417913" lon="10.107810376212001">
        <ele>290.45999999999998</ele>
        <time>2014-05-11T13:19:32Z</time>
      </trkpt>
      <trkpt lat="45.725803077220917" lon="10.107790175825357">
        <ele>290.94</ele>
        <time>2014-05-11T13:19:56Z</time>
      </trkpt>
      <trkpt lat="45.725798718631268" lon="10.107782129198313">
        <ele>291.89999999999998</ele>
        <time>2014-05-11T13:20:20Z</time>
      </trkpt>
      <trkpt lat="45.725782876834273" lon="10.107786990702152">
        <ele>291.89999999999998</ele>
        <time>2014-05-11T13:20:58Z</time>
      </trkpt>
      <trkpt lat="45.725793354213238" lon="10.107771568000317">
        <ele>292.38</ele>
        <time>2014-05-11T13:21:21Z</time>
      </trkpt>
      <trkpt lat="45.72580617852509" lon="10.107723204419017">
        <ele>289.49000000000001</ele>
        <time>2014-05-11T13:21:28Z</time>
      </trkpt>
      <trkpt lat="45.725813554599881" lon="10.107686659321189">
        <ele>289.00999999999999</ele>
        <time>2014-05-11T13:21:31Z</time>
      </trkpt>
      <trkpt lat="45.725817745551467" lon="10.107666542753577">
        <ele>288.05000000000001</ele>
        <time>2014-05-11T13:21:32Z</time>
      </trkpt>
      <trkpt lat="45.725824031978846" lon="10.107643995434046">
        <ele>288.05000000000001</ele>
        <time>2014-05-11T13:21:33Z</time>
      </trkpt>
      <trkpt lat="45.725831240415573" lon="10.10762513615191">
        <ele>288.05000000000001</ele>
        <time>2014-05-11T13:21:34Z</time>
      </trkpt>
      <trkpt lat="45.725838532671332" lon="10.10760803706944">
        <ele>288.05000000000001</ele>
        <time>2014-05-11T13:21:35Z</time>
      </trkpt>
      <trkpt lat="45.725929141044617" lon="10.107450960204005">
        <ele>288.05000000000001</ele>
        <time>2014-05-11T13:21:50Z</time>
      </trkpt>
      <trkpt lat="45.726029640063643" lon="10.107263708487153">
        <ele>288.05000000000001</ele>
        <time>2014-05-11T13:22:02Z</time>
      </trkpt>
      <trkpt lat="45.726178083568811" lon="10.107046281918883">
        <ele>286.13</ele>
        <time>2014-05-11T13:22:17Z</time>
      </trkpt>
      <trkpt lat="45.726286796852946" lon="10.106752077117562">
        <ele>286.13</ele>
        <time>2014-05-11T13:22:35Z</time>
      </trkpt>
      <trkpt lat="45.726357288658619" lon="10.106554850935936">
        <ele>287.08999999999997</ele>
        <time>2014-05-11T13:22:46Z</time>
      </trkpt>
      <trkpt lat="45.726534314453602" lon="10.10626919567585">
        <ele>289.00999999999999</ele>
        <time>2014-05-11T13:23:08Z</time>
      </trkpt>
      <trkpt lat="45.726679656654596" lon="10.106082279235125">
        <ele>291.42000000000002</ele>
        <time>2014-05-11T13:23:26Z</time>
      </trkpt>
      <trkpt lat="45.726712513715029" lon="10.105927130207419">
        <ele>291.42000000000002</ele>
        <time>2014-05-11T13:23:34Z</time>
      </trkpt>
      <trkpt lat="45.726711675524712" lon="10.105899637565017">
        <ele>291.42000000000002</ele>
        <time>2014-05-11T13:23:35Z</time>
      </trkpt>
      <trkpt lat="45.726792393252254" lon="10.105693694204092">
        <ele>291.42000000000002</ele>
        <time>2014-05-11T13:23:49Z</time>
      </trkpt>
      <trkpt lat="45.72688702493906" lon="10.105562349781394">
        <ele>291.42000000000002</ele>
        <time>2014-05-11T13:24:00Z</time>
      </trkpt>
      <trkpt lat="45.726950811222196" lon="10.105432765558362">
        <ele>291.89999999999998</ele>
        <time>2014-05-11T13:24:10Z</time>
      </trkpt>
      <trkpt lat="45.727021219208837" lon="10.105342660099268">
        <ele>291.89999999999998</ele>
        <time>2014-05-11T13:24:19Z</time>
      </trkpt>
      <trkpt lat="45.727073773741722" lon="10.105244927108288">
        <ele>291.89999999999998</ele>
        <time>2014-05-11T13:24:33Z</time>
      </trkpt>
      <trkpt lat="45.727092297747731" lon="10.105197485536337">
        <ele>290.45999999999998</ele>
        <time>2014-05-11T13:24:38Z</time>
      </trkpt>
      <trkpt lat="45.72718215174973" lon="10.105025824159384">
        <ele>288.05000000000001</ele>
        <time>2014-05-11T13:24:54Z</time>
      </trkpt>
      <trkpt lat="45.72725934907794" lon="10.10483798570931">
        <ele>285.17000000000002</ele>
        <time>2014-05-11T13:25:09Z</time>
      </trkpt>
      <trkpt lat="45.727333696559072" lon="10.104651153087616">
        <ele>284.20999999999998</ele>
        <time>2014-05-11T13:25:26Z</time>
      </trkpt>
      <trkpt lat="45.727385329082608" lon="10.104562724009156">
        <ele>284.20999999999998</ele>
        <time>2014-05-11T13:25:51Z</time>
      </trkpt>
      <trkpt lat="45.727396225556731" lon="10.104539087042212">
        <ele>285.64999999999998</ele>
        <time>2014-05-11T13:25:53Z</time>
      </trkpt>
      <trkpt lat="45.727576520293951" lon="10.104262987151742">
        <ele>288.52999999999997</ele>
        <time>2014-05-11T13:26:18Z</time>
      </trkpt>
      <trkpt lat="45.727607868611813" lon="10.104123344644904">
        <ele>288.52999999999997</ele>
        <time>2014-05-11T13:26:32Z</time>
      </trkpt>
      <trkpt lat="45.7276326790452" lon="10.103952689096332">
        <ele>285.17000000000002</ele>
        <time>2014-05-11T13:26:43Z</time>
      </trkpt>
      <trkpt lat="45.72769177146256" lon="10.103763425722718">
        <ele>284.20999999999998</ele>
        <time>2014-05-11T13:26:57Z</time>
      </trkpt>
      <trkpt lat="45.727760754525661" lon="10.103538874536753">
        <ele>282.76999999999998</ele>
        <time>2014-05-11T13:27:12Z</time>
      </trkpt>
      <trkpt lat="45.727792019024491" lon="10.103382719680667">
        <ele>281.31999999999999</ele>
        <time>2014-05-11T13:27:24Z</time>
      </trkpt>
      <trkpt lat="45.727829150855541" lon="10.103313568979502">
        <ele>280.83999999999997</ele>
        <time>2014-05-11T13:27:30Z</time>
      </trkpt>
      <trkpt lat="45.727837700396776" lon="10.103299738839269">
        <ele>280.83999999999997</ele>
        <time>2014-05-11T13:27:31Z</time>
      </trkpt>
      <trkpt lat="45.727910036221147" lon="10.10313905775547">
        <ele>278.44</ele>
        <time>2014-05-11T13:27:46Z</time>
      </trkpt>
      <trkpt lat="45.727990586310625" lon="10.103025063872337">
        <ele>276.51999999999998</ele>
        <time>2014-05-11T13:27:57Z</time>
      </trkpt>
      <trkpt lat="45.728094605728984" lon="10.102902855724096">
        <ele>274.58999999999997</ele>
        <time>2014-05-11T13:28:10Z</time>
      </trkpt>
      <trkpt lat="45.728219831362367" lon="10.102795567363501">
        <ele>273.14999999999998</ele>
        <time>2014-05-11T13:28:24Z</time>
      </trkpt>
      <trkpt lat="45.728236008435488" lon="10.102791711688042">
        <ele>273.14999999999998</ele>
        <time>2014-05-11T13:28:25Z</time>
      </trkpt>
      <trkpt lat="45.728250425308943" lon="10.102783497422934">
        <ele>273.14999999999998</ele>
        <time>2014-05-11T13:28:26Z</time>
      </trkpt>
      <trkpt lat="45.728349750861526" lon="10.102648045867682">
        <ele>272.19</ele>
        <time>2014-05-11T13:28:38Z</time>
      </trkpt>
      <trkpt lat="45.72841789573431" lon="10.102551067247987">
        <ele>271.70999999999998</ele>
        <time>2014-05-11T13:28:51Z</time>
      </trkpt>
      <trkpt lat="45.728416303172708" lon="10.102530363947153">
        <ele>271.70999999999998</ele>
        <time>2014-05-11T13:29:11Z</time>
      </trkpt>
      <trkpt lat="45.728478999808431" lon="10.102466493844986">
        <ele>271.70999999999998</ele>
        <time>2014-05-11T13:29:26Z</time>
      </trkpt>
      <trkpt lat="45.728564579039812" lon="10.10241687297821">
        <ele>271.70999999999998</ele>
        <time>2014-05-11T13:29:49Z</time>
      </trkpt>
      <trkpt lat="45.728736408054829" lon="10.102234482765198">
        <ele>270.75</ele>
        <time>2014-05-11T13:30:06Z</time>
      </trkpt>
      <trkpt lat="45.728783514350653" lon="10.102184778079391">
        <ele>270.26999999999998</ele>
        <time>2014-05-11T13:30:11Z</time>
      </trkpt>
      <trkpt lat="45.728796757757664" lon="10.10216717608273">
        <ele>270.26999999999998</ele>
        <time>2014-05-11T13:30:12Z</time>
      </trkpt>
      <trkpt lat="45.728928688913584" lon="10.101976152509451">
        <ele>269.79000000000002</ele>
        <time>2014-05-11T13:30:26Z</time>
      </trkpt>
      <trkpt lat="45.729081323370337" lon="10.101777333766222">
        <ele>269.31</ele>
        <time>2014-05-11T13:30:43Z</time>
      </trkpt>
      <trkpt lat="45.729198921471834" lon="10.101639200001955">
        <ele>269.31</ele>
        <time>2014-05-11T13:30:57Z</time>
      </trkpt>
      <trkpt lat="45.729339821264148" lon="10.10137508623302">
        <ele>269.31</ele>
        <time>2014-05-11T13:31:16Z</time>
      </trkpt>
      <trkpt lat="45.729441829025745" lon="10.101220272481441">
        <ele>268.82999999999998</ele>
        <time>2014-05-11T13:31:29Z</time>
      </trkpt>
      <trkpt lat="45.729504860937595" lon="10.101146511733532">
        <ele>268.35000000000002</ele>
        <time>2014-05-11T13:31:43Z</time>
      </trkpt>
      <trkpt lat="45.729511566460133" lon="10.101141482591629">
        <ele>267.86000000000001</ele>
        <time>2014-05-11T13:32:11Z</time>
      </trkpt>
      <trkpt lat="45.72963310405612" lon="10.101023633033037">
        <ele>267.38</ele>
        <time>2014-05-11T13:32:25Z</time>
      </trkpt>
      <trkpt lat="45.729823289439082" lon="10.10081852786243">
        <ele>266.89999999999998</ele>
        <time>2014-05-11T13:32:41Z</time>
      </trkpt>
      <trkpt lat="45.729853548109531" lon="10.100805955007672">
        <ele>268.35000000000002</ele>
        <time>2014-05-11T13:32:46Z</time>
      </trkpt>
      <trkpt lat="45.729980701580644" lon="10.10091626085341">
        <ele>270.75</ele>
        <time>2014-05-11T13:33:03Z</time>
      </trkpt>
      <trkpt lat="45.730052618309855" lon="10.100913662463427">
        <ele>273.14999999999998</ele>
        <time>2014-05-11T13:33:20Z</time>
      </trkpt>
      <trkpt lat="45.730112213641405" lon="10.100929504260421">
        <ele>273.63</ele>
        <time>2014-05-11T13:33:39Z</time>
      </trkpt>
      <trkpt lat="45.730096204206347" lon="10.100829591974616">
        <ele>274.58999999999997</ele>
        <time>2014-05-11T13:33:59Z</time>
      </trkpt>
      <trkpt lat="45.730109112337232" lon="10.100755244493484">
        <ele>275.56</ele>
        <time>2014-05-11T13:34:23Z</time>
      </trkpt>
      <trkpt lat="45.730134258046746" lon="10.100735127925873">
        <ele>277</ele>
        <time>2014-05-11T13:34:28Z</time>
      </trkpt>
      <trkpt lat="45.730183208361268" lon="10.100719034671783">
        <ele>279.39999999999998</ele>
        <time>2014-05-11T13:34:38Z</time>
      </trkpt>
      <trkpt lat="45.730262752622366" lon="10.100678047165275">
        <ele>282.76999999999998</ele>
        <time>2014-05-11T13:34:50Z</time>
      </trkpt>
      <trkpt lat="45.73029468767345" lon="10.100593976676464">
        <ele>286.13</ele>
        <time>2014-05-11T13:35:04Z</time>
      </trkpt>
      <trkpt lat="45.730227716267109" lon="10.10050043463707">
        <ele>289.00999999999999</ele>
        <time>2014-05-11T13:35:14Z</time>
      </trkpt>
      <trkpt lat="45.730223441496491" lon="10.10049507021904">
        <ele>289.00999999999999</ele>
        <time>2014-05-11T13:35:15Z</time>
      </trkpt>
      <trkpt lat="45.730222268030047" lon="10.100250151008368">
        <ele>291.42000000000002</ele>
        <time>2014-05-11T13:35:32Z</time>
      </trkpt>
      <trkpt lat="45.730240792036057" lon="10.100140012800694">
        <ele>291.42000000000002</ele>
        <time>2014-05-11T13:35:40Z</time>
      </trkpt>
      <trkpt lat="45.730299297720194" lon="10.099941026419401">
        <ele>289.97000000000003</ele>
        <time>2014-05-11T13:35:53Z</time>
      </trkpt>
      <trkpt lat="45.73031916283071" lon="10.099828373640776">
        <ele>289.97000000000003</ele>
        <time>2014-05-11T13:35:59Z</time>
      </trkpt>
      <trkpt lat="45.730320755392313" lon="10.099809598177671">
        <ele>289.97000000000003</ele>
        <time>2014-05-11T13:36:00Z</time>
      </trkpt>
      <trkpt lat="45.730335339903831" lon="10.099759725853801">
        <ele>289.97000000000003</ele>
        <time>2014-05-11T13:36:04Z</time>
      </trkpt>
      <trkpt lat="45.730348499491811" lon="10.099751763045788">
        <ele>289.97000000000003</ele>
        <time>2014-05-11T13:36:05Z</time>
      </trkpt>
      <trkpt lat="45.730372471734881" lon="10.099741788581014">
        <ele>291.42000000000002</ele>
        <time>2014-05-11T13:36:08Z</time>
      </trkpt>
      <trkpt lat="45.730384960770607" lon="10.099736424162984">
        <ele>291.42000000000002</ele>
        <time>2014-05-11T13:36:09Z</time>
      </trkpt>
      <trkpt lat="45.730400634929538" lon="10.099730305373669">
        <ele>291.89999999999998</ele>
        <time>2014-05-11T13:36:10Z</time>
      </trkpt>
      <trkpt lat="45.730517311021686" lon="10.099659310653806">
        <ele>292.86000000000001</ele>
        <time>2014-05-11T13:36:21Z</time>
      </trkpt>
      <trkpt lat="45.730612613260746" lon="10.09953542612493">
        <ele>294.30000000000001</ele>
        <time>2014-05-11T13:36:33Z</time>
      </trkpt>
      <trkpt lat="45.730625605210662" lon="10.099517572671175">
        <ele>294.77999999999997</ele>
        <time>2014-05-11T13:36:35Z</time>
      </trkpt>
      <trkpt lat="45.730638429522514" lon="10.099507933482528">
        <ele>294.77999999999997</ele>
        <time>2014-05-11T13:36:36Z</time>
      </trkpt>
      <trkpt lat="45.730679500848055" lon="10.09945378638804">
        <ele>295.74000000000001</ele>
        <time>2014-05-11T13:36:41Z</time>
      </trkpt>
      <trkpt lat="45.73071202263236" lon="10.099419085308909">
        <ele>295.74000000000001</ele>
        <time>2014-05-11T13:36:45Z</time>
      </trkpt>
      <trkpt lat="45.730722667649388" lon="10.099410535767674">
        <ele>296.22000000000003</ele>
        <time>2014-05-11T13:36:46Z</time>
      </trkpt>
      <trkpt lat="45.730744628235698" lon="10.09938639588654">
        <ele>296.69999999999999</ele>
        <time>2014-05-11T13:36:49Z</time>
      </trkpt>
      <trkpt lat="45.730753680691123" lon="10.099374493584037">
        <ele>296.69999999999999</ele>
        <time>2014-05-11T13:36:50Z</time>
      </trkpt>
      <trkpt lat="45.730839092284441" lon="10.09927055798471">
        <ele>297.18000000000001</ele>
        <time>2014-05-11T13:37:00Z</time>
      </trkpt>
      <trkpt lat="45.730846216902137" lon="10.099262930452824">
        <ele>297.67000000000002</ele>
        <time>2014-05-11T13:37:01Z</time>
      </trkpt>
      <trkpt lat="45.730857783928514" lon="10.099254548549652">
        <ele>297.67000000000002</ele>
        <time>2014-05-11T13:37:02Z</time>
      </trkpt>
      <trkpt lat="45.730872536078095" lon="10.099243903532624">
        <ele>297.67000000000002</ele>
        <time>2014-05-11T13:37:03Z</time>
      </trkpt>
      <trkpt lat="45.730886785313487" lon="10.099231749773026">
        <ele>297.67000000000002</ele>
        <time>2014-05-11T13:37:04Z</time>
      </trkpt>
      <trkpt lat="45.73096071369946" lon="10.099160419777036">
        <ele>298.63</ele>
        <time>2014-05-11T13:37:14Z</time>
      </trkpt>
      <trkpt lat="45.730971693992615" lon="10.099151534959674">
        <ele>298.63</ele>
        <time>2014-05-11T13:37:15Z</time>
      </trkpt>
      <trkpt lat="45.730986362323165" lon="10.099143153056502">
        <ele>299.11000000000001</ele>
        <time>2014-05-11T13:37:16Z</time>
      </trkpt>
      <trkpt lat="45.731001030653715" lon="10.099134184420109">
        <ele>299.11000000000001</ele>
        <time>2014-05-11T13:37:17Z</time>
      </trkpt>
      <trkpt lat="45.731120556592941" lon="10.099005773663521">
        <ele>300.06999999999999</ele>
        <time>2014-05-11T13:37:32Z</time>
      </trkpt>
      <trkpt lat="45.731197502464056" lon="10.098888175562024">
        <ele>300.55000000000001</ele>
        <time>2014-05-11T13:37:41Z</time>
      </trkpt>
      <trkpt lat="45.731208231300116" lon="10.098822126165032">
        <ele>301.99000000000001</ele>
        <time>2014-05-11T13:37:49Z</time>
      </trkpt>
      <trkpt lat="45.731180822476745" lon="10.098759261891246">
        <ele>302.94999999999999</ele>
        <time>2014-05-11T13:37:55Z</time>
      </trkpt>
      <trkpt lat="45.731169423088431" lon="10.098729841411114">
        <ele>303.91000000000003</ele>
        <time>2014-05-11T13:37:58Z</time>
      </trkpt>
      <trkpt lat="45.731110414490104" lon="10.098684243857861">
        <ele>305.36000000000001</ele>
        <time>2014-05-11T13:38:06Z</time>
      </trkpt>
      <trkpt lat="45.73108040727675" lon="10.098691200837493">
        <ele>305.83999999999997</ele>
        <time>2014-05-11T13:38:09Z</time>
      </trkpt>
      <trkpt lat="45.731032798066735" lon="10.098705617710948">
        <ele>307.27999999999997</ele>
        <time>2014-05-11T13:38:16Z</time>
      </trkpt>
      <trkpt lat="45.730953002348542" lon="10.098753226920962">
        <ele>309.68000000000001</ele>
        <time>2014-05-11T13:38:26Z</time>
      </trkpt>
      <trkpt lat="45.730993738397956" lon="10.098697738721967">
        <ele>311.12</ele>
        <time>2014-05-11T13:38:38Z</time>
      </trkpt>
      <trkpt lat="45.731012262403965" lon="10.098670916631818">
        <ele>312.08999999999997</ele>
        <time>2014-05-11T13:38:42Z</time>
      </trkpt>
      <trkpt lat="45.731027685105801" lon="10.098632946610451">
        <ele>312.56999999999999</ele>
        <time>2014-05-11T13:38:46Z</time>
      </trkpt>
      <trkpt lat="45.731078647077084" lon="10.098509229719639">
        <ele>314.97000000000003</ele>
        <time>2014-05-11T13:38:57Z</time>
      </trkpt>
      <trkpt lat="45.731095159426332" lon="10.098467906937003">
        <ele>315.93000000000001</ele>
        <time>2014-05-11T13:39:01Z</time>
      </trkpt>
      <trkpt lat="45.731142098084092" lon="10.098340585827827">
        <ele>318.81</ele>
        <time>2014-05-11T13:39:13Z</time>
      </trkpt>
      <trkpt lat="45.731190042570233" lon="10.098221898078918">
        <ele>322.18000000000001</ele>
        <time>2014-05-11T13:39:25Z</time>
      </trkpt>
      <trkpt lat="45.7312280125916" lon="10.098109161481261">
        <ele>325.54000000000002</ele>
        <time>2014-05-11T13:39:38Z</time>
      </trkpt>
      <trkpt lat="45.731242680922151" lon="10.098044704645872">
        <ele>326.99000000000001</ele>
        <time>2014-05-11T13:39:45Z</time>
      </trkpt>
      <trkpt lat="45.731321135535836" lon="10.097933728247881">
        <ele>330.35000000000002</ele>
        <time>2014-05-11T13:39:58Z</time>
      </trkpt>
      <trkpt lat="45.731325326487422" lon="10.097895842045546">
        <ele>331.31</ele>
        <time>2014-05-11T13:40:01Z</time>
      </trkpt>
      <trkpt lat="45.731328343972564" lon="10.09784571826458">
        <ele>332.75</ele>
        <time>2014-05-11T13:40:04Z</time>
      </trkpt>
      <trkpt lat="45.731334630399942" lon="10.09778855368495">
        <ele>333.23000000000002</ele>
        <time>2014-05-11T13:40:09Z</time>
      </trkpt>
      <trkpt lat="45.731372265145183" lon="10.097655700519681">
        <ele>335.63999999999999</ele>
        <time>2014-05-11T13:40:23Z</time>
      </trkpt>
      <trkpt lat="45.731373270973563" lon="10.097644804045558">
        <ele>335.63999999999999</ele>
        <time>2014-05-11T13:40:35Z</time>
      </trkpt>
      <trkpt lat="45.731378886848688" lon="10.097581772133708">
        <ele>335.63999999999999</ele>
        <time>2014-05-11T13:40:40Z</time>
      </trkpt>
      <trkpt lat="45.731372851878405" lon="10.097556374967098">
        <ele>335.63999999999999</ele>
        <time>2014-05-11T13:40:42Z</time>
      </trkpt>
      <trkpt lat="45.731353908777237" lon="10.097526116296649">
        <ele>335.63999999999999</ele>
        <time>2014-05-11T13:40:49Z</time>
      </trkpt>
      <trkpt lat="45.731263048946857" lon="10.097547238692641">
        <ele>335.63999999999999</ele>
        <time>2014-05-11T13:41:01Z</time>
      </trkpt>
      <trkpt lat="45.731237987056375" lon="10.097598200663924">
        <ele>335.63999999999999</ele>
        <time>2014-05-11T13:41:17Z</time>
      </trkpt>
      <trkpt lat="45.731235388666391" lon="10.097609683871269">
        <ele>335.63999999999999</ele>
        <time>2014-05-11T13:41:33Z</time>
      </trkpt>
      <trkpt lat="45.731244441121817" lon="10.09761655703187">
        <ele>336.12</ele>
        <time>2014-05-11T13:41:53Z</time>
      </trkpt>
      <trkpt lat="45.731265060603619" lon="10.097593003883958">
        <ele>336.12</ele>
        <time>2014-05-11T13:42:01Z</time>
      </trkpt>
      <trkpt lat="45.731291631236672" lon="10.097513627260923">
        <ele>335.63999999999999</ele>
        <time>2014-05-11T13:42:07Z</time>
      </trkpt>
      <trkpt lat="45.731315016746521" lon="10.097441207617521">
        <ele>337.07999999999998</ele>
        <time>2014-05-11T13:42:13Z</time>
      </trkpt>
      <trkpt lat="45.731331277638674" lon="10.097388317808509">
        <ele>337.07999999999998</ele>
        <time>2014-05-11T13:42:27Z</time>
      </trkpt>
      <trkpt lat="45.731317950412631" lon="10.097353281453252">
        <ele>337.07999999999998</ele>
        <time>2014-05-11T13:42:47Z</time>
      </trkpt>
      <trkpt lat="45.731291631236672" lon="10.097278263419867">
        <ele>335.63999999999999</ele>
        <time>2014-05-11T13:43:01Z</time>
      </trkpt>
      <trkpt lat="45.731294229626656" lon="10.097257643938065">
        <ele>337.07999999999998</ele>
        <time>2014-05-11T13:43:03Z</time>
      </trkpt>
      <trkpt lat="45.731296744197607" lon="10.097236186265945">
        <ele>335.63999999999999</ele>
        <time>2014-05-11T13:43:05Z</time>
      </trkpt>
      <trkpt lat="45.73129590600729" lon="10.097231324762106">
        <ele>334.19999999999999</ele>
        <time>2014-05-11T13:43:07Z</time>
      </trkpt>
      <trkpt lat="45.73129640892148" lon="10.097235850989819">
        <ele>335.63999999999999</ele>
        <time>2014-05-11T13:43:13Z</time>
      </trkpt>
      <trkpt lat="45.731304623186588" lon="10.097188912332058">
        <ele>332.75</ele>
        <time>2014-05-11T13:43:19Z</time>
      </trkpt>
      <trkpt lat="45.731325577944517" lon="10.09714406915009">
        <ele>332.26999999999998</ele>
        <time>2014-05-11T13:43:34Z</time>
      </trkpt>
      <trkpt lat="45.731345023959875" lon="10.097140297293663">
        <ele>333.23000000000002</ele>
        <time>2014-05-11T13:43:55Z</time>
      </trkpt>
      <trkpt lat="45.731393974274397" lon="10.097135435789824">
        <ele>333.23000000000002</ele>
        <time>2014-05-11T13:44:17Z</time>
      </trkpt>
      <trkpt lat="45.731419119983912" lon="10.097174327820539">
        <ele>335.63999999999999</ele>
        <time>2014-05-11T13:44:31Z</time>
      </trkpt>
      <trkpt lat="45.731411995366216" lon="10.097188828513026">
        <ele>337.07999999999998</ele>
        <time>2014-05-11T13:44:35Z</time>
      </trkpt>
      <trkpt lat="45.731413587927818" lon="10.097176423296332">
        <ele>334.68000000000001</ele>
        <time>2014-05-11T13:44:42Z</time>
      </trkpt>
      <trkpt lat="45.731424484401941" lon="10.097165191546082">
        <ele>336.12</ele>
        <time>2014-05-11T13:44:44Z</time>
      </trkpt>
      <trkpt lat="45.731446780264378" lon="10.097192768007517">
        <ele>336.60000000000002</ele>
        <time>2014-05-11T13:44:59Z</time>
      </trkpt>
      <trkpt lat="45.73141417466104" lon="10.097224954515696">
        <ele>337.56</ele>
        <time>2014-05-11T13:45:19Z</time>
      </trkpt>
      <trkpt lat="45.731324907392263" lon="10.097342887893319">
        <ele>338.04000000000002</ele>
        <time>2014-05-11T13:45:36Z</time>
      </trkpt>
      <trkpt lat="45.73131694458425" lon="10.097330817952752">
        <ele>336.60000000000002</ele>
        <time>2014-05-11T13:45:51Z</time>
      </trkpt>
      <trkpt lat="45.731346784159541" lon="10.097323022782803">
        <ele>336.60000000000002</ele>
        <time>2014-05-11T13:46:26Z</time>
      </trkpt>
      <trkpt lat="45.731335803866386" lon="10.097308102995157">
        <ele>336.12</ele>
        <time>2014-05-11T13:46:54Z</time>
      </trkpt>
      <trkpt lat="45.731341000646353" lon="10.097314976155758">
        <ele>337.07999999999998</ele>
        <time>2014-05-11T13:47:34Z</time>
      </trkpt>
      <trkpt lat="45.731302024796605" lon="10.097379181534052">
        <ele>337.07999999999998</ele>
        <time>2014-05-11T13:47:58Z</time>
      </trkpt>
      <trkpt lat="45.731270676478744" lon="10.097242891788483">
        <ele>337.07999999999998</ele>
        <time>2014-05-11T13:48:38Z</time>
      </trkpt>
      <trkpt lat="45.731283500790596" lon="10.097291003912687">
        <ele>337.56</ele>
        <time>2014-05-11T13:49:07Z</time>
      </trkpt>
      <trkpt lat="45.731303198263049" lon="10.097337523475289">
        <ele>337.56</ele>
        <time>2014-05-11T13:49:51Z</time>
      </trkpt>
      <trkpt lat="45.731317531317472" lon="10.097347414121032">
        <ele>337.56</ele>
        <time>2014-05-11T13:50:36Z</time>
      </trkpt>
      <trkpt lat="45.731311244890094" lon="10.097328303381801">
        <ele>338.04000000000002</ele>
        <time>2014-05-11T13:51:23Z</time>
      </trkpt>
      <trkpt lat="45.731313088908792" lon="10.097332578152418">
        <ele>338.04000000000002</ele>
        <time>2014-05-11T13:51:43Z</time>
      </trkpt>
      <trkpt lat="45.731348292902112" lon="10.097314640879631">
        <ele>338.51999999999998</ele>
        <time>2014-05-11T13:51:49Z</time>
      </trkpt>
      <trkpt lat="45.731409229338169" lon="10.097263678908348">
        <ele>338.51999999999998</ele>
        <time>2014-05-11T13:52:03Z</time>
      </trkpt>
      <trkpt lat="45.731416856870055" lon="10.097264936193824">
        <ele>337.56</ele>
        <time>2014-05-11T13:52:16Z</time>
      </trkpt>
      <trkpt lat="45.731393722817302" lon="10.097236856818199">
        <ele>337.56</ele>
        <time>2014-05-11T13:52:34Z</time>
      </trkpt>
      <trkpt lat="45.731361117213964" lon="10.097334925085306">
        <ele>338.04000000000002</ele>
        <time>2014-05-11T13:52:46Z</time>
      </trkpt>
      <trkpt lat="45.731409061700106" lon="10.097415307536721">
        <ele>337.56</ele>
        <time>2014-05-11T13:52:59Z</time>
      </trkpt>
      <trkpt lat="45.731414761394262" lon="10.097429472953081">
        <ele>337.56</ele>
        <time>2014-05-11T13:53:16Z</time>
      </trkpt>
      <trkpt lat="45.731387939304113" lon="10.097407260909677">
        <ele>337.56</ele>
        <time>2014-05-11T13:53:21Z</time>
      </trkpt>
      <trkpt lat="45.731309736147523" lon="10.097365770488977">
        <ele>338.04000000000002</ele>
        <time>2014-05-11T13:53:32Z</time>
      </trkpt>
      <trkpt lat="45.73131543584168" lon="10.097368955612183">
        <ele>335.63999999999999</ele>
        <time>2014-05-11T13:53:52Z</time>
      </trkpt>
      <trkpt lat="45.731345862150192" lon="10.097430562600493">
        <ele>337.56</ele>
        <time>2014-05-11T13:54:04Z</time>
      </trkpt>
      <trkpt lat="45.731349382549524" lon="10.097430730238557">
        <ele>331.31</ele>
        <time>2014-05-11T13:54:05Z</time>
      </trkpt>
      <trkpt lat="45.731349550187588" lon="10.097428718581796">
        <ele>336.60000000000002</ele>
        <time>2014-05-11T13:54:07Z</time>
      </trkpt>
      <trkpt lat="45.731380647048354" lon="10.097404327243567">
        <ele>337.56</ele>
        <time>2014-05-11T13:54:42Z</time>
      </trkpt>
      <trkpt lat="45.731364637613297" lon="10.097382618114352">
        <ele>335.16000000000003</ele>
        <time>2014-05-11T13:54:50Z</time>
      </trkpt>
      <trkpt lat="45.731362709775567" lon="10.097384545952082">
        <ele>337.56</ele>
        <time>2014-05-11T13:54:52Z</time>
      </trkpt>
      <trkpt lat="45.73138291016221" lon="10.097379013895988">
        <ele>337.07999999999998</ele>
        <time>2014-05-11T13:55:27Z</time>
      </trkpt>
      <trkpt lat="45.731396321207285" lon="10.097372643649578">
        <ele>337.07999999999998</ele>
        <time>2014-05-11T13:56:03Z</time>
      </trkpt>
      <trkpt lat="45.731403613463044" lon="10.097370967268944">
        <ele>337.07999999999998</ele>
        <time>2014-05-11T13:56:36Z</time>
      </trkpt>
      <trkpt lat="45.731362206861377" lon="10.097373398020864">
        <ele>337.56</ele>
        <time>2014-05-11T13:57:04Z</time>
      </trkpt>
      <trkpt lat="45.73133647441864" lon="10.097381612285972">
        <ele>337.56</ele>
        <time>2014-05-11T13:57:34Z</time>
      </trkpt>
      <trkpt lat="45.731340078637004" lon="10.097370212897658">
        <ele>338.04000000000002</ele>
        <time>2014-05-11T13:57:50Z</time>
      </trkpt>
      <trkpt lat="45.731340078637004" lon="10.097400723025203">
        <ele>338.04000000000002</ele>
        <time>2014-05-11T13:58:05Z</time>
      </trkpt>
      <trkpt lat="45.731346365064383" lon="10.097436346113682">
        <ele>338.04000000000002</ele>
        <time>2014-05-11T13:58:17Z</time>
      </trkpt>
      <trkpt lat="45.731355166062713" lon="10.0974733941257">
        <ele>337.56</ele>
        <time>2014-05-11T13:58:27Z</time>
      </trkpt>
      <trkpt lat="45.731326667591929" lon="10.097538521513343">
        <ele>337.56</ele>
        <time>2014-05-11T13:58:47Z</time>
      </trkpt>
      <trkpt lat="45.731321722269058" lon="10.097546484321356">
        <ele>336.60000000000002</ele>
        <time>2014-05-11T13:59:09Z</time>
      </trkpt>
      <trkpt lat="45.73132423684001" lon="10.097536509856582">
        <ele>336.12</ele>
        <time>2014-05-11T13:59:30Z</time>
      </trkpt>
      <trkpt lat="45.731304958462715" lon="10.097553273662925">
        <ele>336.12</ele>
        <time>2014-05-11T13:59:48Z</time>
      </trkpt>
      <trkpt lat="45.731333792209625" lon="10.097609851509333">
        <ele>335.63999999999999</ele>
        <time>2014-05-11T13:59:58Z</time>
      </trkpt>
      <trkpt lat="45.731322644278407" lon="10.09760876186192">
        <ele>335.63999999999999</ele>
        <time>2014-05-11T14:00:20Z</time>
      </trkpt>
      <trkpt lat="45.731302192434669" lon="10.097674643620849">
        <ele>335.63999999999999</ele>
        <time>2014-05-11T14:00:33Z</time>
      </trkpt>
      <trkpt lat="45.73129833675921" lon="10.097683276981115">
        <ele>335.63999999999999</ele>
        <time>2014-05-11T14:00:37Z</time>
      </trkpt>
      <trkpt lat="45.731332451105118" lon="10.09768302552402">
        <ele>335.63999999999999</ele>
        <time>2014-05-11T14:00:51Z</time>
      </trkpt>
      <trkpt lat="45.731377294287086" lon="10.097664752975106">
        <ele>335.63999999999999</ele>
        <time>2014-05-11T14:01:05Z</time>
      </trkpt>
      <trkpt lat="45.731416437774897" lon="10.097660478204489">
        <ele>335.16000000000003</ele>
        <time>2014-05-11T14:01:17Z</time>
      </trkpt>
      <trkpt lat="45.731398919597268" lon="10.097681349143386">
        <ele>335.16000000000003</ele>
        <time>2014-05-11T14:01:28Z</time>
      </trkpt>
      <trkpt lat="45.731404200196266" lon="10.097663830965757">
        <ele>335.16000000000003</ele>
        <time>2014-05-11T14:01:46Z</time>
      </trkpt>
      <trkpt lat="45.731398081406951" lon="10.097675565630198">
        <ele>335.16000000000003</ele>
        <time>2014-05-11T14:02:09Z</time>
      </trkpt>
      <trkpt lat="45.73137846775353" lon="10.097651090472937">
        <ele>336.12</ele>
        <time>2014-05-11T14:02:30Z</time>
      </trkpt>
      <trkpt lat="45.731400344520807" lon="10.097628040239215">
        <ele>336.12</ele>
        <time>2014-05-11T14:02:59Z</time>
      </trkpt>
      <trkpt lat="45.73138190433383" lon="10.097617646679282">
        <ele>336.12</ele>
        <time>2014-05-11T14:03:20Z</time>
      </trkpt>
      <trkpt lat="45.73137603700161" lon="10.097655700519681">
        <ele>336.12</ele>
        <time>2014-05-11T14:03:39Z</time>
      </trkpt>
      <trkpt lat="45.731393219903111" lon="10.097697610035539">
        <ele>336.12</ele>
        <time>2014-05-11T14:03:49Z</time>
      </trkpt>
      <trkpt lat="45.731388945132494" lon="10.097716804593801">
        <ele>337.56</ele>
        <time>2014-05-11T14:04:08Z</time>
      </trkpt>
      <trkpt lat="45.731323147192597" lon="10.097791319712996">
        <ele>335.63999999999999</ele>
        <time>2014-05-11T14:04:25Z</time>
      </trkpt>
      <trkpt lat="45.731325829401612" lon="10.097806742414832">
        <ele>334.68000000000001</ele>
        <time>2014-05-11T14:04:37Z</time>
      </trkpt>
      <trkpt lat="45.731340497732162" lon="10.097841108217835">
        <ele>333.70999999999998</ele>
        <time>2014-05-11T14:04:47Z</time>
      </trkpt>
      <trkpt lat="45.731344018131495" lon="10.09788972325623">
        <ele>332.75</ele>
        <time>2014-05-11T14:04:51Z</time>
      </trkpt>
      <trkpt lat="45.731309652328491" lon="10.097994161769748">
        <ele>329.87</ele>
        <time>2014-05-11T14:05:01Z</time>
      </trkpt>
      <trkpt lat="45.731310155242682" lon="10.097988545894623">
        <ele>329.38999999999999</ele>
        <time>2014-05-11T14:05:02Z</time>
      </trkpt>
      <trkpt lat="45.731261456385255" lon="10.09808711707592">
        <ele>326.99000000000001</ele>
        <time>2014-05-11T14:05:10Z</time>
      </trkpt>
      <trkpt lat="45.731204375624657" lon="10.098192561417818">
        <ele>324.10000000000002</ele>
        <time>2014-05-11T14:05:19Z</time>
      </trkpt>
      <trkpt lat="45.731145031750202" lon="10.098306220024824">
        <ele>321.22000000000003</ele>
        <time>2014-05-11T14:05:31Z</time>
      </trkpt>
      <trkpt lat="45.73109901510179" lon="10.098348883911967">
        <ele>318.81</ele>
        <time>2014-05-11T14:05:47Z</time>
      </trkpt>
      <trkpt lat="45.731102284044027" lon="10.098408479243517">
        <ele>317.85000000000002</ele>
        <time>2014-05-11T14:05:53Z</time>
      </trkpt>
      <trkpt lat="45.731046795845032" lon="10.098556252196431">
        <ele>314.00999999999999</ele>
        <time>2014-05-11T14:06:07Z</time>
      </trkpt>
      <trkpt lat="45.731018632650375" lon="10.098620038479567">
        <ele>312.56999999999999</ele>
        <time>2014-05-11T14:06:12Z</time>
      </trkpt>
      <trkpt lat="45.731014274060726" lon="10.098732439801097">
        <ele>309.19999999999999</ele>
        <time>2014-05-11T14:06:29Z</time>
      </trkpt>
      <trkpt lat="45.731091722846031" lon="10.098706288263202">
        <ele>306.31999999999999</ele>
        <time>2014-05-11T14:06:41Z</time>
      </trkpt>
      <trkpt lat="45.731176882982254" lon="10.098748281598091">
        <ele>304.38999999999999</ele>
        <time>2014-05-11T14:06:51Z</time>
      </trkpt>
      <trkpt lat="45.731214601546526" lon="10.098899072036147">
        <ele>301.50999999999999</ele>
        <time>2014-05-11T14:07:04Z</time>
      </trkpt>
      <trkpt lat="45.731211751699448" lon="10.09890653192997">
        <ele>301.02999999999997</ele>
        <time>2014-05-11T14:07:05Z</time>
      </trkpt>
      <trkpt lat="45.731071606278419" lon="10.09907023049891">
        <ele>300.06999999999999</ele>
        <time>2014-05-11T14:07:20Z</time>
      </trkpt>
      <trkpt lat="45.731002120301127" lon="10.099147176370025">
        <ele>299.11000000000001</ele>
        <time>2014-05-11T14:07:29Z</time>
      </trkpt>
      <trkpt lat="45.730924000963569" lon="10.099206604063511">
        <ele>298.63</ele>
        <time>2014-05-11T14:07:36Z</time>
      </trkpt>
      <trkpt lat="45.730848228558898" lon="10.099278101697564">
        <ele>298.14999999999998</ele>
        <time>2014-05-11T14:07:45Z</time>
      </trkpt>
      <trkpt lat="45.730763738974929" lon="10.099307773634791">
        <ele>298.14999999999998</ele>
        <time>2014-05-11T14:07:51Z</time>
      </trkpt>
      <trkpt lat="45.730660976842046" lon="10.099423862993717">
        <ele>295.25999999999999</ele>
        <time>2014-05-11T14:08:05Z</time>
      </trkpt>
      <trkpt lat="45.730590904131532" lon="10.099501647055149">
        <ele>294.30000000000001</ele>
        <time>2014-05-11T14:08:17Z</time>
      </trkpt>
      <trkpt lat="45.730506917461753" lon="10.09955738671124">
        <ele>293.33999999999997</ele>
        <time>2014-05-11T14:08:31Z</time>
      </trkpt>
      <trkpt lat="45.730414213612676" lon="10.099640535190701">
        <ele>292.38</ele>
        <time>2014-05-11T14:08:43Z</time>
      </trkpt>
      <trkpt lat="45.730358306318521" lon="10.099703818559647">
        <ele>291.42000000000002</ele>
        <time>2014-05-11T14:08:50Z</time>
      </trkpt>
      <trkpt lat="45.730332741513848" lon="10.099842790514231">
        <ele>290.45999999999998</ele>
        <time>2014-05-11T14:09:04Z</time>
      </trkpt>
      <trkpt lat="45.730327712371945" lon="10.099943876266479">
        <ele>290.45999999999998</ele>
        <time>2014-05-11T14:09:27Z</time>
      </trkpt>
      <trkpt lat="45.730313798412681" lon="10.100002968683839">
        <ele>290.45999999999998</ele>
        <time>2014-05-11T14:09:31Z</time>
      </trkpt>
      <trkpt lat="45.730251353234053" lon="10.10013154707849">
        <ele>290.45999999999998</ele>
        <time>2014-05-11T14:09:41Z</time>
      </trkpt>
      <trkpt lat="45.730219669640064" lon="10.100306058302522">
        <ele>290.45999999999998</ele>
        <time>2014-05-11T14:09:49Z</time>
      </trkpt>
      <trkpt lat="45.730242636054754" lon="10.100431032478809">
        <ele>288.52999999999997</ele>
        <time>2014-05-11T14:10:00Z</time>
      </trkpt>
      <trkpt lat="45.730284964665771" lon="10.100525915622711">
        <ele>285.17000000000002</ele>
        <time>2014-05-11T14:10:08Z</time>
      </trkpt>
      <trkpt lat="45.730227129533887" lon="10.100593473762274">
        <ele>283.25</ele>
        <time>2014-05-11T14:10:20Z</time>
      </trkpt>
      <trkpt lat="45.730227045714855" lon="10.100686848163605">
        <ele>281.31999999999999</ele>
        <time>2014-05-11T14:10:43Z</time>
      </trkpt>
      <trkpt lat="45.730191757902503" lon="10.100716520100832">
        <ele>279.39999999999998</ele>
        <time>2014-05-11T14:10:49Z</time>
      </trkpt>
      <trkpt lat="45.730038704350591" lon="10.100782904773951">
        <ele>276.04000000000002</ele>
        <time>2014-05-11T14:11:04Z</time>
      </trkpt>
      <trkpt lat="45.729923453181982" lon="10.100845266133547">
        <ele>273.14999999999998</ele>
        <time>2014-05-11T14:11:20Z</time>
      </trkpt>
      <trkpt lat="45.729914149269462" lon="10.100857419893146">
        <ele>273.14999999999998</ele>
        <time>2014-05-11T14:11:21Z</time>
      </trkpt>
      <trkpt lat="45.729858325794339" lon="10.100896311923862">
        <ele>270.26999999999998</ele>
        <time>2014-05-11T14:11:39Z</time>
      </trkpt>
      <trkpt lat="45.729788588359952" lon="10.100741414353251">
        <ele>267.86000000000001</ele>
        <time>2014-05-11T14:11:54Z</time>
      </trkpt>
      <trkpt lat="45.729765621945262" lon="10.100703192874789">
        <ele>267.86000000000001</ele>
        <time>2014-05-11T14:12:09Z</time>
      </trkpt>
      <trkpt lat="45.729788839817047" lon="10.100642424076796">
        <ele>267.38</ele>
        <time>2014-05-11T14:12:14Z</time>
      </trkpt>
      <trkpt lat="45.729850446805358" lon="10.100565813481808">
        <ele>265.94</ele>
        <time>2014-05-11T14:12:27Z</time>
      </trkpt>
      <trkpt lat="45.729901492595673" lon="10.10053563863039">
        <ele>265.45999999999998</ele>
        <time>2014-05-11T14:12:35Z</time>
      </trkpt>
      <trkpt lat="45.729906605556607" lon="10.10044427588582">
        <ele>264.01999999999998</ele>
        <time>2014-05-11T14:12:46Z</time>
      </trkpt>
      <trkpt lat="45.729959746822715" lon="10.100200278684497">
        <ele>262.57999999999998</ele>
        <time>2014-05-11T14:13:00Z</time>
      </trkpt>
      <trkpt lat="45.729969637468457" lon="10.100074885413051">
        <ele>262.57999999999998</ele>
        <time>2014-05-11T14:13:15Z</time>
      </trkpt>
      <trkpt lat="45.729984389618039" lon="10.10013347491622">
        <ele>262.57999999999998</ele>
        <time>2014-05-11T14:13:33Z</time>
      </trkpt>
      <trkpt lat="45.729931248351932" lon="10.10000741109252">
        <ele>262.57999999999998</ele>
        <time>2014-05-11T14:14:01Z</time>
      </trkpt>
      <trkpt lat="45.729894367977977" lon="10.099952341988683">
        <ele>263.06</ele>
        <time>2014-05-11T14:14:12Z</time>
      </trkpt>
      <trkpt lat="45.729876849800348" lon="10.099937003105879">
        <ele>263.06</ele>
        <time>2014-05-11T14:14:14Z</time>
      </trkpt>
      <trkpt lat="45.72989746928215" lon="10.099771209061146">
        <ele>263.06</ele>
        <time>2014-05-11T14:14:27Z</time>
      </trkpt>
      <trkpt lat="45.729847680777311" lon="10.09954129345715">
        <ele>264.01999999999998</ele>
        <time>2014-05-11T14:14:45Z</time>
      </trkpt>
      <trkpt lat="45.729770651087165" lon="10.099401399493217">
        <ele>264.98000000000002</ele>
        <time>2014-05-11T14:15:05Z</time>
      </trkpt>
      <trkpt lat="45.7296272367239" lon="10.09932478889823">
        <ele>264.01999999999998</ele>
        <time>2014-05-11T14:15:23Z</time>
      </trkpt>
      <trkpt lat="45.729552134871483" lon="10.099251782521605">
        <ele>263.06</ele>
        <time>2014-05-11T14:15:35Z</time>
      </trkpt>
      <trkpt lat="45.729415090754628" lon="10.099109122529626">
        <ele>262.10000000000002</ele>
        <time>2014-05-11T14:15:52Z</time>
      </trkpt>
      <trkpt lat="45.729265809059143" lon="10.098963864147663">
        <ele>260.64999999999998</ele>
        <time>2014-05-11T14:16:08Z</time>
      </trkpt>
      <trkpt lat="45.729228174313903" lon="10.098834950476885">
        <ele>260.17000000000002</ele>
        <time>2014-05-11T14:16:17Z</time>
      </trkpt>
      <trkpt lat="45.729223312810063" lon="10.098574860021472">
        <ele>259.20999999999998</ele>
        <time>2014-05-11T14:16:32Z</time>
      </trkpt>
      <trkpt lat="45.72925491258502" lon="10.098337568342686">
        <ele>257.76999999999998</ele>
        <time>2014-05-11T14:16:46Z</time>
      </trkpt>
      <trkpt lat="45.72923781350255" lon="10.098271854221821">
        <ele>257.76999999999998</ele>
        <time>2014-05-11T14:16:59Z</time>
      </trkpt>
      <trkpt lat="45.729241585358977" lon="10.098274620249867">
        <ele>257.76999999999998</ele>
        <time>2014-05-11T14:17:00Z</time>
      </trkpt>
      <trkpt lat="45.729271927848458" lon="10.098222400993109">
        <ele>257.76999999999998</ele>
        <time>2014-05-11T14:17:07Z</time>
      </trkpt>
      <trkpt lat="45.729294223710895" lon="10.098090721294284">
        <ele>256.81</ele>
        <time>2014-05-11T14:17:16Z</time>
      </trkpt>
      <trkpt lat="45.729314927011728" lon="10.098048141226172">
        <ele>256.32999999999998</ele>
        <time>2014-05-11T14:17:20Z</time>
      </trkpt>
      <trkpt lat="45.729343593120575" lon="10.09787161834538">
        <ele>255.84999999999999</ele>
        <time>2014-05-11T14:17:30Z</time>
      </trkpt>
      <trkpt lat="45.729340659454465" lon="10.097798360511661">
        <ele>254.88999999999999</ele>
        <time>2014-05-11T14:17:36Z</time>
      </trkpt>
      <trkpt lat="45.729294139891863" lon="10.097725605592132">
        <ele>253.93000000000001</ele>
        <time>2014-05-11T14:17:42Z</time>
      </trkpt>
      <trkpt lat="45.72926614433527" lon="10.097519243136048">
        <ele>252.96000000000001</ele>
        <time>2014-05-11T14:17:56Z</time>
      </trkpt>
      <trkpt lat="45.729261450469494" lon="10.097489571198821">
        <ele>252.96000000000001</ele>
        <time>2014-05-11T14:18:07Z</time>
      </trkpt>
      <trkpt lat="45.729243345558643" lon="10.09746752679348">
        <ele>252.47999999999999</ele>
        <time>2014-05-11T14:18:31Z</time>
      </trkpt>
      <trkpt lat="45.729258684441447" lon="10.097430059686303">
        <ele>252.47999999999999</ele>
        <time>2014-05-11T14:18:50Z</time>
      </trkpt>
      <trkpt lat="45.729262623935938" lon="10.097409607842565">
        <ele>252.47999999999999</ele>
        <time>2014-05-11T14:18:52Z</time>
      </trkpt>
      <trkpt lat="45.729269497096539" lon="10.0972955301404">
        <ele>250.56</ele>
        <time>2014-05-11T14:19:11Z</time>
      </trkpt>
      <trkpt lat="45.729330098256469" lon="10.097175585106015">
        <ele>248.63999999999999</ele>
        <time>2014-05-11T14:19:20Z</time>
      </trkpt>
      <trkpt lat="45.729428417980671" lon="10.097019262611866">
        <ele>245.75</ele>
        <time>2014-05-11T14:19:33Z</time>
      </trkpt>
      <trkpt lat="45.729502514004707" lon="10.096872411668301">
        <ele>243.83000000000001</ele>
        <time>2014-05-11T14:19:44Z</time>
      </trkpt>
      <trkpt lat="45.729569317772985" lon="10.096819270402193">
        <ele>242.87</ele>
        <time>2014-05-11T14:19:59Z</time>
      </trkpt>
      <trkpt lat="45.729612903669477" lon="10.0967360381037">
        <ele>241.43000000000001</ele>
        <time>2014-05-11T14:20:27Z</time>
      </trkpt>
      <trkpt lat="45.729761347174644" lon="10.096568902954459">
        <ele>238.06</ele>
        <time>2014-05-11T14:20:46Z</time>
      </trkpt>
      <trkpt lat="45.72985740378499" lon="10.096425153315067">
        <ele>236.62</ele>
        <time>2014-05-11T14:20:57Z</time>
      </trkpt>
      <trkpt lat="45.729872491210699" lon="10.096393469721079">
        <ele>236.13999999999999</ele>
        <time>2014-05-11T14:20:59Z</time>
      </trkpt>
      <trkpt lat="45.730036441236734" lon="10.096237733960152">
        <ele>233.25999999999999</ele>
        <time>2014-05-11T14:21:16Z</time>
      </trkpt>
      <trkpt lat="45.730135180056095" lon="10.096200266852975">
        <ele>231.81</ele>
        <time>2014-05-11T14:21:25Z</time>
      </trkpt>
      <trkpt lat="45.730191003531218" lon="10.096088452264667">
        <ele>230.37</ele>
        <time>2014-05-11T14:21:32Z</time>
      </trkpt>
      <trkpt lat="45.730238864198327" lon="10.096070766448975">
        <ele>228.44999999999999</ele>
        <time>2014-05-11T14:21:39Z</time>
      </trkpt>
      <trkpt lat="45.730279851704836" lon="10.096057439222932">
        <ele>226.53</ele>
        <time>2014-05-11T14:21:47Z</time>
      </trkpt>
      <trkpt lat="45.730200558900833" lon="10.096028940752149">
        <ele>225.09</ele>
        <time>2014-05-11T14:21:55Z</time>
      </trkpt>
      <trkpt lat="45.730097377672791" lon="10.096002202481031">
        <ele>223.16</ele>
        <time>2014-05-11T14:22:05Z</time>
      </trkpt>
      <trkpt lat="45.730079524219036" lon="10.096004381775856">
        <ele>222.68000000000001</ele>
        <time>2014-05-11T14:22:08Z</time>
      </trkpt>
      <trkpt lat="45.730024958029389" lon="10.096021145582199">
        <ele>221.24000000000001</ele>
        <time>2014-05-11T14:22:14Z</time>
      </trkpt>
      <trkpt lat="45.729977348819375" lon="10.096028773114085">
        <ele>220.75999999999999</ele>
        <time>2014-05-11T14:22:19Z</time>
      </trkpt>
      <trkpt lat="45.729891350492835" lon="10.095994910225272">
        <ele>218.84</ele>
        <time>2014-05-11T14:22:31Z</time>
      </trkpt>
      <trkpt lat="45.729857822880149" lon="10.09583699516952">
        <ele>215.94999999999999</ele>
        <time>2014-05-11T14:22:41Z</time>
      </trkpt>
      <trkpt lat="45.729943737387657" lon="10.095701878890395">
        <ele>214.99000000000001</ele>
        <time>2014-05-11T14:22:48Z</time>
      </trkpt>
      <trkpt lat="45.730067202821374" lon="10.095574893057346">
        <ele>213.55000000000001</ele>
        <time>2014-05-11T14:22:59Z</time>
      </trkpt>
      <trkpt lat="45.730128893628716" lon="10.095508424565196">
        <ele>213.06999999999999</ele>
        <time>2014-05-11T14:23:04Z</time>
      </trkpt>
      <trkpt lat="45.730143059045076" lon="10.09549543261528">
        <ele>212.59</ele>
        <time>2014-05-11T14:23:05Z</time>
      </trkpt>
      <trkpt lat="45.730157727375627" lon="10.095484536141157">
        <ele>212.59</ele>
        <time>2014-05-11T14:23:06Z</time>
      </trkpt>
      <trkpt lat="45.730215730145574" lon="10.095435921102762">
        <ele>212.11000000000001</ele>
        <time>2014-05-11T14:23:12Z</time>
      </trkpt>
      <trkpt lat="45.73034699074924" lon="10.095353275537491">
        <ele>210.66999999999999</ele>
        <time>2014-05-11T14:23:24Z</time>
      </trkpt>
      <trkpt lat="45.730577073991299" lon="10.095189912244678">
        <ele>208.25999999999999</ele>
        <time>2014-05-11T14:23:46Z</time>
      </trkpt>
      <trkpt lat="45.730810007080436" lon="10.095025794580579">
        <ele>206.34</ele>
        <time>2014-05-11T14:24:06Z</time>
      </trkpt>
      <trkpt lat="45.730874380096793" lon="10.094872741028666">
        <ele>205.38</ele>
        <time>2014-05-11T14:24:19Z</time>
      </trkpt>
      <trkpt lat="45.730949565768242" lon="10.094774756580591">
        <ele>204.41999999999999</ele>
        <time>2014-05-11T14:24:28Z</time>
      </trkpt>
      <trkpt lat="45.731094824150205" lon="10.094633353874087">
        <ele>203.94</ele>
        <time>2014-05-11T14:24:44Z</time>
      </trkpt>
      <trkpt lat="45.73124754242599" lon="10.094455238431692">
        <ele>202.97999999999999</ele>
        <time>2014-05-11T14:25:00Z</time>
      </trkpt>
      <trkpt lat="45.731262462213635" lon="10.094406707212329">
        <ele>202.97999999999999</ele>
        <time>2014-05-11T14:25:03Z</time>
      </trkpt>
      <trkpt lat="45.731320381164551" lon="10.094317942857742">
        <ele>202.00999999999999</ele>
        <time>2014-05-11T14:25:11Z</time>
      </trkpt>
      <trkpt lat="45.731366397812963" lon="10.094201434403658">
        <ele>201.53</ele>
        <time>2014-05-11T14:25:21Z</time>
      </trkpt>
      <trkpt lat="45.731371678411961" lon="10.094184838235378">
        <ele>201.53</ele>
        <time>2014-05-11T14:25:22Z</time>
      </trkpt>
      <trkpt lat="45.731440577656031" lon="10.09410135447979">
        <ele>201.05000000000001</ele>
        <time>2014-05-11T14:25:31Z</time>
      </trkpt>
      <trkpt lat="45.731452982872725" lon="10.094092972576618">
        <ele>201.05000000000001</ele>
        <time>2014-05-11T14:25:32Z</time>
      </trkpt>
      <trkpt lat="45.731649454683065" lon="10.093985600396991">
        <ele>201.05000000000001</ele>
        <time>2014-05-11T14:25:50Z</time>
      </trkpt>
      <trkpt lat="45.731898229569197" lon="10.093758869916201">
        <ele>202.00999999999999</ele>
        <time>2014-05-11T14:26:15Z</time>
      </trkpt>
      <trkpt lat="45.732008870691061" lon="10.093833636492491">
        <ele>202.00999999999999</ele>
        <time>2014-05-11T14:26:33Z</time>
      </trkpt>
      <trkpt lat="45.732042146846652" lon="10.093811508268118">
        <ele>202.00999999999999</ele>
        <time>2014-05-11T14:26:46Z</time>
      </trkpt>
      <trkpt lat="45.732069052755833" lon="10.093783596530557">
        <ele>202.49000000000001</ele>
        <time>2014-05-11T14:26:56Z</time>
      </trkpt>
      <trkpt lat="45.732026305049658" lon="10.093730874359608">
        <ele>202.49000000000001</ele>
        <time>2014-05-11T14:27:09Z</time>
      </trkpt>
      <trkpt lat="45.732023706659675" lon="10.093741770833731">
        <ele>202.00999999999999</ele>
        <time>2014-05-11T14:27:34Z</time>
      </trkpt>
      <trkpt lat="45.732019683346152" lon="10.093725677579641">
        <ele>202.00999999999999</ele>
        <time>2014-05-11T14:27:55Z</time>
      </trkpt>
      <trkpt lat="45.732022114098072" lon="10.093773202970624">
        <ele>202.00999999999999</ele>
        <time>2014-05-11T14:28:24Z</time>
      </trkpt>
      <trkpt lat="45.73202982544899" lon="10.09376666508615">
        <ele>202.00999999999999</ele>
        <time>2014-05-11T14:28:42Z</time>
      </trkpt>
      <trkpt lat="45.732059413567185" lon="10.093791140243411">
        <ele>202.00999999999999</ele>
        <time>2014-05-11T14:29:08Z</time>
      </trkpt>
      <trkpt lat="45.73202789761126" lon="10.093756942078471">
        <ele>202.97999999999999</ele>
        <time>2014-05-11T14:29:28Z</time>
      </trkpt>
      <trkpt lat="45.732029238715768" lon="10.093789547681808">
        <ele>202.97999999999999</ele>
        <time>2014-05-11T14:29:51Z</time>
      </trkpt>
      <trkpt lat="45.732011971995234" lon="10.093783680349588">
        <ele>202.97999999999999</ele>
        <time>2014-05-11T14:30:16Z</time>
      </trkpt>
      <trkpt lat="45.73202102445066" lon="10.093759121373296">
        <ele>203.94</ele>
        <time>2014-05-11T14:30:31Z</time>
      </trkpt>
      <trkpt lat="45.732090510427952" lon="10.093714445829391">
        <ele>202.49000000000001</ele>
        <time>2014-05-11T14:30:49Z</time>
      </trkpt>
      <trkpt lat="45.732103167101741" lon="10.093711009249091">
        <ele>202.49000000000001</ele>
        <time>2014-05-11T14:30:50Z</time>
      </trkpt>
      <trkpt lat="45.732115907594562" lon="10.093705896288157">
        <ele>202.00999999999999</ele>
        <time>2014-05-11T14:30:51Z</time>
      </trkpt>
      <trkpt lat="45.732129402458668" lon="10.093703465536237">
        <ele>202.00999999999999</ele>
        <time>2014-05-11T14:30:52Z</time>
      </trkpt>
      <trkpt lat="45.732145076617599" lon="10.093702208250761">
        <ele>202.00999999999999</ele>
        <time>2014-05-11T14:30:53Z</time>
      </trkpt>
      <trkpt lat="45.732162678614259" lon="10.093696592375636">
        <ele>202.00999999999999</ele>
        <time>2014-05-11T14:30:54Z</time>
      </trkpt>
      <trkpt lat="45.732177095487714" lon="10.093689635396004">
        <ele>202.00999999999999</ele>
        <time>2014-05-11T14:30:55Z</time>
      </trkpt>
      <trkpt lat="45.732188075780869" lon="10.093682426959276">
        <ele>201.53</ele>
        <time>2014-05-11T14:30:56Z</time>
      </trkpt>
      <trkpt lat="45.732310200110078" lon="10.093511855229735">
        <ele>201.05000000000001</ele>
        <time>2014-05-11T14:31:10Z</time>
      </trkpt>
      <trkpt lat="45.732314642518759" lon="10.093490062281489">
        <ele>201.05000000000001</ele>
        <time>2014-05-11T14:31:11Z</time>
      </trkpt>
      <trkpt lat="45.732326041907072" lon="10.093473214656115">
        <ele>201.05000000000001</ele>
        <time>2014-05-11T14:31:12Z</time>
      </trkpt>
      <trkpt lat="45.73247398249805" lon="10.093353353440762">
        <ele>202.49000000000001</ele>
        <time>2014-05-11T14:31:30Z</time>
      </trkpt>
      <trkpt lat="45.732560316100717" lon="10.093270624056458">
        <ele>203.46000000000001</ele>
        <time>2014-05-11T14:31:50Z</time>
      </trkpt>
      <trkpt lat="45.732554448768497" lon="10.093227289617062">
        <ele>203.46000000000001</ele>
        <time>2014-05-11T14:31:53Z</time>
      </trkpt>
      <trkpt lat="45.732518155127764" lon="10.093176243826747">
        <ele>203.46000000000001</ele>
        <time>2014-05-11T14:31:57Z</time>
      </trkpt>
      <trkpt lat="45.732506085187197" lon="10.093168029561639">
        <ele>203.46000000000001</ele>
        <time>2014-05-11T14:31:58Z</time>
      </trkpt>
      <trkpt lat="45.73241681791842" lon="10.093197366222739">
        <ele>203.46000000000001</ele>
        <time>2014-05-11T14:32:08Z</time>
      </trkpt>
      <trkpt lat="45.732169635593891" lon="10.093367351219058">
        <ele>202.97999999999999</ele>
        <time>2014-05-11T14:32:30Z</time>
      </trkpt>
      <trkpt lat="45.731972409412265" lon="10.09351353161037">
        <ele>202.97999999999999</ele>
        <time>2014-05-11T14:32:48Z</time>
      </trkpt>
      <trkpt lat="45.731818098574877" lon="10.093610845506191">
        <ele>202.97999999999999</ele>
        <time>2014-05-11T14:33:01Z</time>
      </trkpt>
      <trkpt lat="45.731669822707772" lon="10.093747386708856">
        <ele>201.53</ele>
        <time>2014-05-11T14:33:16Z</time>
      </trkpt>
      <trkpt lat="45.731459688395262" lon="10.093842186033726">
        <ele>201.53</ele>
        <time>2014-05-11T14:33:31Z</time>
      </trkpt>
      <trkpt lat="45.731336390599608" lon="10.093903541564941">
        <ele>201.53</ele>
        <time>2014-05-11T14:33:42Z</time>
      </trkpt>
      <trkpt lat="45.731204878538847" lon="10.094010662287474">
        <ele>201.53</ele>
        <time>2014-05-11T14:33:54Z</time>
      </trkpt>
      <trkpt lat="45.731079569086432" lon="10.094097750261426">
        <ele>201.53</ele>
        <time>2014-05-11T14:34:06Z</time>
      </trkpt>
      <trkpt lat="45.730954678729177" lon="10.094168661162257">
        <ele>201.05000000000001</ele>
        <time>2014-05-11T14:34:17Z</time>
      </trkpt>
      <trkpt lat="45.730824591591954" lon="10.094261029735208">
        <ele>200.56999999999999</ele>
        <time>2014-05-11T14:34:29Z</time>
      </trkpt>
      <trkpt lat="45.730727780610323" lon="10.094338059425354">
        <ele>200.56999999999999</ele>
        <time>2014-05-11T14:34:40Z</time>
      </trkpt>
      <trkpt lat="45.730611020699143" lon="10.094423219561577">
        <ele>200.56999999999999</ele>
        <time>2014-05-11T14:34:52Z</time>
      </trkpt>
      <trkpt lat="45.730477748438716" lon="10.094483233988285">
        <ele>199.61000000000001</ele>
        <time>2014-05-11T14:35:03Z</time>
      </trkpt>
      <trkpt lat="45.730307176709175" lon="10.094536710530519">
        <ele>199.61000000000001</ele>
        <time>2014-05-11T14:35:19Z</time>
      </trkpt>
      <trkpt lat="45.730315307155252" lon="10.094510391354561">
        <ele>199.61000000000001</ele>
        <time>2014-05-11T14:35:23Z</time>
      </trkpt>
      <trkpt lat="45.730310529470444" lon="10.094491951167583">
        <ele>199.61000000000001</ele>
        <time>2014-05-11T14:35:24Z</time>
      </trkpt>
      <trkpt lat="45.730251101776958" lon="10.094321379438043">
        <ele>199.61000000000001</ele>
        <time>2014-05-11T14:35:35Z</time>
      </trkpt>
      <trkpt lat="45.730153368785977" lon="10.094126248732209">
        <ele>196.72999999999999</ele>
        <time>2014-05-11T14:35:51Z</time>
      </trkpt>
      <trkpt lat="45.730160912498832" lon="10.094133289530873">
        <ele>196.25</ele>
        <time>2014-05-11T14:36:09Z</time>
      </trkpt>
      <trkpt lat="45.730170803144574" lon="10.094146197661757">
        <ele>197.69</ele>
        <time>2014-05-11T14:36:10Z</time>
      </trkpt>
      <trkpt lat="45.730180274695158" lon="10.094160698354244">
        <ele>197.69</ele>
        <time>2014-05-11T14:36:11Z</time>
      </trkpt>
      <trkpt lat="45.730231404304504" lon="10.094283241778612">
        <ele>198.16999999999999</ele>
        <time>2014-05-11T14:36:21Z</time>
      </trkpt>
      <trkpt lat="45.730307260528207" lon="10.094464039430022">
        <ele>200.09</ele>
        <time>2014-05-11T14:36:37Z</time>
      </trkpt>
      <trkpt lat="45.730315810069442" lon="10.094487760215998">
        <ele>199.61000000000001</ele>
        <time>2014-05-11T14:36:39Z</time>
      </trkpt>
      <trkpt lat="45.730333831161261" lon="10.094531681388617">
        <ele>200.09</ele>
        <time>2014-05-11T14:36:42Z</time>
      </trkpt>
      <trkpt lat="45.730339447036386" lon="10.094547271728516">
        <ele>200.09</ele>
        <time>2014-05-11T14:36:43Z</time>
      </trkpt>
      <trkpt lat="45.730325365439057" lon="10.094595467671752">
        <ele>200.09</ele>
        <time>2014-05-11T14:36:47Z</time>
      </trkpt>
      <trkpt lat="45.730282869189978" lon="10.094648189842701">
        <ele>200.09</ele>
        <time>2014-05-11T14:36:53Z</time>
      </trkpt>
      <trkpt lat="45.730254286900163" lon="10.094664031639695">
        <ele>200.09</ele>
        <time>2014-05-11T14:36:57Z</time>
      </trkpt>
      <trkpt lat="45.730236936360598" lon="10.094668557867408">
        <ele>200.09</ele>
        <time>2014-05-11T14:36:58Z</time>
      </trkpt>
      <trkpt lat="45.730221848934889" lon="10.094681046903133">
        <ele>200.09</ele>
        <time>2014-05-11T14:36:59Z</time>
      </trkpt>
      <trkpt lat="45.730191757902503" lon="10.094719938933849">
        <ele>200.09</ele>
        <time>2014-05-11T14:37:03Z</time>
      </trkpt>
      <trkpt lat="45.730180274695158" lon="10.094733852893114">
        <ele>200.09</ele>
        <time>2014-05-11T14:37:04Z</time>
      </trkpt>
      <trkpt lat="45.730166109278798" lon="10.094744581729174">
        <ele>200.09</ele>
        <time>2014-05-11T14:37:05Z</time>
      </trkpt>
      <trkpt lat="45.730142891407013" lon="10.094759585335851">
        <ele>200.09</ele>
        <time>2014-05-11T14:37:08Z</time>
      </trkpt>
      <trkpt lat="45.730127720162272" lon="10.094769392162561">
        <ele>200.09</ele>
        <time>2014-05-11T14:37:09Z</time>
      </trkpt>
      <trkpt lat="45.73002110235393" lon="10.094833513721824">
        <ele>200.09</ele>
        <time>2014-05-11T14:37:19Z</time>
      </trkpt>
      <trkpt lat="45.730005344375968" lon="10.094845499843359">
        <ele>200.09</ele>
        <time>2014-05-11T14:37:21Z</time>
      </trkpt>
      <trkpt lat="45.729994950816035" lon="10.094852540642023">
        <ele>200.09</ele>
        <time>2014-05-11T14:37:22Z</time>
      </trkpt>
      <trkpt lat="45.729924291372299" lon="10.094896797090769">
        <ele>200.56999999999999</ele>
        <time>2014-05-11T14:37:32Z</time>
      </trkpt>
      <trkpt lat="45.729906102642417" lon="10.094913141801953">
        <ele>200.56999999999999</ele>
        <time>2014-05-11T14:37:46Z</time>
      </trkpt>
      <trkpt lat="45.729911215603352" lon="10.094899144023657">
        <ele>200.56999999999999</ele>
        <time>2014-05-11T14:37:48Z</time>
      </trkpt>
      <trkpt lat="45.72990627028048" lon="10.094880452379584">
        <ele>200.56999999999999</ele>
        <time>2014-05-11T14:37:58Z</time>
      </trkpt>
    </trkseg>
  </trk>

</gpx>